[[{"header":{"parameterUnit":"m.s-1","parameterCategory":1,"la1":30.6,"la2":29.2853,"lo1":-89.7004,"lo2":-87.6739,"dx":0.0162,"dy":0.0183,"nx":112,"ny":82,"refTime":"2022-12-03T06:00:00:Z","depth":0,"parameterNumber":2,"parameterNumberName":"U-component_of_WINDS"},"data":[0.0,0.0,0.0,0.0,0.0,0.0,0.0,0.0,0.0,0.0,0.0,0.0,0.0,0.0,0.0,0.0,0.0,0.0,0.0,0.0,0.0,0.0,0.0,0.0,0.0,0.0,0.0,0.0,0.0,0.0,0.0,0.0,0.0,0.0,0.0,0.0,0.0,0.0,0.0,0.0,0.0,0.0,0.0,0.0,0.0,0.0,0.0,0.0,0.0,0.0,0.0,0.0,0.0,0.0,0.0,0.0,0.0,0.0,0.0,0.0,0.0,0.0,0.0,0.0,0.0,0.0,0.0,0.0,0.0,0.0,0.0,0.0,0.0,0.0,0.0,0.0,0.0,0.0,0.0,0.0,0.0,0.0,0.0,0.0,0.0,0.0,0.0,0.0,0.0,0.0,-4.2354,-4.4536,-4.7423,-4.9138,-4.8982,-4.7501,-4.4033,-3.7993,0.0,0.0,0.0,0.0,0.0,0.0,0.0,0.0,0.0,0.0,0.0,0.0,0.0,0.0,0.0,0.0,0.0,0.0,0.0,0.0,0.0,0.0,0.0,0.0,0.0,0.0,0.0,0.0,0.0,0.0,0.0,0.0,0.0,0.0,0.0,0.0,0.0,0.0,0.0,0.0,0.0,0.0,0.0,0.0,0.0,0.0,0.0,0.0,0.0,0.0,0.0,0.0,0.0,0.0,0.0,0.0,0.0,0.0,0.0,0.0,0.0,0.0,0.0,0.0,0.0,0.0,0.0,0.0,0.0,0.0,0.0,0.0,0.0,0.0,0.0,0.0,0.0,0.0,0.0,0.0,0.0,0.0,0.0,0.0,0.0,0.0,0.0,0.0,0.0,0.0,0.0,0.0,0.0,0.0,0.0,0.0,0.0,0.0,0.0,0.0,0.0,0.0,0.0,0.0,-4.111,-4.9255,-5.0618,-5.0618,-4.9878,-4.8943,-4.5825,-3.9786,0.0,0.0,0.0,0.0,0.0,0.0,0.0,0.0,0.0,0.0,0.0,0.0,0.0,0.0,0.0,0.0,0.0,0.0,0.0,0.0,0.0,0.0,0.0,0.0,0.0,0.0,0.0,0.0,0.0,0.0,0.0,0.0,0.0,0.0,0.0,0.0,0.0,0.0,0.0,0.0,0.0,0.0,0.0,0.0,0.0,0.0,0.0,0.0,0.0,0.0,0.0,0.0,0.0,0.0,0.0,0.0,0.0,0.0,0.0,0.0,0.0,0.0,0.0,0.0,0.0,0.0,0.0,0.0,0.0,0.0,0.0,0.0,0.0,0.0,0.0,0.0,0.0,0.0,0.0,0.0,0.0,0.0,0.0,0.0,0.0,0.0,0.0,0.0,0.0,0.0,0.0,0.0,0.0,0.0,0.0,0.0,0.0,0.0,0.0,0.0,0.0,0.0,0.0,-3.963,-4.3916,-5.0579,-5.132,-5.0969,-5.0073,-4.9255,-4.6215,-4.0175,-3.5772,0.0,0.0,0.0,0.0,0.0,0.0,0.0,0.0,0.0,0.0,0.0,0.0,0.0,0.0,0.0,0.0,0.0,0.0,0.0,0.0,0.0,0.0,0.0,0.0,0.0,0.0,0.0,0.0,0.0,0.0,0.0,0.0,0.0,0.0,0.0,0.0,0.0,0.0,0.0,0.0,0.0,0.0,0.0,0.0,0.0,0.0,0.0,0.0,0.0,0.0,0.0,0.0,0.0,0.0,0.0,0.0,0.0,0.0,0.0,0.0,0.0,0.0,0.0,0.0,0.0,0.0,0.0,0.0,0.0,0.0,0.0,0.0,0.0,0.0,0.0,0.0,0.0,0.0,0.0,0.0,0.0,0.0,0.0,0.0,0.0,0.0,0.0,0.0,0.0,0.0,0.0,0.0,0.0,0.0,0.0,0.0,0.0,0.0,0.0,0.0,0.0,0.0,-4.4734,-4.7657,-5.0969,-5.132,-5.1047,-5.0346,-4.9566,-4.6449,-4.0175,-3.5967,0.0,0.0,0.0,0.0,0.0,0.0,0.0,0.0,0.0,0.0,0.0,0.0,0.0,0.0,0.0,0.0,0.0,0.0,0.0,0.0,0.0,0.0,0.0,0.0,0.0,0.0,0.0,0.0,0.0,0.0,0.0,0.0,0.0,0.0,0.0,0.0,0.0,0.0,0.0,0.0,0.0,0.0,0.0,0.0,0.0,0.0,0.0,0.0,0.0,0.0,0.0,0.0,0.0,0.0,0.0,0.0,0.0,0.0,0.0,0.0,0.0,0.0,0.0,0.0,0.0,0.0,0.0,0.0,0.0,0.0,0.0,0.0,0.0,0.0,0.0,0.0,0.0,0.0,0.0,0.0,0.0,0.0,0.0,0.0,0.0,0.0,0.0,0.0,0.0,0.0,0.0,0.0,0.0,0.0,0.0,0.0,0.0,0.0,0.0,0.0,0.0,0.0,-4.5864,-5.0969,-5.1281,-5.132,-5.1281,-5.1203,-5.0424,-4.7033,-4.0214,-3.6473,0.0,0.0,0.0,0.0,0.0,0.0,0.0,0.0,0.0,0.0,0.0,0.0,0.0,0.0,0.0,0.0,0.0,0.0,0.0,0.0,0.0,0.0,0.0,0.0,0.0,0.0,0.0,0.0,0.0,0.0,0.0,0.0,0.0,0.0,0.0,0.0,0.0,0.0,0.0,0.0,0.0,0.0,0.0,0.0,0.0,0.0,0.0,0.0,0.0,0.0,0.0,0.0,0.0,0.0,0.0,0.0,0.0,0.0,0.0,0.0,0.0,0.0,0.0,0.0,0.0,0.0,0.0,0.0,0.0,0.0,0.0,0.0,0.0,0.0,0.0,0.0,0.0,0.0,0.0,0.0,0.0,0.0,0.0,0.0,0.0,0.0,0.0,0.0,0.0,0.0,0.0,0.0,0.0,0.0,0.0,0.0,0.0,0.0,0.0,0.0,0.0,0.0,-4.4014,-4.8391,-5.1016,-5.1314,-5.1281,-5.1285,-5.0502,-4.7065,-4.0156,0.0,0.0,0.0,0.0,0.0,0.0,0.0,0.0,0.0,0.0,0.0,0.0,0.0,0.0,0.0,0.0,0.0,0.0,0.0,0.0,0.0,0.0,0.0,0.0,0.0,0.0,0.0,0.0,0.0,0.0,0.0,0.0,0.0,0.0,0.0,0.0,0.0,0.0,0.0,0.0,0.0,0.0,0.0,0.0,0.0,0.0,0.0,0.0,0.0,0.0,0.0,0.0,0.0,0.0,0.0,0.0,0.0,0.0,0.0,0.0,0.0,0.0,0.0,0.0,0.0,0.0,0.0,0.0,0.0,0.0,0.0,0.0,0.0,0.0,0.0,0.0,0.0,0.0,0.0,0.0,0.0,0.0,0.0,0.0,0.0,0.0,0.0,0.0,0.0,0.0,0.0,0.0,0.0,0.0,0.0,0.0,0.0,0.0,0.0,0.0,0.0,0.0,-3.9507,-4.4669,-4.8934,-5.1812,-5.2143,-5.203,-5.1765,-5.1219,-4.7423,-3.9402,0.0,0.0,0.0,0.0,0.0,0.0,0.0,0.0,0.0,0.0,0.0,0.0,0.0,0.0,0.0,0.0,0.0,0.0,0.0,0.0,0.0,0.0,0.0,0.0,0.0,0.0,0.0,0.0,0.0,0.0,0.0,0.0,0.0,0.0,0.0,0.0,0.0,0.0,0.0,0.0,0.0,0.0,0.0,0.0,0.0,0.0,0.0,0.0,0.0,0.0,0.0,0.0,0.0,0.0,0.0,0.0,0.0,0.0,0.0,0.0,0.0,0.0,0.0,0.0,0.0,0.0,0.0,0.0,0.0,0.0,0.0,0.0,0.0,0.0,0.0,0.0,0.0,0.0,0.0,0.0,0.0,0.0,0.0,0.0,0.0,0.0,0.0,0.0,0.0,0.0,0.0,0.0,0.0,0.0,0.0,0.0,0.0,0.0,0.0,0.0,0.0,0.0,-4.0797,-4.8583,-5.3901,-5.39,-5.3901,-5.3587,-5.2766,-5.2726,-4.8268,0.0,0.0,0.0,0.0,0.0,0.0,0.0,0.0,0.0,0.0,0.0,0.0,0.0,0.0,0.0,0.0,0.0,0.0,0.0,0.0,0.0,0.0,0.0,0.0,0.0,0.0,0.0,0.0,0.0,0.0,0.0,0.0,0.0,0.0,0.0,0.0,0.0,0.0,0.0,0.0,0.0,0.0,0.0,0.0,0.0,0.0,0.0,0.0,0.0,0.0,0.0,0.0,0.0,0.0,0.0,0.0,0.0,0.0,0.0,0.0,0.0,0.0,0.0,0.0,0.0,0.0,0.0,0.0,0.0,0.0,0.0,0.0,0.0,0.0,0.0,0.0,0.0,0.0,0.0,0.0,0.0,0.0,0.0,0.0,0.0,0.0,0.0,0.0,0.0,0.0,0.0,0.0,0.0,0.0,0.0,0.0,0.0,0.0,0.0,0.0,0.0,0.0,0.0,-4.1593,-4.9023,-5.3942,-5.3902,-5.3945,-5.3867,-5.3588,-5.3548,-4.9128,-3.8707,0.0,0.0,0.0,0.0,0.0,0.0,0.0,0.0,0.0,0.0,0.0,0.0,0.0,0.0,0.0,0.0,0.0,0.0,0.0,0.0,0.0,0.0,0.0,0.0,0.0,0.0,0.0,0.0,0.0,0.0,0.0,0.0,0.0,0.0,0.0,0.0,0.0,0.0,0.0,0.0,0.0,0.0,0.0,0.0,0.0,0.0,0.0,0.0,0.0,0.0,0.0,0.0,0.0,0.0,0.0,0.0,0.0,0.0,0.0,0.0,0.0,0.0,0.0,0.0,0.0,0.0,0.0,0.0,0.0,0.0,0.0,0.0,0.0,0.0,0.0,0.0,0.0,0.0,0.0,0.0,0.0,0.0,0.0,0.0,0.0,0.0,0.0,0.0,0.0,0.0,0.0,0.0,0.0,0.0,0.0,0.0,0.0,0.0,0.0,0.0,0.0,0.0,-4.2461,-5.0027,-5.5018,-5.4998,-5.4994,-5.4875,-5.4491,-5.4452,-5.0742,-4.2061,0.0,0.0,0.0,0.0,0.0,0.0,0.0,0.0,0.0,0.0,0.0,0.0,0.0,0.0,0.0,0.0,0.0,0.0,0.0,0.0,0.0,0.0,0.0,0.0,0.0,0.0,0.0,0.0,0.0,0.0,0.0,0.0,0.0,0.0,0.0,0.0,0.0,0.0,0.0,0.0,0.0,0.0,0.0,0.0,0.0,0.0,0.0,0.0,0.0,0.0,0.0,0.0,0.0,0.0,0.0,0.0,0.0,0.0,0.0,0.0,0.0,0.0,0.0,0.0,0.0,0.0,0.0,0.0,0.0,0.0,0.0,0.0,0.0,0.0,0.0,0.0,0.0,0.0,0.0,0.0,0.0,0.0,0.0,0.0,0.0,0.0,0.0,0.0,0.0,0.0,0.0,0.0,0.0,0.0,0.0,0.0,0.0,0.0,0.0,0.0,0.0,0.0,-4.3274,-5.1267,-5.6606,-5.6606,-5.6606,-5.6294,-5.5474,-5.5435,-5.2829,-4.6712,0.0,0.0,0.0,0.0,0.0,0.0,0.0,0.0,0.0,0.0,0.0,0.0,0.0,0.0,0.0,0.0,0.0,0.0,0.0,0.0,0.0,0.0,0.0,0.0,0.0,0.0,0.0,0.0,0.0,0.0,0.0,0.0,0.0,0.0,0.0,0.0,0.0,0.0,0.0,0.0,0.0,0.0,0.0,0.0,0.0,0.0,0.0,0.0,0.0,0.0,0.0,0.0,0.0,0.0,0.0,0.0,0.0,0.0,0.0,0.0,-3.7204,-3.3573,0.0,0.0,0.0,0.0,0.0,0.0,0.0,0.0,0.0,0.0,0.0,0.0,0.0,0.0,0.0,0.0,0.0,0.0,0.0,0.0,0.0,0.0,0.0,0.0,0.0,0.0,0.0,0.0,0.0,0.0,0.0,0.0,0.0,0.0,0.0,0.0,0.0,0.0,0.0,0.0,-4.3261,-5.126,-5.6606,-5.6606,-5.6606,-5.6528,-5.6333,-5.6333,-5.3725,-4.761,-4.5153,0.0,0.0,0.0,0.0,0.0,0.0,0.0,0.0,0.0,0.0,0.0,0.0,0.0,0.0,0.0,0.0,0.0,0.0,0.0,0.0,0.0,0.0,0.0,0.0,0.0,0.0,0.0,0.0,0.0,0.0,0.0,0.0,0.0,0.0,0.0,0.0,0.0,0.0,0.0,0.0,0.0,0.0,0.0,0.0,0.0,0.0,0.0,0.0,0.0,0.0,0.0,0.0,0.0,0.0,0.0,0.0,0.0,0.0,0.0,-4.0405,-3.8336,0.0,0.0,0.0,0.0,0.0,0.0,0.0,0.0,0.0,0.0,0.0,0.0,0.0,0.0,0.0,0.0,0.0,0.0,0.0,0.0,0.0,0.0,0.0,0.0,0.0,0.0,0.0,0.0,0.0,0.0,0.0,0.0,0.0,0.0,0.0,0.0,0.0,0.0,0.0,0.0,-4.3918,-5.1492,-5.6606,-5.6606,-5.6606,-5.6606,-5.6606,-5.6606,-5.521,-5.2026,-4.8237,0.0,0.0,0.0,0.0,0.0,0.0,0.0,0.0,0.0,0.0,0.0,0.0,0.0,0.0,0.0,0.0,0.0,0.0,0.0,0.0,0.0,0.0,0.0,0.0,0.0,0.0,0.0,0.0,0.0,0.0,0.0,0.0,0.0,0.0,0.0,0.0,0.0,0.0,0.0,0.0,0.0,0.0,0.0,0.0,0.0,0.0,0.0,0.0,0.0,0.0,0.0,0.0,0.0,-4.3021,-4.2905,-4.2905,-4.2905,-4.4465,-4.7002,-4.3372,-4.3528,-4.587,-4.0132,0.0,0.0,0.0,0.0,0.0,0.0,0.0,0.0,0.0,0.0,0.0,0.0,0.0,0.0,0.0,0.0,0.0,0.0,0.0,0.0,0.0,0.0,-4.181,-4.2708,-4.509,-4.5831,-4.0834,0.0,0.0,0.0,0.0,0.0,0.0,0.0,0.0,0.0,0.0,0.0,-4.5285,-5.2078,-5.6606,-5.6606,-5.6606,-5.6606,-5.6606,-5.6571,-5.6546,-5.6482,-5.1083,-4.7521,0.0,0.0,0.0,0.0,0.0,0.0,0.0,0.0,0.0,0.0,0.0,0.0,0.0,0.0,0.0,0.0,0.0,0.0,0.0,0.0,0.0,0.0,0.0,0.0,0.0,0.0,0.0,0.0,0.0,0.0,0.0,0.0,-4.0272,-4.125,0.0,0.0,0.0,0.0,0.0,0.0,0.0,0.0,0.0,0.0,0.0,0.0,0.0,-4.1225,-4.2552,-4.4699,-4.6183,-4.6923,-4.9032,-5.0048,-5.0048,-5.0048,-5.0282,-5.0711,-5.0126,0.0,-4.6222,-4.5324,0.0,0.0,0.0,0.0,0.0,0.0,0.0,0.0,0.0,0.0,0.0,0.0,0.0,0.0,0.0,0.0,0.0,0.0,0.0,0.0,0.0,0.0,-4.8953,-4.9813,-5.0399,-5.0516,-4.9696,-4.3684,-3.7986,-3.654,-3.4861,-3.2792,0.0,0.0,0.0,0.0,0.0,0.0,-4.7783,-5.3171,-5.6606,-5.6606,-5.6606,-5.6606,-5.6606,-5.655,-5.652,-5.6482,-5.5536,-5.3299,-4.9566,-4.6441,0.0,0.0,0.0,0.0,0.0,0.0,0.0,0.0,0.0,0.0,0.0,0.0,0.0,0.0,0.0,0.0,0.0,0.0,0.0,0.0,0.0,0.0,0.0,0.0,0.0,0.0,0.0,0.0,0.0,-3.8437,-4.0742,-4.1562,-3.9961,-3.7812,0.0,0.0,0.0,0.0,0.0,0.0,0.0,0.0,0.0,-4.4665,-4.5208,-4.6534,-4.8915,-4.9579,-5.0087,-5.0477,-5.1102,-5.1414,-5.1414,-5.1414,-5.1414,-5.1414,-5.1414,-5.0555,-4.9032,-4.7081,-4.4504,-4.1576,0.0,0.0,0.0,0.0,-3.9039,-3.9468,-4.2591,-4.3645,-4.3411,-4.2084,0.0,0.0,0.0,0.0,0.0,0.0,0.0,-4.0717,-4.4699,-4.6846,-4.8564,-5.0867,-5.1414,-5.1414,-5.1414,-4.8447,-4.4972,-4.2162,-4.021,-3.7594,-3.3025,-3.3886,0.0,0.0,0.0,-4.6846,-4.9228,-5.3678,-5.6606,-5.6606,-5.6606,-5.6573,-5.6549,-5.6518,-5.6484,-5.6462,-5.5876,-5.4918,-5.3441,-4.9459,-4.5297,0.0,0.0,0.0,0.0,0.0,0.0,0.0,0.0,0.0,0.0,0.0,0.0,0.0,0.0,0.0,0.0,0.0,0.0,0.0,0.0,0.0,0.0,0.0,0.0,0.0,0.0,0.0,0.0,-4.1132,-4.2656,-4.3046,-4.2578,-4.0586,0.0,0.0,0.0,0.0,0.0,0.0,-4.2722,-4.3577,-4.5447,-4.8493,-4.9386,-5.1023,-5.3639,-5.3249,-5.3014,-5.3014,-5.239,-5.2078,-5.2078,-5.2078,-5.2078,-5.2078,-5.2078,-5.2078,-5.1843,-4.8837,-4.7237,-4.6378,-4.3762,-4.2357,-4.1929,-4.3255,-4.3722,-4.419,-4.743,-4.8562,-4.8367,-4.7042,-4.6066,-4.4738,-4.1539,0.0,0.0,0.0,0.0,-4.2708,-4.6573,-4.7588,-4.8252,-5.0789,-5.1414,-5.1414,-5.1414,-5.1219,-5.0204,-4.7198,-4.5597,-4.306,-3.7905,-3.9195,0.0,-3.9154,-4.4582,-4.9267,-5.0594,-5.399,-5.6255,-5.6255,-5.6489,-5.6579,-5.6521,-5.6484,-5.6435,-5.639,-5.5687,-5.5545,-5.6071,-5.2384,-4.9513,-4.7811,0.0,0.0,0.0,0.0,0.0,0.0,0.0,0.0,0.0,0.0,0.0,0.0,0.0,0.0,0.0,0.0,0.0,0.0,0.0,0.0,0.0,0.0,0.0,0.0,0.0,0.0,0.0,0.0,0.0,-4.8594,-4.8476,0.0,0.0,0.0,0.0,-4.2061,-4.3032,-4.4669,-4.7131,-4.8023,-4.9306,-5.1141,-5.2038,-5.2587,-5.2743,-5.3522,-5.3912,-5.3912,-5.3873,-5.3873,-5.3873,-5.3873,-5.3873,-5.3873,-5.3873,-5.3873,-5.3717,-5.1882,-4.9735,-4.7508,-4.7352,-4.5753,-4.3879,-4.6417,-4.7352,-4.7703,-5.0321,-5.1219,-5.118,-5.1102,-4.8876,-4.6183,-4.5987,-4.4192,0.0,0.0,-4.6573,-4.782,-5.0477,-5.1141,-5.118,-5.1375,-5.1414,-5.1414,-5.1414,-5.0748,-5.0358,-5.0945,-5.1023,-5.0087,-4.7352,0.0,-4.7118,-4.704,-4.8017,-4.9696,-5.2236,-5.4227,-5.5357,-5.5357,-5.6098,-5.6579,-5.6521,-5.6437,-5.6397,-5.6386,-5.6173,-5.6071,-5.6102,-5.5783,-5.373,-4.9668,-4.6883,0.0,0.0,0.0,0.0,0.0,0.0,0.0,0.0,0.0,0.0,0.0,0.0,0.0,0.0,0.0,0.0,0.0,0.0,0.0,0.0,0.0,0.0,0.0,0.0,0.0,0.0,0.0,0.0,-4.828,-4.9061,0.0,-4.4096,-4.5144,-4.6195,-4.6507,-4.8883,-5.0754,-5.1652,-5.2001,-5.2429,-5.3053,-5.3366,-5.3522,-5.3522,-5.3834,-5.399,-5.399,-5.399,-5.399,-5.399,-5.399,-5.399,-5.399,-5.399,-5.399,-5.3951,-5.3327,-5.2546,-5.1726,-5.1726,-5.1141,-5.0438,-5.1375,-5.1726,-5.1843,-5.2741,-5.2702,-5.2156,-5.157,-5.0594,-4.9696,-5.0243,-4.9384,-4.8603,-5.0672,-5.0672,-5.0516,-5.2546,-5.2234,-5.1687,-5.2819,-5.2624,-5.239,-5.2936,-5.239,-5.2038,-5.2897,-5.1726,-5.0085,-4.8642,-4.9774,-5.0516,-4.9382,-5.1375,-5.3327,-5.4266,-5.5396,-5.6138,-5.6138,-5.6411,-5.6585,-5.6522,-5.6427,-5.6374,-5.6275,-5.6142,-5.6079,-5.6062,-5.6029,-5.5277,-5.3768,-5.284,-4.8121,0.0,0.0,0.0,0.0,0.0,0.0,0.0,0.0,0.0,0.0,0.0,0.0,0.0,0.0,0.0,0.0,0.0,0.0,0.0,0.0,0.0,0.0,0.0,0.0,0.0,-4.8281,-5.0273,-4.828,-4.9802,-4.9448,-4.5419,-4.8107,-5.0133,-5.0133,-5.2782,-5.4459,-5.4459,-5.4459,-5.4576,-5.4888,-5.4888,-5.5005,-5.5279,-5.5552,-5.5708,-5.5708,-5.5435,-5.5279,-5.5279,-5.5005,-5.4888,-5.4888,-5.4888,-5.4888,-5.4888,-5.4888,-5.4888,-5.481,-5.4225,-5.399,-5.399,-5.399,-5.399,-5.3951,-5.3678,-5.3171,-5.2587,-5.2038,-5.1648,-5.157,-5.2431,-5.2312,-5.2078,-5.3249,-5.2936,-5.2546,-5.3717,-5.3132,-5.2585,-5.3717,-5.3561,-5.3288,-5.3873,-5.3561,-5.321,-5.3522,-5.2156,-5.0906,-5.0594,-5.1999,-5.2741,-5.1607,-5.3366,-5.4851,-5.4855,-5.5636,-5.6144,-5.6147,-5.6421,-5.6556,-5.6515,-5.5905,-5.5716,-5.6149,-5.5581,-5.5451,-5.5973,-5.5161,-5.4735,-5.4735,-5.4735,-5.0403,-4.1628,0.0,0.0,0.0,0.0,0.0,0.0,0.0,0.0,0.0,0.0,0.0,0.0,0.0,0.0,0.0,0.0,0.0,0.0,0.0,0.0,0.0,0.0,0.0,-4.9101,-4.9805,-5.0078,-4.9178,-5.1245,-5.1435,-4.8068,-5.0795,-5.2743,-5.2821,-5.4422,-5.5398,-5.5398,-5.5398,-5.5747,-5.6567,-5.6606,-5.7035,-5.7816,-5.8714,-5.9141,-5.918,-5.8324,-5.7894,-5.7855,-5.7074,-5.6684,-5.6684,-5.6684,-5.6684,-5.6684,-5.6684,-5.6645,-5.6489,-5.4732,-5.4068,-5.4068,-5.4068,-5.4068,-5.3912,-5.3014,-5.2704,-5.2704,-5.2665,-5.2078,-5.157,-5.2431,-5.2665,-5.2665,-5.2743,-5.3327,-5.3912,-5.399,-5.399,-5.3951,-5.4029,-5.4029,-5.4068,-5.4068,-5.4068,-5.3795,-5.2977,-5.2782,-5.3053,-5.3873,-5.4029,-5.4068,-5.4068,-5.4068,0.0,-5.4081,-5.4826,-5.5337,-5.5304,-5.6046,-5.6522,-5.6469,-5.4864,-5.4507,-5.611,-5.4568,-5.431,-5.5935,-5.3614,-5.2306,-5.2306,-5.219,-5.0062,-4.5884,0.0,0.0,0.0,0.0,0.0,0.0,0.0,0.0,0.0,0.0,0.0,0.0,0.0,0.0,0.0,0.0,0.0,0.0,0.0,0.0,0.0,-4.8005,-5.0976,-5.0742,-5.3085,-5.4295,-5.2768,-5.3232,-5.3029,-5.1459,-5.2704,-5.4186,-5.5435,-5.6528,-5.7113,-5.7113,-5.7113,-5.6957,-5.6606,-5.7153,-5.7894,-5.8714,-5.9612,-6.0354,-6.0976,-6.0744,-6.0315,-5.969,-5.9456,-5.9026,-5.84,-5.84,-5.84,-5.84,-5.84,-5.805,-5.7348,-5.6294,-5.5903,-5.5903,-5.5903,-5.5474,-5.4732,-5.3212,-5.2704,-5.2587,-5.196,-5.1609,-5.157,-5.2431,-5.2273,-5.2038,-5.3288,-5.2897,-5.2429,-5.3678,-5.3522,-5.3366,-5.4654,-5.4927,-5.5123,-5.5747,-5.5396,-5.5044,-5.5435,-5.5005,-5.4459,-5.4068,-5.4537,-5.5162,-5.5786,-5.5903,-5.5907,-5.5878,-5.6074,-5.5998,-5.5376,-5.5503,-5.5664,-5.5624,-5.5056,-5.5142,-5.6214,-5.5676,-5.5509,-5.5973,-5.5316,-5.4967,-5.4967,-5.195,-4.9513,0.0,0.0,0.0,0.0,0.0,0.0,0.0,0.0,0.0,0.0,0.0,0.0,0.0,0.0,0.0,0.0,0.0,0.0,0.0,0.0,0.0,0.0,-5.1093,-5.3594,-5.3594,-5.4999,-5.5661,-5.4641,-5.4206,-5.3806,-5.329,-5.4029,-5.4966,-5.5981,-5.7153,-5.7816,-5.7816,-5.8168,-5.8285,-5.8207,-5.8636,-5.93,-6.0195,-6.0705,-6.1213,-6.1718,-6.133,-6.09,-6.0393,-6.0002,-5.9573,-5.9102,-5.9102,-5.9102,-5.9102,-5.9102,-5.8792,-5.8246,0.0,0.0,0.0,0.0,-5.5513,-5.4576,-5.3173,-5.2704,-5.2626,-5.2117,-5.1687,-5.157,-5.2431,-5.2351,-5.2156,-5.3171,-5.2975,-5.2702,-5.3756,-5.3912,-5.4031,-5.5047,-5.5591,-5.5981,-5.6489,-5.6216,-5.5903,-5.602,-5.5942,0.0,-5.4693,-5.5279,-5.602,-5.6528,-5.6606,-5.661,-5.6585,-5.6938,-5.6941,-5.6439,-5.6717,-5.6914,-5.6874,-5.6068,0.0,0.0,0.0,-5.5161,-5.4426,-5.4426,0.0,0.0,0.0,-5.1022,-5.1563,-4.9088,0.0,0.0,-4.506,-4.4755,0.0,0.0,0.0,0.0,0.0,0.0,0.0,0.0,0.0,0.0,0.0,0.0,0.0,0.0,0.0,0.0,-5.3906,-5.6601,-5.6601,-5.6015,-5.5504,-5.5306,-5.4634,-5.4156,-5.4147,-5.4929,-5.5515,-5.5708,-5.7194,-5.8092,-5.8089,-5.8831,0.0,0.0,0.0,-6.0822,-6.1679,-6.1796,-6.1913,-6.1991,-6.1213,-6.0783,-6.0666,-5.9885,-5.9493,-5.9375,-5.9375,-5.9375,-5.9375,-5.9375,-5.9336,-5.9143,-5.8285,-5.7465,-5.6645,-5.5786,-5.481,-5.3873,-5.3014,0.0,0.0,-5.2548,-5.2038,-5.157,-5.2431,-5.2704,-5.2704,-5.2821,-5.3405,-5.399,-5.399,-5.4654,-5.532,-5.532,-5.5981,-5.6606,-5.6606,-5.6606,-5.6372,-5.5591,-5.6059,-5.6333,-5.5591,-5.6098,-5.6606,-5.6606,-5.6606,-5.6653,-5.6747,-5.7413,-5.7886,-5.789,-5.8594,0.0,-5.8979,-5.7434,-5.7108,-5.8698,-5.6551,-5.4542,-5.3003,-5.2925,-5.2925,-5.2925,-5.2848,-5.3893,-5.6153,-5.6153,-5.625,-5.6161,-4.8387,-4.6809,0.0,0.0,0.0,0.0,0.0,0.0,0.0,0.0,0.0,0.0,0.0,0.0,0.0,0.0,0.0,-5.1953,-5.4687,-5.6601,-5.6601,-5.7069,-5.6871,-5.5462,-5.5137,-5.5049,-5.5044,-5.5835,-5.6928,-5.8246,-5.9308,-5.9896,-5.9885,-6.0041,-5.9885,-5.9378,-6.0041,-6.0822,-6.1679,-6.2384,-6.3086,-6.3789,-6.3635,0.0,-6.2501,-6.2306,-6.1876,-6.121,-6.121,-6.121,-6.121,-6.121,-6.0783,-6.0041,-5.9183,-5.8324,-5.7465,-5.6645,-5.5357,-5.3873,-5.3014,-5.2234,-5.1648,-5.1648,-5.1531,-5.157,-5.2431,-5.2704,0.0,-5.3561,-5.3873,-5.399,-5.399,-5.4654,-5.532,-5.532,-5.5981,-5.6606,-5.6606,-5.6606,-5.6567,-5.6372,-5.6489,-5.6567,-5.6372,-5.6489,-5.6606,-5.6606,-5.6606,-5.6848,-5.7568,-5.7804,-5.7885,-5.7889,-5.8007,-5.8084,-5.8125,-5.7662,-5.7785,-5.8827,-5.8249,-5.7714,-5.7375,-5.7375,-5.7375,-5.7375,-5.667,-5.6582,-5.7137,-5.719,-5.7268,-5.7259,-5.4852,-5.4185,0.0,0.0,0.0,0.0,0.0,0.0,0.0,0.0,0.0,0.0,0.0,-4.6286,-4.8395,0.0,-5.2656,-5.4375,-5.6094,-5.7265,-5.7265,-5.7967,-5.8041,-5.675,-5.6588,-5.6777,-5.7163,-5.6857,-5.7288,-5.8959,-5.9117,-5.9273,-5.9729,-6.0159,-6.0198,-5.9768,-6.0588,-6.1252,-6.1718,-6.2149,-6.2579,-6.3008,-6.3008,-6.2774,-6.2345,-6.2345,-6.211,-6.1718,-6.1718,-6.1718,-6.1718,-6.1718,-6.1444,-6.1017,-6.0586,-5.9104,-5.7153,-5.6762,-5.5513,-5.3951,-5.3483,-5.3053,-5.2702,-5.2702,-5.2702,-5.278,-5.321,-5.3366,-5.3444,-5.3873,-5.399,-5.399,-5.399,-5.4654,-5.532,-5.532,-5.5981,-5.6606,-5.6606,-5.6606,-5.6606,-5.6606,-5.6606,-5.6606,-5.6606,-5.6606,-5.6606,-5.6606,-5.661,-5.6893,-5.7802,-5.8275,-5.8707,-5.9101,-5.9492,-5.9765,-5.9804,-5.9622,-5.9493,-5.946,-5.9336,-5.9029,-5.8613,-5.8621,-5.8629,-5.8613,-5.828,-5.8085,-5.804,-5.8159,-5.8247,-5.8283,-5.7814,-5.7602,0.0,0.0,0.0,0.0,0.0,0.0,0.0,-4.1894,-4.2842,-4.6437,-4.8318,-4.9961,-5.2031,-5.3555,-5.5039,-5.6601,-5.7422,-5.7969,-5.8125,-5.8865,-5.9095,-5.847,-5.8233,-5.8465,-5.9281,-5.8271,-5.8232,-5.9747,-5.92,-5.9119,-5.9807,-6.0354,-6.0666,-6.0666,-6.133,-6.1718,-6.1718,-6.1718,-6.1718,-6.1718,-6.1718,-6.1718,-6.1718,-6.1718,-6.1718,-6.1718,-6.1718,-6.1718,-6.1718,-6.1718,-6.1601,-6.1444,-6.1444,-5.9573,-5.684,-5.7035,-5.5864,-5.4264,-5.4264,-5.4147,-5.399,-5.399,-5.399,-5.4029,-5.4186,-5.4264,-5.4303,-5.4459,-5.4498,-5.4498,-5.4498,-5.5044,-5.5552,-5.5552,-5.6098,-5.6606,-5.6606,-5.6606,-5.6606,-5.6606,-5.6606,-5.6606,-5.6608,-5.6608,-5.6608,-5.6608,-5.6616,-5.6898,-5.7805,-5.8668,-5.9491,-6.0312,-6.1172,-6.1679,-6.1678,-6.1498,-6.1056,-6.0306,-6.0179,-5.9821,-5.9168,-5.9187,-5.9209,-5.9149,-5.9155,-5.9095,-5.9021,-5.9113,-5.9228,-5.9275,-5.9431,-5.9336,-4.029,-4.0149,-4.1625,-4.365,-4.3695,-4.5222,0.0,-5.1718,-5.0234,-5.4414,-5.5469,-5.5664,-5.5976,-5.6172,-5.664,-5.7617,-5.7851,-5.8164,-5.8945,-5.9765,-6.0234,-6.0115,-5.9443,-5.932,-6.0186,-6.0777,-6.1517,-6.248,-6.2486,-6.2444,-6.254,-6.1915,-6.1562,-6.1562,-6.164,-6.1718,-6.1718,-6.1718,-6.1718,-6.1718,-6.1718,-6.1718,-6.1718,-6.1718,-6.1718,-6.1718,-6.1718,-6.1718,-6.1718,-6.1718,-6.1252,-6.0549,-6.0549,-5.9378,-5.7777,-5.8519,-5.727,-5.5162,-5.5162,-5.4654,-5.399,-5.399,-5.399,-5.4147,-5.4927,-5.5162,-5.5318,-5.6098,-5.6294,-5.6294,-5.6294,-5.6372,-5.645,-5.645,-5.6528,-5.6606,-5.6606,-5.6606,-5.6606,-5.6606,-5.6606,-5.6608,-5.6618,-5.6619,-5.6619,-5.6619,-5.658,-5.69,-5.7809,-5.867,-5.9491,-6.0312,-6.1172,-6.1677,-6.1616,-6.1471,-6.1328,-6.1161,-6.1031,-6.0967,-6.1002,-6.1024,-6.1046,-6.1105,-6.0395,-6.0091,-6.0102,-6.0151,-6.0176,-6.0273,-6.1054,-6.0585,-4.7834,-4.7092,-4.6614,-4.8276,-4.8826,-4.9764,-5.2851,-5.2578,-5.2617,-5.5937,-5.6601,-5.6601,-5.6601,-5.6992,-5.7461,-5.7851,-5.8711,-5.9492,-5.9844,-6.0625,-6.1327,-6.1835,-6.1598,-6.1517,-6.187,-6.1795,-6.2264,-6.3665,-6.3273,-6.3228,-6.3722,-6.2935,-6.2462,-6.2462,-6.1952,-6.1952,-6.2462,-6.1952,-6.1952,-6.2462,-6.1952,-6.1718,-6.1718,-6.1718,-6.1718,-6.1718,-6.1718,-6.1718,-6.164,-6.1134,-6.0744,-6.0354,-5.9846,-5.8909,-5.7855,-5.8207,-5.7387,-5.6059,-5.6059,-5.5825,-5.5513,-5.5513,-5.5513,-5.5591,-5.5942,-5.6059,-5.6138,-5.6489,-5.6606,-5.6606,-5.6606,-5.6606,-5.6606,-5.6606,-5.6606,-5.6606,-5.6606,-5.6606,-5.6606,-5.6606,-5.661,-5.6616,-5.658,-5.6585,-5.6589,-5.6594,-5.6594,-5.6908,-5.7771,-5.8202,-5.8945,-6.0273,-6.1172,-6.1679,-6.1674,-6.1562,-6.1513,-6.1482,-6.1334,-6.1285,-6.134,-6.1447,-6.1431,-6.1412,-6.1194,-6.1065,-6.1059,-6.108,-6.113,-6.1172,-6.1523,-6.1328,-5.0828,-5.0764,-5.0264,-5.1171,-5.2617,-5.3594,-5.2969,-5.332,-5.4297,-5.6211,-5.6601,-5.668,-5.6914,-5.7461,-5.8047,-5.8515,-5.9609,-6.0469,-6.0703,-6.1523,-6.2304,-6.293,-6.3437,-6.371,-6.371,-6.3164,-6.3398,-6.4881,-6.4214,-6.3895,-6.4275,-6.3486,-6.2896,-6.2657,-6.203,-6.211,-6.3008,-6.2384,-6.2384,-6.3008,-6.2345,-6.1913,-6.1718,-6.1718,-6.1718,-6.1718,-6.1718,-6.1718,-6.164,-6.1017,-6.0627,-6.0315,-5.9456,-5.8558,-5.7777,-5.7543,-5.7113,-5.6606,-5.6606,-5.6606,-5.6606,-5.6606,-5.6606,-5.6606,-5.6606,-5.6606,-5.6606,-5.6606,-5.6606,-5.6606,-5.6606,-5.6606,-5.6606,-5.6606,-5.6606,-5.6606,-5.6606,-5.6606,-5.6606,-5.6606,-5.6612,-5.6618,-5.6584,-5.6589,-5.6595,-5.66,-5.66,-5.6835,-5.746,-5.7968,-5.8906,-6.0586,-6.1328,-6.1719,-6.1719,-6.1627,-6.1605,-6.1605,-6.1463,-6.1426,-6.1452,-6.1543,-6.1554,-6.1485,-6.1631,-6.1678,-6.1621,-6.1678,-6.1719,-6.1719,-6.1719,-6.1719,-4.5467,-4.7695,-5.039,-5.1211,-5.3945,-5.6484,-5.6445,-5.6445,-5.6484,-5.6562,-5.6601,-5.6875,-5.7695,-5.789,-5.8437,-6.0078,-6.0351,-6.0703,-6.1523,-6.2422,-6.2969,-6.3008,-6.4492,-6.5508,-6.5508,-6.5508,-6.5859,-6.6755,-6.6013,-6.5151,-6.4353,-6.3455,-6.2592,-6.1759,-6.1718,-6.211,-6.3008,-6.2969,-6.2969,-6.3008,-6.2969,-6.254,-6.1718,-6.1718,-6.1718,-6.1718,-6.1718,-6.1718,-6.1718,-6.1679,-6.1174,-6.0315,-5.9456,-5.8558,-5.7699,-5.6918,-5.6606,-5.6606,-5.6606,-5.6606,-5.6606,-5.6606,-5.6606,-5.6606,-5.6606,-5.6606,-5.6606,-5.6606,-5.6606,-5.6606,-5.6606,-5.6606,-5.6606,-5.6606,-5.6606,-5.6606,-5.6606,-5.6606,-5.6606,-5.6606,-5.6606,-5.6612,-5.6591,-5.6593,-5.6596,-5.6601,-5.6601,-5.6601,-5.664,-5.8125,-5.9805,-6.1484,-6.168,-6.1719,-6.1719,-6.1627,-6.1605,-6.1605,-6.1463,-6.1456,-6.1601,-6.1603,-6.1623,-6.1679,-6.1719,-6.1719,-6.1719,-6.1719,-6.1719,-6.1719,-6.1719,-6.1719,-4.8711,-5.0508,-5.2344,-5.4336,-5.5742,-5.6601,-5.6601,-5.6601,-5.6601,-5.6601,-5.6133,-5.6015,-5.6875,-5.75,-5.8281,-5.9414,-6.0547,-6.1367,-6.164,-6.2461,-6.3203,-6.3789,-6.4883,-6.582,-6.6406,-6.6445,-6.6562,-6.6874,-6.6639,-6.6325,-6.6048,-6.5219,-6.4585,-6.4308,-6.3716,-6.3828,-6.4726,-6.414,-6.414,-6.4726,-6.414,-6.3399,-6.2579,-6.2579,-6.2267,-6.1718,-6.1718,-6.1718,-6.164,-6.1095,-6.0666,-6.0315,-5.9456,-5.8909,-5.8636,-5.8363,-5.8246,-5.8089,-5.6996,-5.6606,-5.6606,-5.6606,-5.6606,-5.6606,-5.6606,-5.6606,-5.6606,-5.6606,-5.6606,-5.6606,-5.6606,-5.6606,-5.6606,-5.6606,-5.6606,-5.6606,-5.6606,-5.6606,-5.6606,-5.6606,-5.6616,-5.6588,-5.6592,-5.7067,-5.7656,-5.8242,-5.7812,-5.7461,-5.7461,-5.8945,-6.0195,-6.0781,-6.1367,-6.1719,-6.1719,-6.1678,-6.1675,-6.1675,-6.163,-6.1629,-6.1675,-6.1675,-6.1678,-6.1719,-6.1719,-6.1719,-6.1719,-6.1719,-6.1719,-6.1719,-6.1719,-6.1719,-5.0937,-5.2266,-5.332,-5.5937,-5.6601,-5.6601,-5.6601,-5.6601,-5.6601,-5.6601,-5.5898,-5.5586,-5.6445,-5.7305,-5.8281,-5.9453,-6.1055,-6.2265,-6.2578,-6.3398,-6.414,-6.4687,-6.5547,-6.6289,-6.6836,-6.6914,-6.6914,-6.6914,-6.6914,-6.6756,-6.6443,-6.5615,-6.5294,-6.5602,-6.4733,-6.4999,-6.6483,-6.5624,-6.5312,-6.5585,-6.4726,-6.4026,-6.3477,-6.3477,-6.3164,-6.2618,-6.2618,-6.2462,-6.211,-6.1564,-6.1134,-6.0783,-5.9885,-5.9573,-5.9534,-5.9219,-5.9102,-5.8907,-5.7504,-5.7035,-5.6996,-5.6684,-5.6606,-5.6606,-5.6606,-5.6606,-5.6606,-5.6606,-5.6606,-5.6606,-5.6606,-5.6606,-5.6684,-5.6957,-5.7035,-5.7035,-5.7035,-5.7038,-5.7042,-5.7042,-5.7054,-5.718,-5.7494,-5.8241,-5.8984,-5.9531,-5.9687,-5.9492,-5.8867,-5.9726,-6.0508,-6.082,-6.1367,-6.1719,-6.1719,-6.1719,-6.1719,-6.1719,-6.1719,-6.1719,-6.1719,-6.1719,-6.1719,-6.1719,-6.1719,-6.1719,-6.1719,-6.1719,-6.1719,-6.1719,-6.1719,-6.1719,-5.1875,-5.2812,-5.3516,-5.5976,-5.6601,-5.6601,-5.6601,-5.6601,-5.6562,-5.6484,-5.5742,-5.5351,-5.6133,-5.7031,-5.8242,-5.9883,-6.1719,-6.3203,-6.4062,-6.4961,-6.5547,-6.5547,-6.6328,-6.6914,-6.6914,-6.6914,-6.6914,-6.6914,-6.6914,-6.6523,-6.5701,-6.4838,-6.4753,-6.5563,-6.4811,-6.5507,-6.7888,-6.7185,-6.6405,-6.5663,-6.4882,-6.4455,-6.4377,-6.4377,-6.4338,-6.4299,-6.4299,-6.3828,-6.3086,-6.3086,-6.254,-6.1679,-6.0861,-6.051,-6.0354,-5.9534,-5.9219,-5.9104,-5.8246,-5.7855,-5.766,-5.6918,-5.6645,-5.6645,-5.6606,-5.6645,-5.6723,-5.6684,-5.6645,-5.6645,-5.6645,-5.6645,-5.6801,-5.7621,-5.7816,-5.7818,-5.7855,-5.7865,-5.7872,-5.7871,-5.7956,-5.8313,-5.9177,-5.996,-6.0469,-6.0469,-6.1914,-6.2383,-6.0703,-6.0508,-6.082,-6.1601,-6.1758,-6.1758,-6.1719,-6.1758,-6.1758,-6.1719,-6.1719,-6.1719,-6.1719,-6.1719,-6.1719,-6.1719,-6.1719,-6.1719,-6.1719,-6.1719,-6.1719,-6.1719,-6.1719,-6.1719,-5.3086,-5.4609,-5.5781,-5.6445,-5.6601,-5.6601,-5.6601,-5.6601,-5.6211,-5.4922,-5.3437,-5.2266,-5.1914,-5.3555,-5.5351,-5.6445,-5.9648,-6.2109,-6.2344,-6.3672,-6.4648,-6.4648,-6.5976,-6.6914,-6.6914,-6.6914,-6.6914,-6.6914,-6.6914,-6.6797,-6.6599,-6.5735,-6.5378,-6.5602,-6.5397,-6.5273,-6.5273,-6.6288,-6.6717,-6.6483,-6.6912,-6.6483,-6.5273,-6.5273,-6.4921,-6.4299,-6.4299,-6.4182,-6.3984,-6.3984,-6.3438,-6.2657,-6.2423,-6.1954,-6.133,-6.1132,-6.1054,-6.0898,-6.0041,-5.887,-5.7777,-5.7543,-5.7504,-5.7387,-5.6762,-5.7465,-5.8324,-5.7699,-5.7504,-5.7504,-5.7504,-5.7035,-5.6801,-5.7621,-5.7783,-5.7983,-5.8638,-5.8767,-5.8776,-5.877,-5.9327,-6.0037,-6.0898,-6.1211,-6.1367,-6.1367,-6.2305,-6.2617,-6.1523,-6.1953,-6.2187,-6.1758,-6.2265,-6.2422,-6.1758,-6.2305,-6.2383,-6.1758,-6.1719,-6.1719,-6.1719,-6.1719,-6.1719,-6.1719,-6.1719,-6.1719,-6.1719,-6.1719,-6.1719,-6.1719,-6.1719,-6.1719,-5.4687,-5.5859,-5.6601,-5.6601,-5.6601,-5.6289,-5.5156,-5.5195,-5.4648,-5.1797,-5.0703,-4.9805,-4.8203,-5.125,-5.4141,-5.4648,-5.8984,-6.2539,-6.3281,-6.3906,-6.457,-6.5351,-6.5976,-6.6484,-6.6875,-6.6914,-6.6914,-6.6914,-6.6914,-6.6914,-6.6913,-6.6089,-6.5926,-6.6664,-6.6336,-6.6092,-6.5975,-6.6912,-6.7185,-6.6795,-6.7303,-6.7029,-6.6131,-6.6131,-6.5858,-6.5392,-6.5392,-6.5194,-6.4882,-6.4882,-6.4375,-6.3594,-6.3984,-6.3594,-6.2891,-6.3282,-6.3164,-6.2774,-6.2267,-6.1213,-5.9885,-5.8753,-5.8363,-5.8285,-5.7816,-5.836,-5.8987,-5.8519,-5.8363,-5.8285,-5.7894,-5.7469,-5.7356,-5.8176,-5.8378,-5.8617,-5.9472,-5.9988,-6.0346,-6.0736,-6.1208,-6.1835,-6.2695,-6.3164,-6.3398,-6.3398,-6.414,-6.4414,-6.3515,-6.3515,-6.3398,-6.289,-6.3281,-6.3359,-6.289,-6.3281,-6.3203,-6.2344,-6.2265,-6.2109,-6.1719,-6.1719,-6.1719,-6.1719,-6.1719,-6.1719,-6.1719,-6.1719,-6.1719,-6.1719,-6.1719,-6.1719,-5.6172,-5.6601,-5.6601,-5.6601,-5.6601,-5.5937,-5.3281,-5.3203,-5.2422,-4.8125,-4.7656,-4.7344,-4.5078,-4.9297,-5.3281,-5.375,-5.8789,-6.3203,-6.4844,-6.4648,-6.4844,-6.6367,-6.5976,-6.5937,-6.6836,-6.6914,-6.6953,-6.707,-6.6875,-6.6797,-6.6875,-6.5972,-6.6084,-6.7565,-6.6963,-6.7107,-6.8083,-6.8083,-6.7732,-6.6951,-6.6951,-6.6912,-6.6795,-6.6795,-6.6795,-6.6795,-6.6795,-6.6405,-6.5741,-6.5741,-6.5234,-6.4572,-6.5429,-6.5155,-6.4416,-6.5273,-6.5038,-6.4299,-6.4299,-6.3828,-6.2774,-6.0276,-5.9454,-5.9414,-5.93,-5.9336,-5.9454,-5.9454,-5.9375,-5.9104,-5.8326,-5.8061,-5.8185,-5.9084,-5.9285,-5.9523,-6.0382,-6.1245,-6.2147,-6.3164,-6.3359,-6.3594,-6.4336,-6.5195,-6.5742,-6.5625,-6.6328,-6.664,-6.5859,-6.5,-6.4414,-6.4297,-6.4414,-6.4414,-6.4297,-6.4414,-6.4101,-6.3242,-6.3164,-6.2773,-6.1914,-6.1875,-6.1836,-6.1719,-6.1719,-6.1719,-6.1719,-6.1836,-6.1797,-6.1719,-6.1796,-6.1796,-5.6523,-5.6601,-5.6601,-5.6601,-5.6601,-5.5937,-5.3281,-5.2266,-5.0625,-4.6328,-4.4414,-4.3398,-4.293,-4.6055,-4.9648,-5.2461,-5.7383,-6.1211,-6.2226,-6.3476,-6.4414,-6.4726,-6.5234,-6.5937,-6.6836,-6.6914,-6.7187,-6.793,-6.664,-6.6133,-6.6873,-6.5385,-6.4672,-6.497,-6.5509,-6.6561,-6.8083,-6.8083,-6.8005,-6.7888,-6.7888,-6.7498,-6.6795,-6.6795,-6.6795,-6.6795,-6.6795,-6.6717,-6.66,-6.66,-6.6092,-6.5468,-6.6288,-6.5663,-6.4416,-6.5273,-6.5038,-6.4299,-6.4299,-6.4182,-6.375,-6.1876,-6.1249,-6.1093,-6.0393,-6.0666,-6.1249,-6.1249,-6.0744,-6.0122,-5.9974,-5.9394,-5.9084,-5.9988,-6.015,-6.0426,-6.1281,-6.2144,-6.3241,-6.4844,-6.5156,-6.5195,-6.5351,-6.6094,-6.6445,-6.5703,-6.6328,-6.6836,-6.668,-6.5898,-6.5117,-6.4375,-6.4922,-6.5078,-6.4375,-6.4961,-6.5,-6.414,-6.4062,-6.3672,-6.2812,-6.2773,-6.2422,-6.1719,-6.1719,-6.1719,-6.1719,-6.2422,-6.2383,-6.1719,-6.2371,-6.2319,-5.6601,-5.6601,-5.6601,-5.6601,-5.6601,-5.5469,-5.1055,-5.0078,-4.8359,-4.2266,-4.1055,-4.082,-3.9922,-4.3672,-4.7617,-4.9726,-5.5508,-6.0078,-6.0898,-6.2539,-6.3789,-6.4258,-6.4258,-6.4765,-6.6094,-6.664,-6.707,-6.75,-6.7187,-6.7148,-6.7538,-6.6361,-6.5647,-6.5587,-6.6014,-6.66,-6.742,-6.742,-6.742,-6.742,-6.742,-6.7185,-6.6795,-6.6795,-6.6795,-6.6795,-6.6795,-6.6795,-6.6795,-6.6795,-6.6561,-6.6327,-6.7146,-6.6717,-6.5702,-6.6561,-6.6366,-6.5587,-6.5587,-6.5587,-6.539,-6.414,-6.3438,-6.2969,-6.254,-6.2735,-6.3047,-6.3047,-6.274,-6.2317,-6.1854,-6.1432,-6.1243,-6.1635,-6.2107,-6.2538,-6.2967,-6.3397,-6.4062,-6.5351,-6.5586,-6.5742,-6.6211,-6.6601,-6.6758,-6.6328,-6.664,-6.6914,-6.6914,-6.6523,-6.6133,-6.5703,-6.6015,-6.6094,-6.5703,-6.6055,-6.5898,-6.5039,-6.4961,-6.4609,-6.3711,-6.3672,-6.3476,-6.3047,-6.2617,-6.2383,-6.2383,-6.2344,-6.2303,-6.2332,-6.2705,-6.2641,-5.6601,-5.6601,-5.6601,-5.6601,-5.6601,-5.5039,-4.8984,-4.8008,-4.625,-3.8828,-3.8242,-3.8828,-3.8008,-4.1875,-4.5859,-4.7851,-5.3594,-5.8359,-5.9922,-6.1484,-6.2851,-6.3906,-6.3437,-6.3672,-6.543,-6.6055,-6.6562,-6.7148,-6.7812,-6.8047,-6.7656,-6.7182,-6.6701,-6.629,-6.66,-6.6795,-6.6795,-6.6639,-6.6717,-6.7068,-6.6717,-6.6639,-6.6795,-6.6795,-6.6795,-6.6795,-6.6795,-6.6795,-6.6795,-6.6795,-6.6795,-6.6873,-6.7771,-6.7576,-6.6912,-6.7771,-6.7537,-6.6795,-6.6795,-6.6795,-6.6717,-6.6053,-6.5273,-6.457,-6.457,-6.4455,-6.4338,-6.4533,-6.4423,-6.4158,-6.3458,-6.3274,-6.3279,-6.328,-6.3789,-6.4336,-6.4531,-6.457,-6.4844,-6.5703,-6.5898,-6.6094,-6.6797,-6.6914,-6.6914,-6.6914,-6.6914,-6.6914,-6.6914,-6.6914,-6.6914,-6.6914,-6.6914,-6.6914,-6.6914,-6.6914,-6.6601,-6.5937,-6.5898,-6.5508,-6.4609,-6.457,-6.4492,-6.4297,-6.3633,-6.3281,-6.3281,-6.2577,-6.2568,-6.316,-6.2942,-6.2851,-5.6601,-5.6601,-5.6601,-5.6601,-5.6601,-5.5039,-4.8984,-4.7031,-4.4766,-3.8594,-3.6797,-3.7031,-3.9258,-4.0742,-4.3476,-4.9062,-5.1836,-5.4726,-5.875,-6.0078,-6.125,-6.293,-6.3047,-6.3672,-6.543,-6.4961,-6.5508,-6.789,-6.8164,-6.7499,-6.5931,-6.6513,-6.6154,-6.4572,-6.6017,-6.6795,-6.6795,-6.6092,-6.6483,-6.7966,-6.6444,-6.6092,-6.6795,-6.6795,-6.6795,-6.6795,-6.6795,-6.6795,-6.6795,-6.6795,-6.6795,-6.6873,-6.7771,-6.7576,-6.6912,-6.7771,-6.7537,-6.6795,-6.6795,-6.6795,-6.6795,-6.6717,-6.6131,-6.5468,-6.5468,-6.4921,-6.4455,-6.5273,-6.4891,-6.4276,-6.4206,-6.4174,-6.4178,-6.4179,-6.4258,-6.4531,-6.5312,-6.5469,-6.5742,-6.6601,-6.6797,-6.6797,-6.6875,-6.6914,-6.6914,-6.6914,-6.6914,-6.6914,-6.6914,-6.6914,-6.6914,-6.6914,-6.6914,-6.6914,-6.6914,-6.6914,-6.6875,-6.6797,-6.6797,-6.6406,-6.5508,-6.5469,-6.5117,-6.4336,-6.4219,-6.418,-6.418,-6.405,-6.3991,-6.3979,-6.3052,-6.3015,-5.6445,-5.6601,-5.6601,-5.6601,-5.582,-5.3594,-4.8086,-4.5742,-4.3164,-3.7656,-3.625,-3.6641,-3.8711,-3.9414,-4.1289,-4.625,-4.8945,-5.1367,-5.4101,-5.6601,-5.8555,-5.9805,-6.039,-6.1797,-6.4531,-6.4961,-6.5937,-6.8047,-6.7695,-6.7109,-6.6401,-6.6711,-6.6545,-6.5822,-6.6444,-6.6795,-6.6795,-6.6483,-6.6678,-6.7303,-6.6639,-6.6483,-6.6795,-6.6795,-6.6795,-6.6795,-6.6795,-6.6522,-6.6131,-6.66,-6.6522,-6.617,-6.699,-6.7107,-6.6834,-6.7185,-6.7107,-6.6795,-6.6795,-6.6795,-6.6795,-6.6795,-6.6561,-6.6327,-6.6327,-6.6092,-6.5861,-6.6219,-6.611,-6.5847,-6.5853,-6.5857,-6.5859,-6.5859,-6.5859,-6.582,-6.5625,-6.6015,-6.6328,-6.6133,-6.6523,-6.6914,-6.6914,-6.6914,-6.6914,-6.6914,-6.6914,-6.6914,-6.6914,-6.6914,-6.6914,-6.6914,-6.6914,-6.6914,-6.6914,-6.6914,-6.6914,-6.6914,-6.6914,-6.6758,-6.6406,-6.6367,-6.6211,-6.5859,-6.5351,-6.5078,-6.5078,-6.3969,-6.389,-6.4809,-6.3806,-6.3736,-5.5898,-5.6406,-5.6601,-5.6601,-5.5273,-5.2656,-4.7461,-4.4961,-4.2226,-3.707,-3.6016,-3.6445,-3.793,-3.8437,-3.9922,-4.3945,-4.6367,-4.8672,-5.1406,-5.3906,-5.5976,-5.7344,-5.8047,-5.9687,-6.2851,-6.4648,-6.6094,-6.7344,-6.7109,-6.6914,-6.6911,-6.6907,-6.6742,-6.6451,-6.6446,-6.6444,-6.6444,-6.617,-6.6327,-6.6795,-6.6561,-6.6561,-6.6795,-6.6795,-6.6795,-6.6795,-6.6795,-6.6483,-6.6014,-6.6561,-6.6483,-6.6014,-6.6561,-6.6795,-6.6795,-6.6795,-6.6795,-6.6795,-6.6795,-6.6795,-6.6795,-6.6795,-6.6795,-6.6795,-6.6795,-6.6798,-6.6802,-6.6809,-6.6859,-6.6907,-6.6912,-6.6914,-6.6914,-6.6914,-6.6914,-6.6719,-6.6133,-6.6484,-6.6719,-6.6094,-6.6484,-6.6914,-6.6914,-6.6914,-6.6914,-6.6914,-6.6914,-6.6914,-6.6914,-6.6914,-6.6914,-6.6914,-6.6914,-6.6914,-6.6914,-6.6914,-6.6914,-6.6914,-6.6914,-6.6914,-6.6914,-6.6914,-6.6914,-6.6914,-6.6289,-6.5976,-6.5933,-6.4106,-6.4037,-6.56,-6.41,-6.3684,-5.4844,-5.5937,-5.6601,-5.6601,-5.5273,-5.2656,-4.7461,-4.4961,-4.2226,-3.707,-3.6016,-3.6289,-3.7148,-3.8008,-3.9726,-4.3164,-4.4453,-4.6836,-5.1953,-5.2734,-5.3711,-5.6289,-5.6601,-5.7617,-6.0195,-6.3555,-6.5625,-6.5625,-6.6406,-6.6914,-6.6911,-6.6907,-6.6509,-6.5641,-6.5592,-6.5624,-6.5624,-6.4765,-6.5158,-6.6795,-6.5975,-6.6014,-6.6795,-6.6795,-6.6795,-6.6795,-6.6795,-6.6795,-6.6795,-6.6795,-6.6795,-6.6795,-6.6795,-6.6795,-6.6795,-6.6795,-6.6795,-6.6795,-6.6795,-6.6795,-6.6795,-6.6795,-6.6795,-6.6795,-6.6795,-6.6805,-6.6811,-6.6811,-6.6863,-6.6912,-6.6914,-6.6914,-6.6914,-6.6914,-6.6914,-6.6914,-6.6875,-6.6875,-6.6914,-6.6875,-6.6875,-6.6914,-6.6914,-6.6914,-6.6914,-6.6914,-6.6914,-6.6914,-6.6914,-6.6914,-6.6914,-6.6914,-6.6914,-6.6914,-6.6914,-6.6914,-6.6914,-6.6914,-6.6914,-6.6914,-6.6914,-6.6914,-6.6914,-6.6914,-6.6875,-6.6832,-6.668,-6.486,-6.4833,-6.6314,-6.3649,-6.2433,-5.1484,-5.2422,-5.2773,-5.1601,-5.0039,-4.7851,-4.4414,-4.2305,-4.0117,-3.6719,-3.6016,-3.6289,-3.7148,-3.7031,-3.8516,-4.375,-4.3828,-4.5039,-5.0273,-5.1992,-5.3437,-5.5469,-5.8828,-6.1289,-6.2109,-6.4258,-6.5586,-6.5586,-6.6406,-6.6914,-6.6914,-6.6911,-6.6749,-6.6422,-6.6412,-6.6405,-6.6405,-6.6131,-6.6288,-6.6795,-6.6522,-6.6561,-6.6795,-6.6795,-6.6795,-6.6795,-6.6795,-6.6483,-6.6014,-6.6561,-6.6483,-6.6014,-6.66,-6.6795,-6.6795,-6.6795,-6.6795,-6.6795,-6.6795,-6.6795,-6.6795,-6.6795,-6.6802,-6.6807,-6.6807,-6.6809,-6.6815,-6.6865,-6.6872,-6.6914,-6.6914,-6.6914,-6.6914,-6.6914,-6.6914,-6.6914,-6.6914,-6.6914,-6.6914,-6.6914,-6.6914,-6.6914,-6.6914,-6.6914,-6.6914,-6.6914,-6.6914,-6.6914,-6.6914,-6.6914,-6.6914,-6.6914,-6.6914,-6.6914,-6.6914,-6.6914,-6.6914,-6.6914,-6.6914,-6.6914,-6.6914,-6.6914,-6.6914,-6.6914,-6.6914,-6.6558,-6.5824,-6.5207,-6.4785,-6.4549,-6.3671,-6.2975,-4.8047,-4.957,-5.0195,-4.9141,-4.7344,-4.5195,-4.293,-4.0586,-3.8359,-3.6406,-3.5742,-3.5781,-3.6641,-3.6641,-3.7812,-4.1914,-4.2461,-4.4101,-4.9023,-5.1133,-5.3086,-5.5508,-5.9219,-6.168,-6.1992,-6.3906,-6.5234,-6.5586,-6.6406,-6.6914,-6.6914,-6.6913,-6.687,-6.6823,-6.6811,-6.68,-6.6795,-6.6795,-6.6795,-6.6795,-6.6795,-6.6795,-6.6795,-6.6795,-6.6795,-6.6795,-6.6795,-6.6522,0.0,-6.66,-6.6483,-6.6092,-6.66,-6.6795,-6.6795,-6.6795,-6.6795,-6.6795,-6.6795,-6.6795,-6.6795,-6.6795,-6.6805,-6.6813,-6.682,-6.6823,-6.6863,-6.6872,-6.6914,-6.6914,-6.6914,-6.6914,-6.6914,-6.6914,-6.6914,-6.6914,-6.6914,-6.6914,-6.6914,-6.6914,-6.6914,-6.6914,-6.6914,-6.6914,-6.6914,-6.6914,-6.6914,-6.6914,-6.6914,-6.6914,-6.6914,-6.6914,-6.6914,-6.6914,-6.6914,-6.6914,-6.6914,-6.6914,-6.6914,-6.6914,-6.6914,-6.6914,-6.6914,-6.6914,-6.6833,-6.6504,-6.5865,-6.5417,-6.4528,-6.3207,-6.3565,-6.3245,0.0,-4.6875,-4.832,-4.8203,-4.6328,-4.4101,-4.2344,-3.9492,0.0,-3.6094,-3.5273,-3.5,-3.6016,-3.6758,-3.7617,-3.8867,-4.0976,-4.4062,-4.8555,-5.0781,-5.3203,-5.664,-5.8437,-5.9687,-6.0508,-6.2773,-6.457,-6.543,-6.6328,-6.6836,-6.6914,-6.6913,-6.6911,-6.6911,-6.6823,-6.6809,-6.6798,-6.6798,-6.6795,-6.6795,-6.6795,-6.6795,-6.6795,-6.6795,-6.6795,-6.6795,-6.6795,-6.6795,-6.6795,-6.6795,-6.6795,-6.6795,-6.6795,-6.6795,-6.6795,-6.6795,-6.6795,-6.6795,-6.6795,-6.6798,-6.6798,-6.68,-6.6807,-6.6817,-6.687,-6.6911,-6.6912,-6.6914,-6.6914,-6.6914,-6.6914,-6.6914,-6.6914,-6.6914,-6.6914,-6.6914,-6.6914,-6.6914,-6.6914,-6.6914,-6.6914,-6.6914,-6.6914,-6.6914,-6.6914,-6.6914,-6.6914,-6.6914,-6.6914,-6.6914,-6.6914,-6.6914,-6.6914,-6.6914,-6.6914,-6.6914,-6.6914,-6.6914,-6.6914,-6.6914,-6.6914,-6.6914,-6.6914,-6.6914,-6.6621,-6.6482,-6.6385,-6.5256,-6.3903,-6.2433,-6.3168,-6.3091,-3.7109,0.0,-4.2695,-4.1367,-4.0547,-3.9648,0.0,-3.6875,-3.6055,-3.5195,-3.4844,-3.5351,-3.7578,-3.707,-3.7891,-4.2695,-4.3437,-4.5351,-5.1016,-5.5039,-5.8398,-6.1172,-6.1289,-6.1445,-6.2305,-6.293,-6.3672,-6.4531,-6.539,-6.6211,-6.6875,-6.6914,-6.6913,-6.6911,-6.687,-6.6863,-6.6809,-6.68,-6.6795,-6.6795,-6.6795,-6.6795,-6.6795,-6.6795,-6.6795,-6.6795,-6.6795,-6.6795,-6.6795,-6.6795,-6.6795,-6.6795,-6.6795,-6.6795,-6.6795,-6.6795,-6.6795,-6.6795,-6.6795,-6.6802,-6.6811,-6.6865,-6.6868,-6.687,-6.6913,-6.6913,-6.6912,-6.6914,-6.6914,-6.6914,-6.6914,-6.6914,-6.6914,-6.6914,-6.6914,-6.6914,-6.6914,-6.6914,-6.6914,-6.6914,-6.6914,-6.6914,-6.6914,-6.6914,-6.6914,-6.6914,-6.6914,-6.6914,-6.6914,-6.6914,-6.6914,-6.6914,-6.6914,-6.6914,-6.6914,-6.6914,-6.6914,-6.6914,-6.6914,-6.6914,-6.6914,-6.6914,-6.6914,-6.6914,-6.5421,-6.4564,-6.4435,-6.2831,-6.2162,-6.2394,-6.193,-6.1582,-3.3984,-3.7266,-4.0391,-3.9414,-3.8906,-3.8359,-3.7422,-3.5664,-3.4219,-3.4101,-3.4101,-3.4766,-3.6992,-3.793,-3.9453,-4.2734,-4.5195,-4.8789,-5.4844,-5.8711,-6.1445,-6.2851,-6.2578,-6.2305,-6.2383,-6.2773,-6.3359,-6.4219,-6.5117,-6.5976,-6.6836,-6.6914,-6.6914,-6.6913,-6.6912,-6.6869,-6.6857,-6.6809,-6.6805,-6.6805,-6.6798,-6.6795,-6.6795,-6.6795,-6.6795,-6.6795,-6.6795,-6.6795,-6.6795,-6.6795,-6.6795,-6.6795,-6.6795,-6.6795,-6.6795,-6.6795,-6.6795,-6.6795,-6.6795,-6.6802,-6.6815,-6.6869,-6.6911,-6.6912,-6.6914,-6.6914,-6.6913,-6.6914,-6.6914,-6.6914,-6.6914,-6.6914,-6.6914,-6.6914,-6.6914,-6.6914,-6.6914,-6.6914,-6.6914,-6.6914,-6.6914,-6.6914,-6.6914,-6.6914,-6.6914,-6.6914,-6.6914,-6.6914,-6.6914,-6.6914,-6.6914,-6.6914,-6.6914,-6.6914,-6.6914,-6.6914,-6.6914,-6.6914,-6.6914,-6.6914,-6.6914,-6.6914,-6.6676,-6.618,-6.5056,-6.4078,-6.3175,-6.218,-6.1737,-6.1776,-6.1311,-6.1118,-3.3476,-3.6875,-3.9922,-3.9258,-3.8867,-3.8516,-3.8086,-3.5195,-3.2773,-3.3476,-3.3711,-3.4531,-3.6914,-3.9453,-4.1523,-4.2578,-4.7383,-5.2891,-5.8437,-6.1289,-6.2851,-6.2969,-6.289,-6.2578,-6.1953,-6.2578,-6.3359,-6.4219,-6.5117,-6.5976,-6.6836,-6.6914,-6.6914,-6.6914,-6.6913,-6.6911,-6.6906,-6.6818,-6.6811,-6.6811,-6.6802,-6.6795,-6.6795,-6.6795,-6.6795,-6.6795,-6.6795,-6.6795,-6.6795,-6.6795,-6.6795,-6.6795,-6.6795,-6.6795,-6.6795,-6.6795,-6.6795,-6.6798,-6.68,-6.6809,-6.682,-6.6871,-6.6912,-6.6912,-6.6914,-6.6914,-6.6914,-6.6914,-6.6914,-6.6914,-6.6914,-6.6914,-6.6914,-6.6914,-6.6914,-6.6914,-6.6914,-6.6914,-6.6914,-6.6914,-6.6914,-6.6914,-6.6914,-6.6914,-6.6953,-6.707,-6.7109,-6.7109,-6.7109,-6.7109,-6.7031,-6.6914,-6.6914,-6.6914,-6.6914,-6.6914,-6.6914,-6.6914,-6.6914,-6.6875,-6.6874,-6.6874,-6.6305,-6.5099,-6.4947,-6.4023,-6.2201,-6.2201,-6.1814,-6.1118,-6.1118,-6.1118,-3.4766,-3.8242,-4.0117,-3.6406,-3.707,-3.8008,-3.5781,-3.4805,-3.4336,-3.4453,-3.5078,-3.7226,-4.2617,-4.2305,-4.3086,-4.8906,-5.2461,-5.5625,-5.875,-6.0742,-6.2187,-6.289,-6.2344,-6.2148,-6.2734,-6.293,-6.3359,-6.4219,-6.5117,-6.5976,-6.6836,-6.6914,-6.6914,-6.6914,-6.6914,-6.6914,-6.6914,-6.6824,-6.6811,-6.6811,-6.6802,-6.6795,-6.6795,-6.6795,-6.6795,-6.6795,-6.6795,-6.6795,-6.6795,-6.6795,-6.6795,-6.6795,-6.6795,-6.6795,-6.6795,-6.6795,-6.6795,-6.68,-6.6856,-6.6866,-6.6871,-6.6914,-6.6914,-6.6914,-6.6914,-6.6914,-6.6914,-6.6914,-6.6914,-6.6914,-6.6914,-6.6914,-6.6914,-6.6914,-6.6914,-6.6914,-6.6914,-6.6914,-6.6914,-6.6914,-6.6914,-6.6914,-6.6914,-6.6914,-6.7148,-6.789,-6.8008,-6.8008,-6.8008,-6.8008,-6.7734,-6.6992,-6.6914,-6.6914,-6.6914,-6.6914,-6.6914,-6.6914,-6.6914,-6.6833,-6.6731,-6.6729,-6.5893,-6.4072,-6.4005,-6.3099,-6.1311,-6.1311,-6.1234,-6.1118,-6.1118,-6.1118,-3.2812,-3.6094,-3.8711,-3.7187,-4.0156,-4.3281,-4.2539,-4.1289,-4.0,-3.9062,-3.9531,-4.1016,-4.3789,-4.5273,-4.8281,-5.5156,-5.6914,-5.832,-6.0898,-6.1914,-6.2539,-6.2969,-6.2656,-6.2383,-6.2305,-6.2734,-6.3359,-6.4219,-6.5117,-6.5976,-6.6836,-6.6914,-6.6914,-6.6914,-6.6914,-6.6914,-6.6914,-6.6868,-6.6859,-6.6859,-6.6805,-6.6795,-6.6795,-6.6795,-6.6795,-6.6795,-6.6795,-6.6795,-6.6795,-6.6795,-6.6795,-6.6795,-6.6795,-6.6795,-6.6795,-6.6795,-6.68,-6.6807,-6.686,-6.6907,-6.6912,-6.6914,-6.6914,-6.6914,-6.6914,-6.6914,-6.6914,-6.6914,-6.6914,-6.6914,-6.6914,-6.6914,-6.6914,-6.6914,-6.6914,-6.6914,-6.6914,-6.6914,-6.6914,-6.6914,-6.6914,-6.6914,-6.6914,-6.6914,-6.7031,-6.7422,-6.75,-6.75,-6.75,-6.75,-6.7344,-6.6953,-6.6914,-6.6914,-6.6914,-6.6914,-6.6914,-6.6914,-6.6914,-6.6637,-6.6019,-6.5946,-6.5046,-6.3189,-6.3091,-6.2409,-6.1118,-6.1118,-6.1118,-6.1118,-6.1118,-6.1118,-3.2187,-3.5117,-3.8242,-3.9726,-4.3125,-4.6523,-4.8203,-4.6562,-4.4531,-4.4023,-4.4609,-4.5351,-4.5742,-4.9219,-5.3633,-5.8672,-5.9492,-6.0234,-6.2383,-6.2695,-6.2695,-6.2695,-6.2695,-6.2422,-6.1758,-6.2656,-6.3594,-6.4258,-6.5312,-6.6211,-6.6875,-6.6914,-6.6914,-6.6914,-6.6914,-6.6914,-6.6914,-6.691,-6.6905,-6.6902,-6.6846,-6.6795,-6.6795,-6.6795,-6.6795,-6.6795,-6.6795,-6.6795,-6.6795,-6.6795,-6.6795,-6.6795,-6.6795,-6.6795,-6.6795,-6.6795,-6.6805,-6.6817,-6.6862,-6.6908,-6.6912,-6.6914,-6.6914,-6.6914,-6.6914,-6.6914,-6.6914,-6.6914,-6.6914,-6.6914,-6.6914,-6.6914,-6.6914,-6.6914,-6.6914,-6.6914,-6.6914,-6.6914,-6.6914,-6.6914,-6.6914,-6.6914,-6.6914,-6.707,-6.7265,-6.7461,-6.7656,-6.7773,-6.7773,-6.7773,-6.7695,-6.75,-6.75,-6.7422,-6.7226,-6.7031,-6.6914,-6.6914,-6.6914,-6.644,-6.5418,-6.5316,-6.4432,-6.2587,-6.2439,-6.1969,-6.1118,-6.1118,-6.1118,-6.1118,-6.1118,-6.1118,-3.5976,-3.8242,-4.0508,-4.3711,-4.3086,-4.2734,-4.6758,-4.5664,-4.4687,-4.7773,-4.9141,-5.0195,-5.1758,-5.4961,-5.7226,-5.6914,-5.8828,-6.0664,-6.164,-6.1797,-6.1797,-6.1797,-6.1797,-6.1758,-6.1719,-6.3203,-6.4219,-6.4297,-6.5859,-6.6836,-6.6914,-6.6914,-6.6914,-6.6914,-6.6914,-6.6914,-6.6914,-6.6912,-6.6909,-6.6902,-6.6846,-6.6795,-6.6795,-6.6795,-6.6795,-6.6795,-6.6795,-6.6795,-6.6795,-6.6795,-6.6795,-6.6795,-6.6795,-6.6795,-6.6795,-6.6795,-6.685,-6.6902,-6.6902,-6.6911,-6.6914,-6.6914,-6.6914,-6.6914,-6.6914,-6.6914,-6.6914,-6.6914,-6.6914,-6.6914,-6.6914,-6.6914,-6.6914,-6.6914,-6.6914,-6.6914,-6.6914,-6.6914,-6.6914,-6.6914,-6.6914,-6.6914,-6.6914,-6.7578,-6.8359,-6.9101,-6.9922,-7.043,-7.043,-7.043,-7.0117,-6.9297,-6.9219,-6.8906,-6.8164,-6.7383,-6.6914,-6.6914,-6.6914,-6.6432,-6.5333,-6.5319,-6.439,-6.2462,-6.2394,-6.1969,-6.1118,-6.1118,-6.1118,-6.1118,-6.1118,-6.1118,-3.3789,-3.6953,-4.0351,-4.2187,-4.3906,-4.6445,-5.1289,-5.2031,-5.2266,-5.4101,-5.4765,-5.4844,-5.4414,-5.6719,-5.8594,-5.8281,-5.9883,-6.1328,-6.164,-6.1719,-6.1719,-6.1719,-6.1719,-6.1719,-6.1719,-6.3281,-6.4297,-6.4297,-6.5898,-6.6914,-6.6914,-6.6914,-6.6914,-6.6914,-6.6914,-6.6914,-6.6914,-6.6913,-6.6911,-6.6909,-6.6817,-6.6802,-6.6795,-6.6795,-6.6795,-6.6795,-6.6795,-6.6795,-6.6795,-6.6795,-6.6795,-6.6795,-6.6795,-6.6795,-6.6795,-6.6795,-6.685,-6.6904,-6.6904,-6.6911,-6.6914,-6.6914,-6.6914,-6.6914,-6.6914,-6.6914,-6.6914,-6.6914,-6.6914,-6.6914,-6.6914,-6.6914,-6.6914,-6.6914,-6.6914,-6.6914,-6.6914,-6.6914,-6.6914,-6.6914,-6.6914,-6.707,-6.7617,-6.7539,-6.7851,-6.9219,-6.9258,-6.9336,-6.9883,-6.9922,-6.9765,-6.9453,-6.9414,-6.9297,-6.9023,-6.7695,-6.7148,-6.7656,-6.668,-6.5612,-6.4549,-6.395,-6.3022,-6.163,-6.1582,-6.1427,-6.1118,-6.1118,-6.1118,-6.1118,-6.1118,-6.1118,-3.4297,-3.7383,-4.1094,-4.2812,-4.543,-4.9023,-5.4453,-5.5742,-5.6406,-5.8633,-5.8242,-5.7226,-5.6289,-5.7344,-5.8555,-5.9101,-6.0625,-6.1719,-6.1719,-6.1719,-6.1719,-6.1719,-6.1719,-6.1719,-6.1719,-6.3047,-6.3984,-6.4297,-6.5664,-6.6601,-6.6875,-6.6914,-6.6914,-6.6914,-6.6914,-6.6914,-6.6914,-6.6913,-6.6912,-6.6911,-6.6865,-6.6817,-6.6846,-6.68,-6.6798,-6.6802,-6.6798,-6.6795,-6.6795,-6.6795,-6.6795,-6.6795,-6.6795,-6.6795,-6.6795,-6.6795,-6.685,-6.6904,-6.6904,-6.6911,-6.6914,-6.6914,-6.6914,-6.6914,-6.6914,-6.6914,-6.6914,-6.6914,-6.6914,-6.6914,-6.6914,-6.6914,-6.6914,-6.6914,-6.6914,-6.6914,-6.6914,-6.6914,-6.6992,-6.7265,-6.7305,-6.7578,-6.8437,-6.832,-6.8476,-6.9648,-6.957,-6.9609,-7.0195,-7.0234,-7.0234,-7.0234,-6.9961,-6.9844,-6.9883,-6.8281,-6.7578,-6.8164,-6.6328,-6.4831,-6.4042,-6.3175,-6.2205,-6.1127,-6.1118,-6.1118,-6.1118,-6.1118,-6.1118,-6.1118,-6.1118,-6.1118,-3.8789,-4.0469,-4.3242,-4.6719,-4.7617,-4.9258,-5.5234,-5.5273,-5.5508,-6.0625,-5.8984,-5.6875,-5.7734,-5.7187,-5.7187,-5.8906,-6.0586,-6.168,-6.1719,-6.1719,-6.1719,-6.1719,-6.1719,-6.1719,-6.1719,-6.25,-6.3359,-6.4258,-6.5117,-6.5976,-6.6836,-6.6914,-6.6914,-6.6914,-6.6914,-6.6914,-6.6914,-6.6914,-6.6914,-6.6911,-6.6911,-6.6909,-6.6902,-6.6846,-6.6802,-6.6811,-6.68,-6.6795,-6.6795,-6.6795,-6.6795,-6.6795,-6.6795,-6.6795,-6.6795,-6.6795,-6.685,-6.6904,-6.6904,-6.6911,-6.6914,-6.6914,-6.6914,-6.6914,-6.6914,-6.6914,-6.6914,-6.6914,-6.6914,-6.6914,-6.6914,-6.6914,-6.6914,-6.6914,-6.6914,-6.6914,-6.6914,-6.6914,-6.7148,-6.8008,-6.8203,-6.8476,-6.9258,-7.0117,-7.0703,-7.0703,-7.1445,-7.1992,-7.1992,-7.1992,-7.1992,-7.1992,-7.1211,-7.0703,-7.0703,-6.914,-6.8203,-6.8203,-6.5742,-6.4205,-6.4003,-6.3175,-6.2205,-6.1127,-6.1118,-6.1118,-6.1118,-6.1118,-6.1118,-6.1118,-6.1118,-6.1118,-3.5351,-3.9492,-4.4336,-4.4766,-4.9883,-5.5312,-5.7109,-5.7109,-5.75,-6.0234,-5.9961,-5.8789,-5.7265,-5.7773,-5.8398,-5.8281,-5.9687,-6.1015,-6.1601,-6.1719,-6.1719,-6.1719,-6.1719,-6.1719,-6.1719,-6.3047,-6.4023,-6.4297,-6.5664,-6.664,-6.6875,-6.6914,-6.6914,-6.6914,-6.6914,-6.6914,-6.6914,-6.6914,-6.6914,-6.6914,-6.6912,-6.6909,-6.6902,-6.6813,-6.6809,-6.6811,-6.68,-6.6795,-6.6795,-6.6795,-6.6795,-6.6795,-6.6795,-6.6795,-6.6795,-6.6795,-6.685,-6.6904,-6.6904,-6.6911,-6.6914,-6.6914,-6.6914,-6.6914,-6.6914,-6.6914,-6.6914,-6.6914,-6.6914,-6.6914,-6.6914,-6.6914,-6.6914,-6.6914,-6.6914,-6.6914,-6.6914,-6.6914,-6.6992,-6.7226,-6.7773,-6.8476,-6.9336,-6.9648,-7.0195,-7.1445,-7.1328,-7.1328,-7.1914,-7.1992,-7.1992,-7.1992,-7.1758,-7.1367,-7.0742,-6.914,-6.8203,-6.8203,-6.5656,-6.4094,-6.4003,-6.2586,-6.1576,-6.1127,-6.1118,-6.1118,-6.1118,-6.1118,-6.1118,-6.1118,-6.1118,-6.1118,-3.9961,-4.4219,-4.8789,-4.9648,-5.3633,-5.7734,-5.9101,-5.9414,-5.9492,-5.9844,-5.9648,-5.8945,-5.7383,-5.7969,-5.8711,-5.8867,-6.0039,-6.1094,-6.164,-6.1719,-6.1719,-6.1719,-6.1719,-6.1836,-6.2187,-6.3164,-6.4062,-6.4765,-6.5781,-6.6523,-6.6875,-6.6914,-6.6914,-6.6914,-6.6914,-6.6914,-6.6914,-6.6914,-6.6914,-6.6914,-6.6914,-6.6912,-6.691,-6.682,-6.6815,-6.6856,-6.6802,-6.6795,-6.6795,-6.6795,-6.6795,-6.6795,-6.6795,-6.6795,-6.6798,-6.6802,-6.6852,-6.6904,-6.6906,-6.6912,-6.6914,-6.6914,-6.6914,-6.6914,-6.6914,-6.6914,-6.6914,-6.6914,-6.6914,-6.6914,-6.6914,-6.6914,-6.6914,-6.6914,-6.6914,-6.6914,-6.6914,-6.6914,-6.6992,-6.7344,-6.8086,-6.8945,-6.9844,-7.0234,-7.0781,-7.1836,-7.1562,-7.1406,-7.1914,-7.1992,-7.1992,-7.1992,-7.168,-7.1289,-7.0742,-6.914,-6.8203,-6.8203,-6.5961,-6.4428,-6.4038,-6.2624,-6.1634,-6.1118,-6.1118,-6.1118,-6.1118,-6.1118,-6.1118,-6.1118,-6.1118,-6.1118,-4.8437,-5.1523,-5.4687,-5.8008,-5.7969,-5.789,-6.0976,-6.1719,-6.125,-5.9648,-5.8672,-5.8086,-5.793,-5.7969,-5.8515,-6.0039,-6.1015,-6.1601,-6.168,-6.1719,-6.1719,-6.1719,-6.1719,-6.1992,-6.2812,-6.3047,-6.3789,-6.5351,-6.5625,-6.6055,-6.6875,-6.6914,-6.6914,-6.6914,-6.6914,-6.6914,-6.6914,-6.6914,-6.6914,-6.6914,-6.6914,-6.6914,-6.6914,-6.6826,-6.6857,-6.6901,-6.6846,-6.6795,-6.6795,-6.6795,-6.6795,-6.6795,-6.6795,-6.6795,-6.6798,-6.6809,-6.6857,-6.6904,-6.691,-6.6913,-6.6914,-6.6914,-6.6914,-6.6914,-6.6914,-6.6914,-6.6914,-6.6914,-6.6914,-6.6914,-6.6914,-6.6914,-6.6914,-6.6914,-6.6914,-6.6914,-6.6914,-6.6914,-6.7148,-6.8047,-6.8867,-6.9687,-7.0547,-7.1406,-7.1992,-7.1992,-7.1992,-7.1992,-7.1992,-7.1992,-7.1953,-7.1875,-7.1172,-7.0625,-7.0508,-6.9062,-6.8164,-6.8086,-6.6468,-6.5091,-6.4154,-6.321,-6.2199,-6.1118,-6.1195,-6.1195,-6.1118,-6.1118,-6.1118,-6.1118,-6.1118,-6.1118,-4.2109,-4.7422,-5.3476,-5.5625,-5.8398,-6.0781,-6.1523,-6.1719,-6.1406,-6.0351,-6.0,-5.9453,-5.8125,-5.8476,-5.9023,-5.9414,-6.0156,-6.0937,-6.1601,-6.1719,-6.1719,-6.1719,-6.1719,-6.1758,-6.1953,-6.3203,-6.418,-6.4531,-6.5859,-6.6719,-6.6875,-6.6914,-6.6914,-6.6914,-6.6914,-6.6914,-6.6914,-6.6914,-6.6914,-6.6914,-6.6914,-6.6914,-6.6914,-6.6872,-6.6865,-6.6815,-6.6802,-6.6795,-6.6795,-6.6795,-6.6795,-6.6795,-6.6795,-6.6795,-6.6798,-6.6809,-6.6857,-6.6904,-6.691,-6.6913,-6.6914,-6.6914,-6.6914,-6.6914,-6.6914,-6.6914,-6.6914,-6.6914,-6.6914,-6.6914,-6.6914,-6.6914,-6.6914,-6.6914,-6.6914,-6.6914,-6.6914,-6.6914,-6.7148,-6.8047,-6.8906,-6.9726,-7.0547,-7.1406,-7.1992,-7.1992,-7.1992,-7.1992,-7.1992,-7.1992,-7.1758,-7.1055,-7.082,-7.0156,-6.8867,-6.8398,-6.789,-6.7226,-6.6703,-6.5988,-6.5046,-6.4059,-6.2773,-6.1118,-6.1776,-6.1776,-6.1118,-6.1118,-6.1118,-6.1118,-6.1118,-6.1118,-4.4414,-4.9297,-5.4141,-5.7539,-6.0039,-6.1719,-6.1719,-6.1719,-6.1562,-6.1133,-6.039,-5.9414,-5.8125,-5.8594,-5.9219,-5.9219,-6.0234,-6.1172,-6.164,-6.1719,-6.1719,-6.1719,-6.1719,-6.1875,-6.2265,-6.3515,-6.4453,-6.4883,-6.6133,-6.6914,-6.6914,-6.6914,-6.6914,-6.6914,-6.6914,-6.6914,-6.6914,-6.6914,-6.6914,-6.6914,-6.6914,-6.6914,-6.6914,-6.6911,-6.6863,-6.6811,-6.68,-6.6795,-6.6795,-6.6795,-6.6795,-6.6795,-6.6795,-6.68,-6.6805,-6.6854,-6.6863,-6.6908,-6.6912,-6.6914,-6.6914,-6.6914,-6.6914,-6.6914,-6.6914,-6.6914,-6.6914,-6.6914,-6.6914,-6.6914,-6.6914,-6.6914,-6.6914,-6.6914,-6.6914,-6.6914,-6.6914,-6.7226,-6.7656,-6.8125,-6.9219,-7.0195,-7.0625,-7.1406,-7.1992,-7.1992,-7.1992,-7.1992,-7.1992,-7.1992,-7.168,-7.0781,-7.0312,-6.957,-6.832,-6.7812,-6.7383,-6.6914,-6.6781,-6.6262,-6.5358,-6.5148,-6.4023,-6.1776,-6.2162,-6.1969,-6.1118,-6.1118,-6.1118,-6.1118,-6.1118,-6.1118,-4.7226,-5.1523,-5.5234,-6.039,-6.1719,-6.1719,-6.1719,-6.1719,-6.1719,-6.1719,-6.0351,-5.8984,-5.8242,-5.8594,-5.9023,-5.918,-6.0469,-6.1523,-6.168,-6.1719,-6.1719,-6.1719,-6.1719,-6.1992,-6.2695,-6.3711,-6.4609,-6.5312,-6.6328,-6.6914,-6.6914,-6.6914,-6.6914,-6.6914,-6.6914,-6.6914,-6.6914,-6.6914,-6.6914,-6.6914,-6.6914,-6.6914,-6.6914,-6.691,-6.6862,-6.6817,-6.6805,-6.68,-6.68,-6.68,-6.6798,-6.6798,-6.68,-6.6807,-6.6813,-6.6863,-6.6908,-6.6912,-6.6914,-6.6914,-6.6914,-6.6914,-6.6914,-6.6914,-6.6914,-6.6914,-6.6914,-6.6914,-6.6914,-6.6914,-6.6914,-6.6914,-6.6914,-6.6914,-6.6914,-6.6914,-6.6914,-6.7461,-6.8047,-6.8359,-6.9765,-7.0937,-7.0937,-7.1523,-7.1992,-7.1992,-7.1992,-7.1992,-7.1992,-7.1875,-7.1445,-7.0586,-6.9726,-6.8867,-6.8047,-6.7305,-6.6914,-6.6914,-6.6781,-6.634,-6.5553,-6.6082,-6.5264,-6.2897,-6.2704,-6.2201,-6.1311,-6.1157,-6.1118,-6.1118,-6.1118,-6.1118,-3.9805,-4.6992,-5.5234,-6.039,-6.1719,-6.1719,-6.1719,-6.1719,-6.1719,-6.1719,-6.0351,-5.914,-5.9062,-5.8515,-5.832,-5.9062,-5.9961,-6.0859,-6.1601,-6.1719,-6.1719,-6.1719,-6.1719,-6.1758,-6.1875,-6.3359,-6.4336,-6.4453,-6.5976,-6.6914,-6.6914,-6.6914,-6.6914,-6.6914,-6.6914,-6.6914,-6.6914,-6.6914,-6.6914,-6.6914,-6.6914,-6.6914,-6.6914,-6.6912,-6.691,-6.687,-6.6818,-6.6809,-6.6809,-6.6809,-6.6805,-6.6798,-6.6856,-6.6857,-6.6815,-6.6868,-6.6911,-6.6912,-6.6914,-6.6914,-6.6914,-6.6914,-6.6914,-6.6914,-6.6914,-6.6914,-6.6914,-6.6914,-6.6914,-6.6914,-6.6914,-6.6914,-6.6914,-6.6914,-6.6914,-6.6914,-6.6914,-6.6992,-6.7539,-6.9023,-7.0664,-7.1836,-7.1836,-7.1914,-7.1992,-7.1992,-7.1992,-7.1992,-7.1992,-7.1328,-7.0547,-6.9687,-6.8867,-6.8008,-6.7148,-6.6953,-6.6914,-6.6914,-6.6781,-6.6613,-6.6444,-6.6393,-6.5846,-6.4687,-6.3913,-6.3091,-6.224,-6.1466,-6.1118,-6.1118,-6.1118,-6.1118,-4.1094,-4.8359,-5.5234,-6.039,-6.1719,-6.1719,-6.1719,-6.1719,-6.1719,-6.1719,-6.0742,-5.9726,-5.9297,-5.8906,-5.875,-5.914,-5.9883,-6.0703,-6.1562,-6.1719,-6.1719,-6.1719,-6.1719,-6.1719,-6.1719,-6.3281,-6.4297,-6.4297,-6.5898,-6.6914,-6.6914,-6.6914,-6.6914,-6.6914,-6.6914,-6.6914,-6.6914,-6.6914,-6.6914,-6.6914,-6.6914,-6.6914,-6.6914,-6.6914,-6.6913,-6.6911,-6.682,-6.6811,-6.6811,-6.6811,-6.6809,-6.6807,-6.686,-6.6865,-6.6866,-6.6871,-6.6912,-6.6914,-6.6914,-6.6914,-6.6914,-6.6914,-6.6914,-6.6914,-6.6914,-6.6914,-6.6914,-6.6914,-6.6914,-6.6914,-6.6914,-6.6914,-6.6914,-6.6914,-6.6914,-6.7031,-6.7539,-6.8008,-6.8867,-7.0586,-7.1484,-7.1992,-7.1992,-7.1992,-7.1992,-7.1992,-7.1992,-7.1992,-7.1992,-7.168,-7.0937,-6.9609,-6.914,-6.8398,-6.7031,-6.6914,-6.6914,-6.6914,-6.6781,-6.6688,-6.6595,-6.6471,-6.6157,-6.5693,-6.4377,-6.3284,-6.2394,-6.1543,-6.1118,-6.1118,-6.1118,-6.1118,-4.164,-4.7304,-5.1953,-5.8476,-6.0234,-6.0625,-6.1484,-6.1719,-6.1719,-6.1719,-6.1172,-6.0469,-5.9648,-5.914,-5.8945,-5.914,-5.9687,-6.039,-6.125,-6.1562,-6.1719,-6.1719,-6.1719,-6.1719,-6.1719,-6.3281,-6.4297,-6.4297,-6.5898,-6.6914,-6.6914,-6.6914,-6.6914,-6.6914,-6.6914,-6.6914,-6.6914,-6.6914,-6.6914,-6.6914,-6.6914,-6.6914,-6.6914,-6.6914,-6.6914,-6.6912,-6.6862,-6.6817,-6.6818,-6.6817,-6.6815,-6.6813,-6.6863,-6.6907,-6.691,-6.6911,-6.6913,-6.6914,-6.6914,-6.6914,-6.6914,-6.6914,-6.6914,-6.6914,-6.6914,-6.6914,-6.6914,-6.6914,-6.6914,-6.6914,-6.6914,-6.6914,-6.6914,-6.6914,-6.707,-6.7422,-6.8047,-6.9062,-7.0156,-7.1445,-7.1836,-7.1992,-7.1992,-7.1992,-7.1992,-7.1992,-7.1992,-7.1992,-7.1992,-7.1601,-7.0859,-6.9648,-6.9101,-6.832,-6.6992,-6.6914,-6.6914,-6.6914,-6.6772,-6.667,-6.6595,-6.6436,-6.6299,-6.6185,-6.4754,-6.3594,-6.2743,-6.1853,-6.1311,-6.1118,-6.1118,-6.1118,-3.7177,-3.9763,-4.3047,-5.3125,-5.625,-5.7695,-6.0976,-6.1719,-6.1719,-6.1719,-6.164,-6.1367,-6.0508,-5.9023,-5.8242,-5.9062,-5.9258,-5.9531,-6.0351,-6.1172,-6.1719,-6.1719,-6.1719,-6.1719,-6.1719,-6.3281,-6.4297,-6.4297,-6.5898,-6.6914,-6.6914,-6.6914,-6.6914,-6.6914,-6.6914,-6.6914,-6.6914,-6.6914,-6.6914,-6.6914,-6.6914,-6.6914,-6.6914,-6.6914,-6.6914,-6.6914,-6.6908,-6.6906,-6.6872,-6.6905,-6.6859,-6.6813,-6.6868,-6.6908,-6.6905,-6.691,-6.6913,-6.6914,-6.6914,-6.6914,-6.6914,-6.6914,-6.6914,-6.6914,-6.6914,-6.6914,-6.6914,-6.6914,-6.6914,-6.6914,-6.6914,-6.6914,-6.6914,-6.6914,-6.7539,-6.8125,-6.8203,-6.9492,-7.0664,-7.0742,-7.1445,-7.1992,-7.1992,-7.1992,-7.1992,-7.1992,-7.1992,-7.1992,-7.1992,-7.0547,-6.9531,-6.9492,-6.8008,-6.6992,-6.6914,-6.6914,-6.6914,-6.6914,-6.6694,-6.66,-6.659,-6.6367,-6.6195,-6.6185,-6.5373,-6.4493,-6.3642,-6.2743,-6.193,-6.1118,-6.1118,-6.1118,-3.6128,-3.8252,-4.0758,-4.8337,-5.2567,-5.5347,-5.7104,-5.9686,-6.1719,-6.1719,-6.1719,-6.1601,-6.1289,-6.0273,-5.9453,-5.9219,-5.9219,-5.9492,-6.0273,-6.0664,-6.1055,-6.164,-6.1719,-6.1719,-6.1719,-6.3281,-6.4297,-6.4297,-6.5898,-6.6914,-6.6914,-6.6914,-6.6914,-6.6914,-6.6914,-6.6914,-6.6914,-6.6914,-6.6914,-6.6914,-6.6914,-6.6914,-6.6914,-6.6914,-6.6914,-6.6914,-6.6911,-6.691,-6.6911,-6.6906,-6.6904,-6.6867,-6.6871,-6.6912,-6.6912,-6.6913,-6.6914,-6.6914,-6.6914,-6.6914,-6.6914,-6.6914,-6.6914,-6.6914,-6.6914,-6.6914,-6.6914,-6.6914,-6.6914,-6.6914,-6.6914,-6.7305,-6.7851,-6.8398,-6.918,-6.9805,-6.9805,-7.0273,-7.0859,-7.1445,-7.1797,-7.1992,-7.1992,-7.1992,-7.1992,-7.1992,-7.1992,-7.1797,-7.125,-7.0625,-6.9844,-6.8789,-6.8125,-6.75,-6.6953,-6.6914,-6.6873,-6.6782,-6.6666,-6.6558,-6.6478,-6.629,-6.6185,-6.6185,-6.5915,-6.5102,-6.3719,-6.282,-6.1969,-6.1118,-6.1118,-6.1118,-3.393,-3.5593,-3.7986,-4.5167,-4.8279,-5.0761,-5.5411,-5.7845,-5.9569,-6.1328,-6.1719,-6.1719,-6.1719,-6.1211,-6.0586,-5.9726,-5.9609,-5.9805,-6.0312,-6.0664,-6.1055,-6.164,-6.1719,-6.1719,-6.1719,-6.3281,-6.4297,-6.4297,-6.5898,-6.6914,-6.6914,-6.6914,-6.6914,-6.6914,-6.6914,-6.6914,-6.6914,-6.6914,-6.6914,-6.6914,-6.6914,-6.6914,-6.6914,-6.6914,-6.6914,-6.6914,-6.6913,-6.6913,-6.6912,-6.6909,-6.6908,-6.6911,-6.6911,-6.6912,-6.6914,-6.6914,-6.6914,-6.6914,-6.6914,-6.6914,-6.6914,-6.6914,-6.6914,-6.6914,-6.6914,-6.6914,-6.6914,-6.6914,-6.6914,-6.6953,-6.7265,-6.7969,-6.8828,-6.9648,-7.0273,-7.0781,-7.1055,-7.1133,-7.1328,-7.1875,-7.1992,-7.1992,-7.1992,-7.1992,-7.1992,-7.1992,-7.1992,-7.168,-7.082,-7.0469,-6.9765,-6.8359,-6.793,-6.7539,-6.6953,-6.6914,-6.6833,-6.6722,-6.665,-6.654,-6.64,-6.6253,-6.6185,-6.6185,-6.6185,-6.5528,-6.4145,-6.3245,-6.224,-6.1118,-6.1118,-6.1118,0.0,0.0,0.0,-4.3419,-4.3281,-4.4014,-5.5827,-5.5996,-5.5149,-6.0429,-6.1484,-6.1523,-6.168,-6.1719,-6.1406,-6.0586,-6.043,-6.039,-6.039,-6.1133,-6.168,-6.1719,-6.1719,-6.1758,-6.1758,-6.332,-6.4336,-6.4336,-6.5937,-6.6914,-6.6914,-6.6914,-6.6914,-6.6914,-6.6914,-6.6914,-6.6914,-6.6914,-6.6914,-6.6914,-6.6914,-6.6914,-6.6914,-6.6914,-6.6914,-6.6914,-6.6914,-6.6914,-6.6914,-6.6912,-6.6911,-6.6911,-6.6911,-6.6911,-6.6911,-6.6911,-6.6913,-6.6914,-6.6914,-6.6914,-6.6914,-6.6914,-6.6914,-6.6914,-6.6914,-6.6914,-6.6914,-6.6914,-6.6914,-6.7148,-6.8047,-6.8906,-6.9726,-7.0547,-7.0742,-7.0976,-7.1836,-7.1992,-7.1992,-7.1992,-7.1992,-7.1992,-7.1992,-7.1992,-7.1992,-7.1992,-7.1992,-7.168,-7.0781,-6.9961,-6.914,-6.8242,-6.7383,-6.6914,-6.6914,-6.6914,-6.6832,-6.6719,-6.6646,-6.6534,-6.6392,-6.6253,-6.6185,-6.6185,-6.6185,-6.5799,-6.4986,-6.4145,-6.282,-6.1157,-6.1118,-6.1118,-3.0565,0.0,0.0,0.0,0.0,0.0,-4.567,-4.763,-4.9973,-5.5811,-5.6517,-5.7223,-6.1015,-6.1719,-6.1601,-6.1367,-6.082,-6.039,-6.039,-6.0625,-6.0976,-6.164,-6.2265,-6.2656,-6.2656,-6.4219,-6.5234,-6.5234,-6.6289,-6.6914,-6.6914,-6.6914,-6.6914,-6.6914,-6.6914,-6.6914,-6.6914,-6.6914,-6.6914,-6.6914,-6.6914,-6.6914,-6.6914,-6.6914,-6.6914,-6.6914,-6.6914,-6.6914,-6.6914,-6.6912,-6.6912,-6.6914,-6.6912,-6.6912,-6.6914,-6.6914,-6.6914,-6.6914,-6.6914,-6.6914,-6.6914,-6.6914,-6.6914,-6.6914,-6.6914,-6.6914,-6.6914,-6.6914,-6.7344,-6.8164,-6.9648,-7.0195,-7.0586,-7.1445,-7.164,-7.1719,-7.1953,-7.1992,-7.1992,-7.1992,-7.1992,-7.1992,-7.1992,-7.1992,-7.1992,-7.1992,-7.1992,-7.1484,-7.0039,-6.9648,-6.8906,-6.7422,-6.7031,-6.6914,-6.6914,-6.6828,-6.6717,-6.6642,-6.6528,-6.6384,-6.6244,-6.6215,-6.6185,-6.6185,-6.6185,-6.5799,-6.4986,-6.4145,-6.3129,-6.2046,-6.1389,-6.1118,-3.1217,-3.1371,-3.2217,-3.4615,0.0,0.0,-4.4394,-4.6053,-4.8402,-5.6281,-5.7496,-5.8084,-6.1133,-6.1719,-6.1719,-6.1719,-6.1289,-6.0937,-6.0937,-6.0937,-6.1133,-6.164,-6.2148,-6.2617,-6.2969,-6.4258,-6.5195,-6.5586,-6.6406,-6.6914,-6.6914,-6.6914,-6.6914,-6.6914,-6.6914,-6.6914,-6.6914,-6.6914,-6.6914,-6.6914,-6.6914,-6.6914,-6.6914,-6.6914,-6.6914,-6.6914,-6.6914,-6.6914,-6.6914,-6.6914,-6.6914,-6.6914,-6.6913,-6.6914,-6.6914,-6.6914,-6.6914,-6.6914,-6.6914,-6.6914,-6.6914,-6.6914,-6.6914,-6.6914,-6.6914,-6.6914,-6.6992,-6.7344,-6.832,-6.9453,-7.0469,-7.0976,-7.1367,-7.1875,-7.1992,-7.1992,-7.1992,-7.1992,-7.1992,-7.1992,-7.1992,-7.1992,-7.1992,-7.1992,-7.1992,-7.1992,-7.168,-7.0976,-6.9648,-6.918,-6.8437,-6.7031,-6.6914,-6.6874,-6.683,-6.6735,-6.6638,-6.6528,-6.6443,-6.6351,-6.6195,-6.6185,-6.6185,-6.6185,-6.6185,-6.5799,-6.4986,-6.4145,-6.3052,-6.1853,-6.135,-6.1118,-3.2416,-3.272,-3.4112,-3.7052,-3.5041,0.0,-4.664,-4.6914,-4.7535,-5.7261,-5.9178,-5.9296,-5.9843,-6.0038,-6.0077,-5.996,-6.0546,-6.1133,-6.164,-6.1719,-6.1719,-6.1719,-6.1797,-6.2148,-6.293,-6.3789,-6.4648,-6.5547,-6.6406,-6.6914,-6.6914,-6.6914,-6.6914,-6.6914,-6.6914,-6.6914,-6.6914,-6.6914,-6.6914,-6.6914,-6.6914,-6.6914,-6.6914,-6.6914,-6.6914,-6.6914,-6.6914,-6.6914,-6.6914,-6.6914,-6.6914,-6.6914,-6.6914,-6.6914,-6.6914,-6.6914,-6.6914,-6.6914,-6.6914,-6.6914,-6.6914,-6.6914,-6.6914,-6.6914,-6.6914,-6.6953,-6.7226,-6.8203,-6.9531,-7.0703,-7.082,-7.1406,-7.1992,-7.1992,-7.1992,-7.1992,-7.1992,-7.1992,-7.1992,-7.1992,-7.1992,-7.1992,-7.1992,-7.1914,-7.1875,-7.1875,-7.1094,-7.0234,-6.9375,-6.8633,-6.7851,-6.6992,-6.6914,-6.6833,-6.6722,-6.6673,-6.6607,-6.6407,-6.6369,-6.6334,-6.6195,-6.6185,-6.6185,-6.6185,-6.6185,-6.5799,-6.4986,-6.4145,-6.2859,-6.1234,-6.1157,-6.1118,-3.4899,-3.4543,-3.5162,-3.5162,-3.551,0.0,-3.6527,-3.6663,-3.8071,-4.2906,-4.3395,-4.4231,-4.8365,-4.9733,-4.9967,-4.9267,-5.3264,-5.7689,-6.1211,-6.1719,-6.1719,-6.1719,-6.2305,-6.2812,-6.2969,-6.3789,-6.4648,-6.5547,-6.6406,-6.6914,-6.6914,-6.6914,-6.6914,-6.6914,-6.6914,-6.6914,-6.6914,-6.6914,-6.6914,-6.6914,-6.6914,-6.6914,-6.6914,-6.6914,-6.6914,-6.6914,-6.6914,-6.6914,-6.6914,-6.6914,-6.6914,-6.6914,-6.6914,-6.6914,-6.6914,-6.6914,-6.6914,-6.6914,-6.6914,-6.6914,-6.6914,-6.6914,-6.6914,-6.6914,-6.6914,-6.7383,-6.8242,-6.9765,-7.0469,-7.0859,-7.1562,-7.1875,-7.1992,-7.1992,-7.1992,-7.1992,-7.1992,-7.1992,-7.1992,-7.1992,-7.1992,-7.1992,-7.1992,-7.1406,-7.0937,-7.0937,-7.0195,-6.9375,-6.8555,-6.8281,-6.7851,-6.6992,-6.6914,-6.6833,-6.6722,-6.6666,-6.6569,-6.64,-6.6299,-6.6225,-6.6185,-6.6185,-6.6185,-6.6185,-6.6185,-6.5799,-6.4986,-6.4145,-6.3168,-6.2124,-6.1427,-6.1118,-3.724,-3.6593,-3.6826,-3.64,-3.6593,0.0,0.0,-3.7307,-3.8356,-4.3169,-4.3114,-4.3011,-4.5611,-4.6475,-4.6667,-4.6201,-5.0873,-5.4713,-5.5142,-5.8943,-6.1719,-6.1719,-6.2109,-6.2539,-6.2969,-6.3398,-6.418,-6.5508,-6.6015,-6.6445,-6.6875,-6.6914,-6.6914,-6.6914,-6.6914,-6.6914,-6.6914,-6.6914,-6.6914,-6.6914,-6.6914,-6.6914,-6.6914,-6.6914,-6.6914,-6.6914,-6.6914,-6.6914,-6.6914,-6.6914,-6.6914,-6.6914,-6.6914,-6.6914,-6.6914,-6.6914,-6.6914,-6.6914,-6.6914,-6.6914,-6.6914,-6.6914,-6.6914,-6.6914,-6.6914,-6.7773,-6.9062,-7.0351,-7.1015,-7.1445,-7.1875,-7.1992,-7.1992,-7.1992,-7.1992,-7.1992,-7.1992,-7.1992,-7.1992,-7.1992,-7.1992,-7.1992,-7.1992,-7.1289,-7.0703,-7.0703,-6.9609,-6.8672,-6.8242,-6.7812,-6.7343,-6.6866,-6.6787,-6.6724,-6.6571,-6.6501,-6.6443,-6.6308,-6.6245,-6.6185,-6.6185,-6.6185,-6.6185,-6.6185,-6.6185,-6.5992,-6.5605,-6.4338,-6.3245,-6.2394,-6.1505,-6.1118,-3.9655,-3.8947,-3.8986,-3.8174,-3.8025,-3.8529,0.0,0.0,0.0,-4.4585,-4.4331,-4.3362,-4.3362,-4.3245,-4.3245,-4.3401,-4.7654,-4.993,-4.712,-5.3499,-5.8631,-5.9139,-6.0664,-6.164,-6.1523,-6.1523,-6.25,-6.4922,-6.4492,-6.4844,-6.6562,-6.6797,-6.6914,-6.6914,-6.6914,-6.6914,-6.6914,-6.6914,-6.6914,-6.6914,-6.6914,-6.6914,-6.6914,-6.6914,-6.6914,-6.6914,-6.6914,-6.6914,-6.6914,-6.6914,-6.6914,-6.6914,-6.6914,-6.6914,-6.6914,-6.6914,-6.6914,-6.6914,-6.6914,-6.6914,-6.6914,-6.6914,-6.6914,-6.6953,-6.7305,-6.8359,-6.9609,-7.0664,-7.1445,-7.1992,-7.1992,-7.1992,-7.1992,-7.1992,-7.1992,-7.1992,-7.1992,-7.1992,-7.1992,-7.1992,-7.1992,-7.1992,-7.1992,-7.1133,-7.0469,-7.0469,-6.9023,-6.7969,-6.7969,-6.7304,-6.6829,-6.6722,-6.6709,-6.6603,-6.6414,-6.6392,-6.6359,-6.6195,-6.6185,-6.6185,-6.6185,-6.6185,-6.6185,-6.6185,-6.6185,-6.6185,-6.6185,-6.4532,-6.3323,-6.2627,-6.1582,-6.1118,-4.2446,-4.1583,-4.1816,-3.7986,-3.9843,-4.1081,-3.5416,0.0,-3.6554,-3.4212,0.0,-3.3407,-3.3407,0.0,0.0,-3.333,-3.7218,-4.0004,-3.9643,-4.3765,-4.7658,-4.9913,-5.6984,-6.0233,-5.6435,-5.6131,-5.8164,-6.293,-6.0508,-6.082,-6.5508,-6.6484,-6.6914,-6.6914,-6.6914,-6.6914,-6.6914,-6.6914,-6.6914,-6.6914,-6.6914,-6.6914,-6.6914,-6.6914,-6.6914,-6.6914,-6.6914,-6.6914,-6.6914,-6.6914,-6.6914,-6.6914,-6.6914,-6.6914,-6.6914,-6.6914,-6.6914,-6.6914,-6.6914,-6.6914,-6.6914,-6.6914,-6.6914,-6.7187,-6.875,-6.9297,-6.9726,-7.1406,-7.1914,-7.1992,-7.1992,-7.1992,-7.1992,-7.1992,-7.1992,-7.1992,-7.1992,-7.1992,-7.1992,-7.1992,-7.1992,-7.1992,-7.1992,-7.0703,-6.9609,-6.957,-6.8125,-6.7031,-6.7031,-6.6865,-6.6724,-6.6719,-6.6662,-6.6563,-6.6407,-6.6392,-6.6359,-6.6195,-6.6185,-6.6185,-6.6185,-6.6185,-6.6185,-6.6185,-6.6185,-6.6185,-6.6185,-6.4532,-6.3642,-6.3526,-6.1853,-6.1118,-4.277,-4.344,-4.4485,-4.023,-4.197,-4.3092,-3.6742,-3.5002,-3.4422,-3.3499,0.0,0.0,0.0,0.0,0.0,0.0,-3.4031,-3.5992,-3.3472,-3.9054,-4.4335,-4.6899,-5.0012,-5.2605,-5.4284,-5.406,-5.6367,-6.2539,-5.8437,-5.8555,-6.5234,-6.5937,-6.6367,-6.6875,-6.6914,-6.6914,-6.6914,-6.6914,-6.6914,-6.6914,-6.6914,-6.6914,-6.6914,-6.6914,-6.6914,-6.6914,-6.6914,-6.6914,-6.6914,-6.6914,-6.6914,-6.6914,-6.6914,-6.6914,-6.6914,-6.6914,-6.6914,-6.6914,-6.6914,-6.6914,-6.6992,-6.75,-6.7656,-6.7969,-6.9687,-7.0195,-7.039,-7.164,-7.1992,-7.1992,-7.1992,-7.1992,-7.1992,-7.1992,-7.1992,-7.1992,-7.1992,-7.1992,-7.1992,-7.1992,-7.1992,-7.1992,-7.1992,-7.0625,-6.9492,-6.9453,-6.8008,-6.6874,-6.6785,-6.6731,-6.6652,-6.6546,-6.6483,-6.6422,-6.629,-6.6272,-6.6283,-6.6195,-6.6185,-6.6185,-6.6185,-6.6185,-6.6185,-6.6185,-6.6185,-6.6185,-6.6185,-6.5025,-6.4184,-6.3681,-6.1892,-6.1118,-4.4833,-4.5722,-4.6573,-4.139,-4.2286,-4.306,-3.7754,-3.5505,-3.4461,-3.4394,-3.3305,0.0,0.0,0.0,-2.9979,-2.9979,0.0,-3.2831,-2.9421,-3.4205,-3.8992,-4.1554,-4.2816,-4.5653,-5.1268,-4.9761,-5.1796,-5.9882,-5.5156,-5.5703,-6.4414,-6.5351,-6.5898,-6.6523,-6.6797,-6.6914,-6.6914,-6.6914,-6.6914,-6.6914,-6.6914,-6.6914,-6.6914,-6.6914,-6.6914,-6.6914,-6.6914,-6.6914,-6.6914,-6.6914,-6.6914,-6.6914,-6.6914,-6.6914,-6.6914,-6.6914,-6.6914,-6.6914,-6.6914,-6.707,-6.7344,-6.8008,-6.8359,-6.8789,-7.0273,-7.0703,-7.0897,-7.1757,-7.1992,-7.1992,-7.1992,-7.1992,-7.1992,-7.1992,-7.1992,-7.1992,-7.1992,-7.1992,-7.1992,-7.1992,-7.1797,-7.164,-7.164,-7.0469,-6.9492,-6.9492,-6.8008,-6.6833,-6.6724,-6.6664,-6.6599,-6.6422,-6.6392,-6.6308,-6.6195,-6.6185,-6.6185,-6.6185,-6.6185,-6.6185,-6.6185,-6.6185,-6.6185,-6.6185,-6.6185,-6.6185,-6.6185,-6.5373,-6.4687,-6.4029,-6.2278,-6.135,-5.0248,-4.8894,-4.7811,-4.0185,-3.9611,-4.0042,-3.6555,-3.6942,-3.7328,-3.4897,-3.5626,-3.6207,-3.4587,-3.288,-3.1715,-3.1715,-3.0486,0.0,0.0,-2.755,-2.8173,-3.0771,-3.6215,-4.1533,-4.6004,-4.1145,-4.2291,-5.3349,-4.9452,-5.1406,-6.25,-6.4687,-6.5625,-6.5625,-6.6445,-6.6914,-6.6914,-6.6914,-6.6914,-6.6914,-6.6914,-6.6914,-6.6914,-6.6914,-6.6914,-6.6914,-6.6914,-6.6914,-6.6914,-6.6914,-6.6914,-6.6914,-6.6914,-6.6914,-6.6914,-6.6914,-6.6914,-6.6914,-6.6914,-6.7461,-6.8164,-6.8203,-6.8749,-6.9528,-7.0427,-7.0697,-7.0887,-7.1747,-7.1986,-7.199,-7.199,-7.1991,-7.1992,-7.1992,-7.1992,-7.1992,-7.1992,-7.1992,-7.1992,-7.1992,-7.1328,-7.0742,-7.0742,-7.0039,-6.9492,-6.9492,-6.8008,-6.6833,-6.6724,-6.6658,-6.6552,-6.6407,-6.6272,-6.6195,-6.6185,-6.6185,-6.6185,-6.6185,-6.6185,-6.6185,-6.6185,-6.6185,-6.6185,-6.6185,-6.6185,-6.6185,-6.6185,-6.5373,-6.4986,-6.4909,-6.3168,-6.193,-5.3343,-5.4503,-5.431,-4.5452,-4.5374,-4.5568,-3.8179,-3.7367,-3.7483,-3.4935,-3.5742,-3.6207,-3.3963,-3.2604,-3.1637,-3.1101,-3.0056,-2.8397,0.0,-2.4718,-2.5143,-2.7692,-3.3884,-3.8098,-3.8497,-4.0794,-4.5069,-5.1756,-5.1171,-5.418,-6.2539,-6.3555,-6.4414,-6.5547,-6.5898,-6.6328,-6.6875,-6.6914,-6.6914,-6.6914,-6.6914,-6.6914,-6.6914,-6.6914,-6.6914,-6.6914,-6.6914,-6.6914,-6.6914,-6.6914,-6.6914,-6.6914,-6.6914,-6.6914,-6.6914,-6.6914,-6.6914,-6.6992,-6.7578,-6.7969,-6.8398,-6.9492,-7.0039,-7.0429,-7.1289,-7.1561,-7.1635,-7.1909,-7.1986,-7.1984,-7.1984,-7.1989,-7.1991,-7.1991,-7.1992,-7.1992,-7.1992,-7.1992,-7.1992,-7.1992,-7.1289,-7.0703,-7.0703,-6.9531,-6.8633,-6.8633,-6.7572,-6.6724,-6.6654,-6.6552,-6.6407,-6.6272,-6.6225,-6.6185,-6.6185,-6.6185,-6.6185,-6.6185,-6.6185,-6.6185,-6.6185,-6.6185,-6.6185,-6.6185,-6.6185,-6.6185,-6.6185,-6.5915,-6.5218,-6.4145,-6.3516,-6.2781,-5.7018,-5.8217,-5.7985,-5.0062,-4.9513,-4.8848,-4.0965,-3.9837,-3.9843,-3.756,-3.7251,-3.7593,-3.8406,-3.5356,-3.2841,-3.3228,-3.1062,-2.8122,0.0,-2.3983,-2.4331,-2.5642,-3.0312,-3.4082,-3.5775,-3.6948,-4.1664,-5.156,-5.0,-5.2695,-6.2031,-6.2812,-6.3515,-6.4648,-6.5273,-6.5859,-6.6445,-6.6758,-6.6914,-6.6914,-6.6914,-6.6914,-6.6914,-6.6914,-6.6914,-6.6914,-6.6914,-6.6914,-6.6914,-6.6914,-6.6914,-6.6914,-6.6914,-6.6914,-6.6914,-6.6914,-6.7109,-6.7422,-6.8008,-6.8594,-6.9257,-7.0351,-7.0897,-7.1285,-7.1832,-7.1986,-7.1864,-7.1239,-7.1509,-7.1859,-7.1235,-7.1555,-7.1989,-7.1989,-7.1991,-7.1992,-7.1992,-7.1758,-7.1523,-7.1523,-7.0545,-6.9721,-6.9721,-6.8582,-6.7757,-6.808,-6.7322,-6.6649,-6.6552,-6.645,-6.6367,-6.6205,-6.6185,-6.6185,-6.6185,-6.6185,-6.6185,-6.6185,-6.6185,-6.6185,-6.6185,-6.6185,-6.6185,-6.6185,-6.6185,-6.6185,-6.6185,-6.6185,-6.5489,-6.4145,-6.3835,-6.3245]},{"header":{"parameterUnit":"m.s-1","parameterCategory":1,"la1":30.6,"la2":29.2853,"lo1":-89.7004,"lo2":-87.6739,"dx":0.0162,"dy":0.0183,"nx":112,"ny":82,"refTime":"2022-12-03T06:00:00:Z","depth":0,"parameterNumber":3,"parameterNumberName":"V-component_of_WINDS"},"data":[0.0,0.0,0.0,0.0,0.0,0.0,0.0,0.0,0.0,0.0,0.0,0.0,0.0,0.0,0.0,0.0,0.0,0.0,0.0,0.0,0.0,0.0,0.0,0.0,0.0,0.0,0.0,0.0,0.0,0.0,0.0,0.0,0.0,0.0,0.0,0.0,0.0,0.0,0.0,0.0,0.0,0.0,0.0,0.0,0.0,0.0,0.0,0.0,0.0,0.0,0.0,0.0,0.0,0.0,0.0,0.0,0.0,0.0,0.0,0.0,0.0,0.0,0.0,0.0,0.0,0.0,0.0,0.0,0.0,0.0,0.0,0.0,0.0,0.0,0.0,0.0,0.0,0.0,0.0,0.0,0.0,0.0,0.0,0.0,0.0,0.0,0.0,0.0,0.0,0.0,0.3008,0.3163,0.3316,0.3436,0.3425,0.3322,0.3079,0.2657,0.0,0.0,0.0,0.0,0.0,0.0,0.0,0.0,0.0,0.0,0.0,0.0,0.0,0.0,0.0,0.0,0.0,0.0,0.0,0.0,0.0,0.0,0.0,0.0,0.0,0.0,0.0,0.0,0.0,0.0,0.0,0.0,0.0,0.0,0.0,0.0,0.0,0.0,0.0,0.0,0.0,0.0,0.0,0.0,0.0,0.0,0.0,0.0,0.0,0.0,0.0,0.0,0.0,0.0,0.0,0.0,0.0,0.0,0.0,0.0,0.0,0.0,0.0,0.0,0.0,0.0,0.0,0.0,0.0,0.0,0.0,0.0,0.0,0.0,0.0,0.0,0.0,0.0,0.0,0.0,0.0,0.0,0.0,0.0,0.0,0.0,0.0,0.0,0.0,0.0,0.0,0.0,0.0,0.0,0.0,0.0,0.0,0.0,0.0,0.0,0.0,0.0,0.0,0.0,0.2875,0.3444,0.354,0.354,0.3488,0.3422,0.3204,0.2782,0.0,0.0,0.0,0.0,0.0,0.0,0.0,0.0,0.0,0.0,0.0,0.0,0.0,0.0,0.0,0.0,0.0,0.0,0.0,0.0,0.0,0.0,0.0,0.0,0.0,0.0,0.0,0.0,0.0,0.0,0.0,0.0,0.0,0.0,0.0,0.0,0.0,0.0,0.0,0.0,0.0,0.0,0.0,0.0,0.0,0.0,0.0,0.0,0.0,0.0,0.0,0.0,0.0,0.0,0.0,0.0,0.0,0.0,0.0,0.0,0.0,0.0,0.0,0.0,0.0,0.0,0.0,0.0,0.0,0.0,0.0,0.0,0.0,0.0,0.0,0.0,0.0,0.0,0.0,0.0,0.0,0.0,0.0,0.0,0.0,0.0,0.0,0.0,0.0,0.0,0.0,0.0,0.0,0.0,0.0,0.0,0.0,0.0,0.0,0.0,0.0,0.0,0.0,0.2771,0.3071,0.3537,0.3589,0.3564,0.3501,0.3444,0.3232,0.2809,0.2501,0.0,0.0,0.0,0.0,0.0,0.0,0.0,0.0,0.0,0.0,0.0,0.0,0.0,0.0,0.0,0.0,0.0,0.0,0.0,0.0,0.0,0.0,0.0,0.0,0.0,0.0,0.0,0.0,0.0,0.0,0.0,0.0,0.0,0.0,0.0,0.0,0.0,0.0,0.0,0.0,0.0,0.0,0.0,0.0,0.0,0.0,0.0,0.0,0.0,0.0,0.0,0.0,0.0,0.0,0.0,0.0,0.0,0.0,0.0,0.0,0.0,0.0,0.0,0.0,0.0,0.0,0.0,0.0,0.0,0.0,0.0,0.0,0.0,0.0,0.0,0.0,0.0,0.0,0.0,0.0,0.0,0.0,0.0,0.0,0.0,0.0,0.0,0.0,0.0,0.0,0.0,0.0,0.0,0.0,0.0,0.0,0.0,0.0,0.0,0.0,0.0,0.0,0.3128,0.3332,0.3564,0.3589,0.357,0.3521,0.3466,0.3248,0.2809,0.2515,0.0,0.0,0.0,0.0,0.0,0.0,0.0,0.0,0.0,0.0,0.0,0.0,0.0,0.0,0.0,0.0,0.0,0.0,0.0,0.0,0.0,0.0,0.0,0.0,0.0,0.0,0.0,0.0,0.0,0.0,0.0,0.0,0.0,0.0,0.0,0.0,0.0,0.0,0.0,0.0,0.0,0.0,0.0,0.0,0.0,0.0,0.0,0.0,0.0,0.0,0.0,0.0,0.0,0.0,0.0,0.0,0.0,0.0,0.0,0.0,0.0,0.0,0.0,0.0,0.0,0.0,0.0,0.0,0.0,0.0,0.0,0.0,0.0,0.0,0.0,0.0,0.0,0.0,0.0,0.0,0.0,0.0,0.0,0.0,0.0,0.0,0.0,0.0,0.0,0.0,0.0,0.0,0.0,0.0,0.0,0.0,0.0,0.0,0.0,0.0,0.0,0.0,0.3207,0.3564,0.3586,0.3589,0.3586,0.358,0.3526,0.3289,0.2812,0.255,0.0,0.0,0.0,0.0,0.0,0.0,0.0,0.0,0.0,0.0,0.0,0.0,0.0,0.0,0.0,0.0,0.0,0.0,0.0,0.0,0.0,0.0,0.0,0.0,0.0,0.0,0.0,0.0,0.0,0.0,0.0,0.0,0.0,0.0,0.0,0.0,0.0,0.0,0.0,0.0,0.0,0.0,0.0,0.0,0.0,0.0,0.0,0.0,0.0,0.0,0.0,0.0,0.0,0.0,0.0,0.0,0.0,0.0,0.0,0.0,0.0,0.0,0.0,0.0,0.0,0.0,0.0,0.0,0.0,0.0,0.0,0.0,0.0,0.0,0.0,0.0,0.0,0.0,0.0,0.0,0.0,0.0,0.0,0.0,0.0,0.0,0.0,0.0,0.0,0.0,0.0,0.0,0.0,0.0,0.0,0.0,0.0,0.0,0.0,0.0,0.0,0.0,0.2066,0.2113,0.3456,0.3082,0.2968,0.353,0.3531,0.3394,0.3072,0.0,0.0,0.0,0.0,0.0,0.0,0.0,0.0,0.0,0.0,0.0,0.0,0.0,0.0,0.0,0.0,0.0,0.0,0.0,0.0,0.0,0.0,0.0,0.0,0.0,0.0,0.0,0.0,0.0,0.0,0.0,0.0,0.0,0.0,0.0,0.0,0.0,0.0,0.0,0.0,0.0,0.0,0.0,0.0,0.0,0.0,0.0,0.0,0.0,0.0,0.0,0.0,0.0,0.0,0.0,0.0,0.0,0.0,0.0,0.0,0.0,0.0,0.0,0.0,0.0,0.0,0.0,0.0,0.0,0.0,0.0,0.0,0.0,0.0,0.0,0.0,0.0,0.0,0.0,0.0,0.0,0.0,0.0,0.0,0.0,0.0,0.0,0.0,0.0,0.0,0.0,0.0,0.0,0.0,0.0,0.0,0.0,0.0,0.0,0.0,0.0,0.0,0.2243,0.1267,0.1068,0.2545,0.2163,0.2044,0.2713,0.2684,0.2693,0.2669,0.0,0.0,0.0,0.0,0.0,0.0,0.0,0.0,0.0,0.0,0.0,0.0,0.0,0.0,0.0,0.0,0.0,0.0,0.0,0.0,0.0,0.0,0.0,0.0,0.0,0.0,0.0,0.0,0.0,0.0,0.0,0.0,0.0,0.0,0.0,0.0,0.0,0.0,0.0,0.0,0.0,0.0,0.0,0.0,0.0,0.0,0.0,0.0,0.0,0.0,0.0,0.0,0.0,0.0,0.0,0.0,0.0,0.0,0.0,0.0,0.0,0.0,0.0,0.0,0.0,0.0,0.0,0.0,0.0,0.0,0.0,0.0,0.0,0.0,0.0,0.0,0.0,0.0,0.0,0.0,0.0,0.0,0.0,0.0,0.0,0.0,0.0,0.0,0.0,0.0,0.0,0.0,0.0,0.0,0.0,0.0,0.0,0.0,0.0,0.0,0.0,0.0,0.138,0.1007,0.0764,0.0823,0.0764,0.0818,0.0863,0.092,0.1106,0.0,0.0,0.0,0.0,0.0,0.0,0.0,0.0,0.0,0.0,0.0,0.0,0.0,0.0,0.0,0.0,0.0,0.0,0.0,0.0,0.0,0.0,0.0,0.0,0.0,0.0,0.0,0.0,0.0,0.0,0.0,0.0,0.0,0.0,0.0,0.0,0.0,0.0,0.0,0.0,0.0,0.0,0.0,0.0,0.0,0.0,0.0,0.0,0.0,0.0,0.0,0.0,0.0,0.0,0.0,0.0,0.0,0.0,0.0,0.0,0.0,0.0,0.0,0.0,0.0,0.0,0.0,0.0,0.0,0.0,0.0,0.0,0.0,0.0,0.0,0.0,0.0,0.0,0.0,0.0,0.0,0.0,0.0,0.0,0.0,0.0,0.0,0.0,0.0,0.0,0.0,0.0,0.0,0.0,0.0,0.0,0.0,0.0,0.0,0.0,0.0,0.0,0.0,0.0817,-0.0267,-0.0588,0.0647,0.0235,0.0118,0.076,0.0818,0.1126,0.1817,0.0,0.0,0.0,0.0,0.0,0.0,0.0,0.0,0.0,0.0,0.0,0.0,0.0,0.0,0.0,0.0,0.0,0.0,0.0,0.0,0.0,0.0,0.0,0.0,0.0,0.0,0.0,0.0,0.0,0.0,0.0,0.0,0.0,0.0,0.0,0.0,0.0,0.0,0.0,0.0,0.0,0.0,0.0,0.0,0.0,0.0,0.0,0.0,0.0,0.0,0.0,0.0,0.0,0.0,0.0,0.0,0.0,0.0,0.0,0.0,0.0,0.0,0.0,0.0,0.0,0.0,0.0,0.0,0.0,0.0,0.0,0.0,0.0,0.0,0.0,0.0,0.0,0.0,0.0,0.0,0.0,0.0,0.0,0.0,0.0,0.0,0.0,0.0,0.0,0.0,0.0,0.0,0.0,0.0,0.0,0.0,0.0,0.0,0.0,0.0,0.0,0.0,0.0046,-0.1092,-0.1501,-0.042,-0.078,-0.0898,-0.0297,-0.0297,0.0055,0.0872,0.0,0.0,0.0,0.0,0.0,0.0,0.0,0.0,0.0,0.0,0.0,0.0,0.0,0.0,0.0,0.0,0.0,0.0,0.0,0.0,0.0,0.0,0.0,0.0,0.0,0.0,0.0,0.0,0.0,0.0,0.0,0.0,0.0,0.0,0.0,0.0,0.0,0.0,0.0,0.0,0.0,0.0,0.0,0.0,0.0,0.0,0.0,0.0,0.0,0.0,0.0,0.0,0.0,0.0,0.0,0.0,0.0,0.0,0.0,0.0,0.0,0.0,0.0,0.0,0.0,0.0,0.0,0.0,0.0,0.0,0.0,0.0,0.0,0.0,0.0,0.0,0.0,0.0,0.0,0.0,0.0,0.0,0.0,0.0,0.0,0.0,0.0,0.0,0.0,0.0,0.0,0.0,0.0,0.0,0.0,0.0,0.0,0.0,0.0,0.0,0.0,0.0,-0.0803,-0.151,-0.1977,-0.1977,-0.1977,-0.1966,-0.1937,-0.1936,-0.1556,-0.0764,0.0,0.0,0.0,0.0,0.0,0.0,0.0,0.0,0.0,0.0,0.0,0.0,0.0,0.0,0.0,0.0,0.0,0.0,0.0,0.0,0.0,0.0,0.0,0.0,0.0,0.0,0.0,0.0,0.0,0.0,0.0,0.0,0.0,0.0,0.0,0.0,0.0,0.0,0.0,0.0,0.0,0.0,0.0,0.0,0.0,0.0,0.0,0.0,0.0,0.0,0.0,0.0,0.0,0.0,0.0,0.0,0.0,0.0,0.0,0.0,-0.1299,-0.1172,0.0,0.0,0.0,0.0,0.0,0.0,0.0,0.0,0.0,0.0,0.0,0.0,0.0,0.0,0.0,0.0,0.0,0.0,0.0,0.0,0.0,0.0,0.0,0.0,0.0,0.0,0.0,0.0,0.0,0.0,0.0,0.0,0.0,0.0,0.0,0.0,0.0,0.0,0.0,0.0,-0.1322,-0.1734,-0.1977,-0.1977,-0.1977,-0.1974,-0.1967,-0.1967,-0.1641,-0.0831,0.0493,0.0,0.0,0.0,0.0,0.0,0.0,0.0,0.0,0.0,0.0,0.0,0.0,0.0,0.0,0.0,0.0,0.0,0.0,0.0,0.0,0.0,0.0,0.0,0.0,0.0,0.0,0.0,0.0,0.0,0.0,0.0,0.0,0.0,0.0,0.0,0.0,0.0,0.0,0.0,0.0,0.0,0.0,0.0,0.0,0.0,0.0,0.0,0.0,0.0,0.0,0.0,0.0,0.0,0.0,0.0,0.0,0.0,0.0,0.0,-0.1411,-0.1339,0.0,0.0,0.0,0.0,0.0,0.0,0.0,0.0,0.0,0.0,0.0,0.0,0.0,0.0,0.0,0.0,0.0,0.0,0.0,0.0,0.0,0.0,0.0,0.0,0.0,0.0,0.0,0.0,0.0,0.0,0.0,0.0,0.0,0.0,0.0,0.0,0.0,0.0,0.0,0.0,-0.1534,-0.1798,-0.1977,-0.1977,-0.1977,-0.1977,-0.1977,-0.1977,-0.1627,-0.0738,0.0684,0.0,0.0,0.0,0.0,0.0,0.0,0.0,0.0,0.0,0.0,0.0,0.0,0.0,0.0,0.0,0.0,0.0,0.0,0.0,0.0,0.0,0.0,0.0,0.0,0.0,0.0,0.0,0.0,0.0,0.0,0.0,0.0,0.0,0.0,0.0,0.0,0.0,0.0,0.0,0.0,0.0,0.0,0.0,0.0,0.0,0.0,0.0,0.0,0.0,0.0,0.0,0.0,0.0,-0.1502,-0.1451,-0.1451,-0.1451,-0.1553,-0.1641,-0.1515,-0.152,-0.1602,-0.1401,0.0,0.0,0.0,0.0,0.0,0.0,0.0,0.0,0.0,0.0,0.0,0.0,0.0,0.0,0.0,0.0,0.0,0.0,0.0,0.0,0.0,0.0,-0.146,-0.1491,-0.1575,-0.16,-0.1426,0.0,0.0,0.0,0.0,0.0,0.0,0.0,0.0,0.0,0.0,0.0,-0.1581,-0.1819,-0.1977,-0.1977,-0.1977,-0.1977,-0.1977,-0.1852,-0.1357,-0.0555,0.1059,0.2335,0.0,0.0,0.0,0.0,0.0,0.0,0.0,0.0,0.0,0.0,0.0,0.0,0.0,0.0,0.0,0.0,0.0,0.0,0.0,0.0,0.0,0.0,0.0,0.0,0.0,0.0,0.0,0.0,0.0,0.0,0.0,0.0,-0.0264,0.0045,0.0,0.0,0.0,0.0,0.0,0.0,0.0,0.0,0.0,0.0,0.0,0.0,0.0,-0.144,-0.1486,-0.1561,-0.1613,-0.169,-0.1712,-0.1748,-0.1748,-0.1748,-0.1756,-0.1771,-0.175,0.0,-0.1614,-0.1583,0.0,0.0,0.0,0.0,0.0,0.0,0.0,0.0,0.0,0.0,0.0,0.0,0.0,0.0,0.0,0.0,0.0,0.0,0.0,0.0,0.0,0.0,-0.1763,-0.174,-0.176,-0.1764,-0.1735,-0.1525,-0.1285,-0.1276,-0.1217,-0.1145,0.0,0.0,0.0,0.0,0.0,0.0,-0.1669,-0.1857,-0.1977,-0.1977,-0.1977,-0.1977,-0.1977,-0.1172,-0.0617,-0.0493,0.2364,0.3844,0.3466,0.5086,0.0,0.0,0.0,0.0,0.0,0.0,0.0,0.0,0.0,0.0,0.0,0.0,0.0,0.0,0.0,0.0,0.0,0.0,0.0,0.0,0.0,0.0,0.0,0.0,0.0,0.0,0.0,0.0,0.0,-0.0252,-0.0178,-0.0227,-0.0087,0.0,0.0,0.0,0.0,0.0,0.0,0.0,0.0,0.0,0.0,-0.1413,-0.1529,-0.1625,-0.1708,-0.1731,-0.1749,-0.1763,-0.1785,-0.1795,-0.1795,-0.1795,-0.1795,-0.1795,-0.1795,-0.1765,-0.1712,-0.1644,-0.1554,-0.1452,0.0,0.0,0.0,0.0,-0.1363,-0.1378,-0.1487,-0.1524,-0.1516,-0.147,0.0,0.0,0.0,0.0,0.0,0.0,0.0,-0.1422,-0.1561,-0.1636,-0.1696,-0.1776,-0.1795,-0.1795,-0.1795,-0.1692,-0.157,-0.1472,-0.1404,-0.1313,-0.1189,-0.1183,0.0,0.0,0.0,-0.1636,-0.1719,-0.1874,-0.1977,-0.1977,-0.1977,-0.179,-0.1234,-0.074,0.0123,0.1602,0.3356,0.4684,0.5381,0.6182,0.6366,0.0,0.0,0.0,0.0,0.0,0.0,0.0,0.0,0.0,0.0,0.0,0.0,0.0,0.0,0.0,0.0,0.0,0.0,0.0,0.0,0.0,0.0,0.0,0.0,0.0,0.0,0.0,0.0,-0.0179,-0.014,-0.0282,-0.0186,-0.0089,0.0,0.0,0.0,0.0,0.0,0.0,-0.1025,-0.1189,-0.1389,-0.1482,-0.1671,-0.1782,-0.1873,-0.1859,-0.1851,-0.1851,-0.1829,-0.1819,-0.1819,-0.1819,-0.1819,-0.1819,-0.1819,-0.1819,-0.181,-0.1705,-0.165,-0.162,-0.1528,-0.1479,-0.1418,-0.151,-0.1575,-0.1591,-0.1708,-0.1749,-0.1742,-0.1643,-0.1609,-0.1562,-0.1405,0.0,0.0,0.0,0.0,-0.1491,-0.1626,-0.1662,-0.1685,-0.1774,-0.1795,-0.1795,-0.1795,-0.1789,-0.1753,-0.1648,-0.1592,-0.1504,-0.1365,-0.1369,0.0,-0.141,-0.1557,-0.172,-0.1767,-0.1885,-0.1964,-0.1964,-0.1973,-0.1605,-0.0555,-0.0123,0.1047,0.3264,0.4383,0.5532,0.6823,0.7013,0.6959,0.6719,0.0,0.0,0.0,0.0,0.0,0.0,0.0,0.0,0.0,0.0,0.0,0.0,0.0,0.0,0.0,0.0,0.0,0.0,0.0,0.0,0.0,0.0,0.0,0.0,0.0,0.0,0.0,0.0,0.0,-0.0053,-0.0212,0.0,0.0,0.0,0.0,-0.0872,-0.1127,-0.1267,-0.1286,-0.152,-0.1722,-0.1786,-0.1817,-0.1779,-0.1784,-0.1869,-0.1883,-0.1883,-0.1881,-0.1881,-0.1881,-0.1881,-0.1881,-0.1881,-0.1881,-0.1881,-0.1876,-0.1812,-0.1737,-0.1711,-0.1705,-0.1598,-0.1532,-0.1621,-0.1705,-0.1718,-0.1757,-0.1789,-0.1787,-0.1785,-0.1707,-0.1613,-0.1606,-0.1543,0.0,0.0,-0.1626,-0.1722,-0.1763,-0.1786,-0.1787,-0.1794,-0.1795,-0.1795,-0.1795,-0.1828,-0.1814,-0.1779,-0.1782,-0.1749,-0.1705,0.0,-0.1697,-0.1694,-0.1677,-0.1735,-0.1767,-0.1834,-0.1933,-0.1933,-0.1959,-0.1605,-0.0555,0.0985,0.2339,0.3325,0.5533,0.6823,0.6888,0.753,0.7551,0.698,0.6589,0.0,0.0,0.0,0.0,0.0,0.0,0.0,0.0,0.0,0.0,0.0,0.0,0.0,0.0,0.0,0.0,0.0,0.0,0.0,0.0,0.0,0.0,0.0,0.0,0.0,0.0,0.0,0.0,-0.0263,-0.0321,0.0,-0.0722,-0.1034,-0.121,-0.1218,-0.1494,-0.1662,-0.1691,-0.1759,-0.1831,-0.1853,-0.1864,-0.1869,-0.1869,-0.188,-0.1885,-0.1885,-0.1885,-0.1885,-0.1885,-0.1885,-0.1885,-0.1885,-0.1885,-0.1885,-0.1884,-0.1862,-0.1835,-0.1806,-0.1806,-0.1786,-0.1761,-0.1794,-0.1806,-0.181,-0.1842,-0.184,-0.1821,-0.1801,-0.1767,-0.1735,-0.1755,-0.1725,-0.1697,-0.177,-0.177,-0.1764,-0.1835,-0.1824,-0.1805,-0.1844,-0.1838,-0.1829,-0.1849,-0.1829,-0.1817,-0.1847,-0.1806,-0.1804,-0.1699,-0.1738,-0.1764,-0.1778,-0.1794,-0.1862,-0.1836,-0.1934,-0.196,-0.196,-0.197,-0.1358,0.0308,0.1416,0.2831,0.4862,0.6211,0.7072,0.7505,0.775,0.7769,0.7557,0.7426,0.6763,0.0,0.0,0.0,0.0,0.0,0.0,0.0,0.0,0.0,0.0,0.0,0.0,0.0,0.0,0.0,0.0,0.0,0.0,0.0,0.0,0.0,0.0,0.0,0.0,0.0,0.0,-0.011,-0.0369,-0.0489,-0.0701,-0.0991,-0.1312,-0.1532,-0.1532,-0.1786,-0.1902,-0.1902,-0.1902,-0.1906,-0.1917,-0.1917,-0.1921,-0.193,-0.194,-0.1945,-0.1945,-0.1936,-0.193,-0.193,-0.1921,-0.1917,-0.1917,-0.1917,-0.1917,-0.1917,-0.1917,-0.1917,-0.1914,-0.1894,-0.1885,-0.1885,-0.1885,-0.1885,-0.1884,-0.1874,-0.1857,-0.1779,-0.1817,-0.1804,-0.1801,-0.1774,-0.1827,-0.1819,-0.1859,-0.1849,-0.1835,-0.1876,-0.1855,-0.1836,-0.1876,-0.187,-0.1861,-0.1881,-0.187,-0.1858,-0.1869,-0.1821,-0.1778,-0.1767,-0.1816,-0.1842,-0.1859,-0.1864,-0.1856,-0.1736,-0.1761,-0.1777,-0.1654,-0.1662,-0.0864,0.0986,0.1891,0.3408,0.5778,0.664,0.7362,0.7867,0.7752,0.7693,0.7693,0.7693,0.7084,0.5804,0.0,0.0,0.0,0.0,0.0,0.0,0.0,0.0,0.0,0.0,0.0,0.0,0.0,0.0,0.0,0.0,0.0,0.0,0.0,0.0,0.0,0.0,0.0,0.0,0.0,-0.0109,-0.0376,-0.0727,-0.101,-0.1311,-0.1607,-0.1784,-0.1787,-0.1841,-0.1874,-0.1874,-0.1874,-0.1947,-0.1975,-0.1977,-0.1992,-0.2019,-0.205,-0.213,-0.2131,-0.2037,-0.2022,-0.202,-0.1993,-0.1979,-0.1979,-0.1979,-0.1979,-0.1979,-0.1979,-0.1978,-0.1973,-0.1911,-0.1888,-0.1888,-0.1888,-0.1888,-0.1883,-0.1851,-0.1783,-0.1783,-0.1782,-0.1819,-0.1801,-0.1774,-0.1782,-0.1782,-0.1784,-0.1862,-0.1883,-0.1885,-0.1885,-0.1884,-0.1887,-0.1887,-0.1888,-0.1888,-0.1888,-0.1879,-0.1792,-0.1786,-0.1853,-0.1881,-0.1887,-0.1888,-0.1888,-0.1888,0.0,-0.1475,-0.1376,-0.1268,-0.0965,-0.0978,-0.0308,0.1294,0.2515,0.3931,0.5774,0.6881,0.7633,0.7861,0.7535,0.7293,0.7293,0.7277,0.698,0.6398,0.0,0.0,0.0,0.0,0.0,0.0,0.0,0.0,0.0,0.0,0.0,0.0,0.0,0.0,0.0,0.0,0.0,0.0,0.0,0.0,0.0,0.0471,0.0,0.0,-0.0232,-0.0474,-0.0748,-0.1045,-0.1389,-0.1628,-0.1783,-0.1892,-0.1936,-0.1974,-0.1994,-0.1994,-0.1994,-0.1989,-0.1977,-0.1996,-0.2022,-0.205,-0.2082,-0.2108,-0.2196,-0.2121,-0.2106,-0.2084,-0.2076,-0.2061,-0.2103,-0.2103,-0.2103,-0.2103,-0.2103,-0.2027,-0.2003,-0.1966,-0.1952,-0.1952,-0.1952,-0.1937,-0.1911,-0.18,-0.1783,-0.1779,-0.1814,-0.1802,-0.1801,-0.1774,-0.1825,-0.1817,-0.1861,-0.1847,-0.1831,-0.1874,-0.1869,-0.1864,-0.1909,-0.1918,-0.1925,-0.1947,-0.1934,-0.1922,-0.1936,-0.1921,-0.1902,-0.1888,-0.1904,-0.1926,-0.1948,-0.1952,-0.183,-0.1524,-0.1468,-0.1405,-0.1269,-0.0727,-0.0121,0.0364,0.2584,0.434,0.5104,0.6836,0.7801,0.7867,0.7774,0.7725,0.7725,0.7301,0.6959,0.0,0.0,0.0,0.0,0.0,0.0,0.0,0.0,0.0,0.0,0.0,0.0,0.0,0.0,0.0,0.0,0.0,0.0,0.0,0.0,0.0,0.0,0.0279,0.0,0.0,-0.03,-0.0607,-0.0894,-0.1183,-0.1526,-0.1803,-0.1887,-0.1919,-0.1955,-0.1996,-0.2019,-0.2019,-0.2031,-0.2035,-0.2033,-0.2048,-0.2071,-0.2168,-0.212,-0.2138,-0.2223,-0.2142,-0.2127,-0.2109,-0.2095,-0.208,-0.2128,-0.2128,-0.2128,-0.2128,-0.2128,-0.2053,-0.2034,0.0,0.0,0.0,0.0,-0.1939,-0.1906,-0.1799,-0.1783,-0.178,-0.182,-0.1805,-0.1801,-0.1774,-0.1828,-0.1821,-0.1857,-0.185,-0.184,-0.1877,-0.1883,-0.1828,-0.1862,-0.1941,-0.1955,-0.1973,-0.1963,-0.1952,-0.1956,-0.1954,0.0,-0.191,-0.193,-0.1956,-0.1974,-0.1977,-0.1853,-0.1358,-0.1305,-0.118,-0.0862,-0.0371,0.0062,0.0372,0.2693,0.0,0.0,0.0,0.7752,0.7649,0.7649,0.0,0.0,0.0,0.7171,0.7247,0.6899,0.0,0.0,0.6082,0.629,0.0,0.0,0.0,0.0,0.0,0.0,0.0,0.0,0.0,0.0,0.0,0.0,0.0,0.0,0.0,0.0,0.0,0.0,0.0,-0.0306,-0.0605,-0.0845,-0.1252,-0.1595,-0.1891,-0.1858,-0.1878,-0.1945,-0.1935,-0.1965,-0.2029,-0.2054,0.0,0.0,0.0,-0.2124,-0.2221,-0.2225,-0.223,-0.2232,-0.2138,-0.2123,-0.2119,-0.2091,-0.2143,-0.2138,-0.2138,-0.2138,-0.2138,-0.2138,-0.2137,-0.2065,-0.2035,-0.2007,-0.1978,-0.1948,-0.1914,-0.1881,-0.1851,0.0,0.0,-0.1778,-0.1817,-0.1801,-0.1774,-0.1783,-0.1783,-0.1787,-0.1865,-0.1885,-0.1885,-0.1909,-0.1871,-0.1871,-0.1955,-0.1977,-0.1977,-0.1977,-0.1969,-0.1941,-0.1958,-0.1967,-0.1941,-0.1959,-0.1977,-0.1977,-0.1977,-0.1731,-0.1114,-0.1002,-0.0758,-0.0126,0.0064,0.0,0.0772,0.2759,0.4244,0.4942,0.6756,0.7665,0.739,0.7379,0.7379,0.7379,0.7369,0.7514,0.7705,0.7705,0.6969,0.5655,0.5941,0.6266,0.0,0.0,0.0,0.0,0.0,0.0,0.0,0.0,0.0,0.0,0.0,0.0,0.0,0.0,0.0,0.0,0.0,0.0,0.0,-0.0311,-0.062,-0.0847,-0.1444,-0.1802,-0.1922,-0.1645,-0.1677,-0.2034,-0.1812,-0.1765,-0.2091,-0.2097,-0.2091,-0.2074,-0.2097,-0.2124,-0.2221,-0.2178,-0.2203,-0.2228,-0.2153,0.0,-0.2183,-0.2176,-0.2161,-0.2204,-0.2204,-0.2204,-0.2204,-0.2204,-0.2123,-0.2097,-0.2067,-0.2037,-0.2007,-0.1978,-0.1933,-0.1881,-0.1851,-0.1824,-0.1804,-0.1804,-0.18,-0.1801,-0.1774,-0.1783,0.0,-0.187,-0.1881,-0.1885,-0.1885,-0.1909,-0.1871,-0.1871,-0.1955,-0.1977,-0.1977,-0.1977,-0.1975,-0.1969,-0.1973,-0.1975,-0.1969,-0.1973,-0.1977,-0.1977,-0.1977,-0.1737,-0.1068,-0.1009,-0.0821,-0.0379,0.0316,0.0507,-0.0063,0.2896,0.4611,0.4307,0.6701,0.8111,0.8,0.8,0.8,0.8,0.7964,0.7449,0.6447,0.6326,0.5577,0.4318,0.5402,0.5396,0.0,0.0,0.0,0.0,0.0,0.0,0.0,0.0,0.0,0.0,0.0,0.0555,0.0528,0.0,0.0,0.0,0.0,0.0,0.0,-0.0443,-0.0823,-0.0929,-0.1235,-0.1487,-0.1684,-0.1427,-0.1375,-0.1737,-0.1677,-0.1682,-0.2086,-0.2101,-0.2102,-0.2087,-0.2116,-0.2139,-0.2223,-0.217,-0.2185,-0.22,-0.22,-0.2192,-0.2177,-0.2177,-0.2169,-0.2223,-0.2223,-0.2223,-0.2223,-0.2223,-0.2213,-0.2131,-0.2182,-0.2064,-0.1996,-0.1982,-0.1939,-0.1884,-0.1868,-0.1853,-0.184,-0.184,-0.184,-0.1843,-0.1858,-0.1864,-0.1866,-0.1881,-0.1885,-0.1885,-0.1885,-0.1909,-0.1871,-0.1871,-0.1955,-0.1977,-0.1977,-0.1977,-0.1977,-0.1977,-0.1977,-0.1977,-0.1977,-0.1977,-0.1977,-0.1977,-0.1853,-0.1552,-0.1072,-0.0826,-0.064,-0.0258,0.0195,0.0261,-0.013,0.2799,0.4813,0.5202,0.7154,0.8296,0.8172,0.7522,0.7459,0.8172,0.6769,0.6041,0.61,0.528,0.4201,0.2991,0.3663,0.3902,0.0,0.0,0.0,0.0,0.0,0.0,0.0,0.128,0.0888,0.0861,0.0422,0.0,0.0,0.0,0.0,0.0,0.0,0.0,0.0,-0.0449,-0.0838,-0.0893,-0.1016,-0.1148,-0.1358,-0.1081,-0.108,-0.1499,-0.1486,-0.1613,-0.2089,-0.2108,-0.2119,-0.2119,-0.2142,-0.2223,-0.2223,-0.2223,-0.2223,-0.2223,-0.2223,-0.2223,-0.2223,-0.2223,-0.2223,-0.2223,-0.2223,-0.2223,-0.2223,-0.2223,-0.2218,-0.2213,-0.2213,-0.208,-0.1985,-0.1992,-0.1951,-0.1895,-0.1895,-0.1891,-0.1885,-0.1885,-0.1885,-0.1887,-0.1892,-0.1895,-0.1896,-0.1902,-0.1903,-0.1903,-0.1903,-0.1922,-0.194,-0.194,-0.1959,-0.1977,-0.1977,-0.1977,-0.1977,-0.1977,-0.1977,-0.1977,-0.1915,-0.1915,-0.1915,-0.1915,-0.1668,-0.1366,-0.0946,-0.064,-0.0389,-0.0066,0.0,0.0135,0.0404,0.2819,0.4872,0.6205,0.7656,0.8274,0.7855,0.6744,0.655,0.7394,0.511,0.4391,0.5293,0.4134,0.2845,0.1617,0.1621,0.2137,0.419,0.316,0.2136,0.1381,0.1192,0.1036,0.0,0.0169,0.011,0.0119,0.0061,0.0,0.0,0.0,0.0,0.0,0.0,0.0,0.0,-0.0065,-0.0197,-0.0525,-0.1102,-0.1359,-0.1051,-0.0729,-0.0872,-0.1568,-0.1295,-0.1431,-0.2184,-0.2162,-0.2217,-0.2217,-0.222,-0.2223,-0.2223,-0.2223,-0.2223,-0.2223,-0.2223,-0.2223,-0.2223,-0.2223,-0.2223,-0.2223,-0.2223,-0.2223,-0.2223,-0.2223,-0.2139,-0.2114,-0.2114,-0.2074,-0.2018,-0.2044,-0.2,-0.1926,-0.1926,-0.1909,-0.1885,-0.1885,-0.1885,-0.1891,-0.1918,-0.1926,-0.1932,-0.1959,-0.1966,-0.1966,-0.1966,-0.1969,-0.1971,-0.1971,-0.1974,-0.1977,-0.1977,-0.1977,-0.1977,-0.1977,-0.1977,-0.1915,-0.1606,-0.1544,-0.1544,-0.1544,-0.1543,-0.1242,-0.0631,-0.0512,-0.0389,-0.0066,0.0,0.0538,0.1748,0.3356,0.4894,0.6293,0.7764,0.7959,0.6681,0.6481,0.5878,0.4742,0.4289,0.3544,0.2558,0.2298,0.151,0.0197,0.02,0.033,0.303,0.2313,0.1577,0.0685,0.0479,0.038,0.0058,0.0,0.0,0.0,0.0,0.0,0.0,0.0,0.0,0.0,0.0,0.0,0.0,-0.0198,-0.0268,-0.0202,-0.0605,-0.0872,-0.0742,-0.0404,-0.0408,-0.0903,-0.1035,-0.1311,-0.1877,-0.206,-0.2181,-0.2181,-0.2231,-0.2231,-0.2181,-0.2231,-0.2231,-0.2181,-0.2231,-0.2223,-0.2223,-0.2223,-0.2223,-0.2223,-0.2223,-0.2223,-0.222,-0.2135,-0.2121,-0.2108,-0.209,-0.2057,-0.202,-0.2033,-0.2004,-0.1958,-0.1958,-0.1949,-0.1939,-0.1939,-0.1939,-0.1941,-0.1954,-0.1958,-0.196,-0.1973,-0.1977,-0.1977,-0.1977,-0.1977,-0.1977,-0.1977,-0.1977,-0.1977,-0.1977,-0.1977,-0.1977,-0.1977,-0.1853,-0.1668,-0.1543,-0.1358,-0.1173,-0.0926,-0.0926,-0.0807,-0.0567,-0.0317,-0.0129,0.0,0.0,0.0269,0.0807,0.2217,0.3291,0.3828,0.5299,0.5834,0.5232,0.4364,0.4026,0.4294,0.2605,0.1866,0.2066,0.1266,0.0533,0.0,0.0,0.0,0.1775,0.1329,0.0987,0.0167,0.0,0.0,0.0,0.0,0.0,0.0,0.0,0.0,0.0,0.0,0.0,0.0,0.0,0.0,0.0,-0.0201,-0.0272,0.0,-0.0208,-0.0347,-0.0347,-0.0138,-0.0138,-0.0495,-0.0771,-0.1185,-0.1683,-0.194,-0.2059,-0.2188,-0.2234,-0.2169,-0.22,-0.2178,-0.2178,-0.22,-0.2177,-0.223,-0.2223,-0.2223,-0.2223,-0.2223,-0.2223,-0.2223,-0.222,-0.2131,-0.2117,-0.2106,-0.2076,-0.2045,-0.2018,-0.2009,-0.1994,-0.1977,-0.1977,-0.1977,-0.1977,-0.1977,-0.1977,-0.1977,-0.1977,-0.1977,-0.1977,-0.1977,-0.1977,-0.1977,-0.1977,-0.1977,-0.1977,-0.1977,-0.1977,-0.1977,-0.1977,-0.1977,-0.1977,-0.1977,-0.1791,-0.1606,-0.142,-0.1173,-0.0864,-0.0432,-0.037,-0.0372,-0.0376,-0.0126,0.0,0.0,0.0,0.0,0.0,0.1277,0.2084,0.2084,0.349,0.4093,0.3691,0.2687,0.2418,0.3088,0.1076,0.0471,0.1546,0.0471,0.0,0.0,0.0,0.0,0.0397,0.0052,0.0055,0.0,0.0,0.0,0.0,0.0,0.0,0.0,0.0,0.0,0.0,0.0,0.0,0.0,0.0,0.0,0.0,0.0,0.0,0.0,0.0,0.0,0.0,0.0,-0.0144,-0.0583,-0.0576,-0.0853,-0.1685,-0.1662,-0.1776,-0.2157,-0.2223,-0.2169,-0.22,-0.2199,-0.2199,-0.22,-0.2199,-0.2184,-0.2223,-0.2223,-0.2223,-0.2223,-0.2223,-0.2223,-0.2223,-0.2221,-0.2136,-0.2106,-0.2076,-0.2045,-0.2015,-0.1988,-0.1977,-0.1977,-0.1977,-0.1977,-0.1977,-0.1977,-0.1977,-0.1977,-0.1977,-0.1977,-0.1977,-0.1977,-0.1977,-0.1977,-0.1977,-0.1977,-0.1977,-0.1977,-0.1977,-0.1977,-0.1977,-0.1977,-0.1977,-0.1977,-0.1977,-0.1791,-0.1111,-0.0988,-0.0803,-0.0123,0.0,0.0,0.0,0.0,0.0,0.0,0.0,0.0,0.0,0.1277,0.2084,0.2084,0.349,0.3624,0.2218,0.2151,0.1479,0.0135,0.0067,0.0,0.0067,0.0,0.0,0.0,0.0,0.0,0.0106,0.0,0.0,0.0,0.0,0.0,0.0,0.0,0.0,0.0,0.0,0.0,0.0,0.0,0.0,0.0,0.0,0.0,0.0,0.0,0.0,0.0,0.0,0.0,0.0,0.0,-0.0073,-0.0219,-0.0436,-0.0651,-0.0937,-0.1423,-0.1762,-0.1895,-0.2086,-0.2229,-0.226,-0.224,-0.224,-0.226,-0.224,-0.2214,-0.2185,-0.2185,-0.2174,-0.2223,-0.2223,-0.2223,-0.222,-0.2133,-0.2119,-0.2106,-0.2076,-0.2057,-0.2048,-0.2038,-0.2034,-0.2029,-0.199,-0.1977,-0.1977,-0.1977,-0.1977,-0.1977,-0.1977,-0.1977,-0.1977,-0.1977,-0.1977,-0.1977,-0.1977,-0.1977,-0.1977,-0.1977,-0.1977,-0.1977,-0.1977,-0.1977,-0.1977,-0.1977,-0.1668,-0.1235,-0.105,-0.0623,-0.0252,-0.0064,0.0,0.0,0.0,0.0,0.0,0.0,0.0,0.0,0.0,0.0404,0.074,0.074,0.1143,0.121,0.074,0.074,0.0471,0.0,0.0,0.0,0.0,0.0,0.0,0.0,0.0,0.0,0.0,0.0,0.0,0.0,0.0,0.0,0.0,0.0,0.0,0.0,0.0,0.0,0.0,0.0,0.0,0.0,0.0,0.0,0.0,0.0,0.0,0.0,0.0,0.0,0.0,0.0,0.0,0.0,-0.0219,-0.0437,-0.058,-0.1145,-0.1567,-0.1718,-0.2048,-0.227,-0.2322,-0.2292,-0.2281,-0.229,-0.226,-0.2166,-0.2217,-0.2217,-0.2206,-0.2187,-0.2187,-0.2181,-0.2169,-0.215,-0.2135,-0.2123,-0.2091,-0.208,-0.2079,-0.2133,-0.2128,-0.2121,-0.2008,-0.1992,-0.199,-0.1979,-0.1977,-0.1977,-0.1977,-0.1977,-0.1977,-0.1977,-0.1977,-0.1977,-0.1977,-0.1977,-0.1979,-0.1989,-0.1992,-0.1992,-0.1992,-0.193,-0.1805,-0.1805,-0.1369,-0.0936,-0.0815,-0.0381,0.0,0.0,0.0,0.0,0.0,0.0,0.0,0.0,0.0,0.0,0.0,0.0,0.0,0.0,0.0,0.0,0.0,0.0,0.0,0.0,0.0,0.0,0.0,0.0,0.0,0.0,0.0,0.0,0.0,0.0,0.0,0.0,0.0,0.0,0.0,0.0,0.0,0.0,0.0,0.0,0.0,0.0,0.0,0.0,0.0,0.0,0.0,0.0,0.0,0.0,0.0,0.0,0.0,0.0,0.0,0.0,0.0,-0.0145,-0.0502,-0.0849,-0.1272,-0.1717,-0.2051,-0.2288,-0.2371,-0.2346,-0.2319,-0.2293,-0.2266,-0.218,-0.2178,-0.2178,-0.2176,-0.2175,-0.2175,-0.2229,-0.2203,-0.2203,-0.2184,-0.2221,-0.2125,-0.2113,-0.2108,-0.2079,-0.2133,-0.2064,-0.2034,-0.202,-0.2014,-0.1988,-0.1978,-0.1978,-0.1977,-0.1978,-0.1981,-0.1979,-0.1978,-0.1978,-0.1978,-0.1978,-0.1984,-0.2012,-0.2019,-0.1956,-0.202,-0.1705,-0.1452,-0.1515,-0.1201,-0.0891,-0.0516,-0.0196,0.0,0.0,0.0,0.0,0.0,0.0,0.0,0.0,0.0,0.0,0.0,0.0,0.0,0.0,0.0,0.0,0.0,0.0,0.0,0.0,0.0,0.0,0.0,0.0,0.0,0.0,0.0,0.0,0.0,0.0,0.0,0.0,0.0,0.0,0.0,0.0,0.0,0.0,0.0,0.0,0.0,0.0,0.0,0.0,0.0,0.0,0.0,0.0,0.0,0.0,0.0,0.0,0.0,0.0,0.0,0.0,0.0,-0.0146,-0.0581,-0.0932,-0.1284,-0.1718,-0.2069,-0.2279,-0.2279,-0.2315,-0.233,-0.2322,-0.2337,-0.2322,-0.2279,-0.2279,-0.2267,-0.2175,-0.2175,-0.2171,-0.2234,-0.2234,-0.2215,-0.2188,-0.218,-0.2163,-0.2142,-0.2202,-0.2199,-0.2193,-0.2097,-0.2056,-0.2018,-0.2009,-0.2008,-0.2004,-0.1982,-0.2007,-0.2037,-0.2015,-0.2008,-0.2008,-0.2008,-0.1992,-0.1984,-0.2012,-0.1829,-0.1708,-0.1984,-0.1603,-0.1218,-0.1475,-0.1036,-0.0524,-0.0199,-0.0067,0.0,0.0,0.0,0.0,0.0,0.0,0.0,0.0,0.0,0.0,0.0,0.0,0.0,0.0,0.0,0.0,0.0,0.0,0.0,0.0,0.0,0.0,0.0,0.0,0.0,0.0,0.0,0.0,0.0,0.0,0.0,0.0,0.0,0.0,0.0,0.0,0.0,0.0,0.0,0.0,0.0,0.0,0.0,0.0,0.0,0.0,0.0,0.0,0.0,0.0,0.0,0.0,0.0,0.0,0.0,0.0,0.0,-0.0073,-0.0292,-0.0793,-0.1223,-0.1455,-0.2027,-0.2308,-0.2304,-0.2337,-0.2346,-0.2333,-0.235,-0.2341,-0.2309,-0.2309,-0.23,-0.2212,-0.2212,-0.2277,-0.2266,-0.2266,-0.2248,-0.2221,-0.2234,-0.2221,-0.2196,-0.221,-0.2206,-0.2192,-0.2174,-0.2138,-0.2091,-0.2052,-0.2038,-0.2035,-0.2019,-0.2102,-0.206,-0.2044,-0.2038,-0.2035,-0.2022,-0.1881,-0.1752,-0.1777,-0.1529,-0.1343,-0.1557,-0.1178,-0.079,-0.0861,-0.0534,-0.0202,0.0,0.0,0.0,0.0,0.0,0.0,0.0,0.0,0.0,0.0,0.0,0.0,0.0,0.0,0.0,0.0,0.0,0.0,0.0,0.0,0.0,0.0,0.0,0.0,0.0,0.0,0.0,0.0,0.0,0.0,0.0,0.0,0.0,0.0,0.0,0.0,0.0,0.0,0.0,0.0,0.0,0.0,0.0,0.0,0.0,0.0,0.0,0.0,0.0,0.0,0.0,0.0,0.0,0.0,0.0,0.0,0.0,0.0,0.0,0.0,-0.0073,-0.072,-0.1153,-0.1327,-0.1973,-0.2343,-0.2378,-0.2378,-0.2365,-0.2338,-0.2338,-0.2337,-0.2333,-0.2333,-0.2333,-0.2333,-0.2333,-0.2319,-0.2296,-0.2296,-0.2278,-0.2184,-0.2285,-0.2275,-0.2179,-0.2279,-0.2271,-0.2175,-0.2175,-0.2229,-0.2192,-0.2105,-0.2141,-0.214,-0.2071,-0.2137,-0.2141,-0.2141,-0.2138,-0.2064,-0.1973,-0.1711,-0.146,-0.1418,-0.1164,-0.0974,-0.0988,-0.0735,-0.0407,-0.0069,0.0,0.0,0.0,0.0,0.0,0.0,0.0,0.0,0.0,0.0,0.0,0.0,0.0,0.0,0.0,0.0,0.0,0.0,0.0,0.0,0.0,0.0,0.0,0.0,0.0,0.0,0.0,0.0,0.0,0.0,0.0202,0.027,0.0,0.0,0.0,0.0,0.0,0.0,0.0,0.0,0.0,0.0,0.0,0.0,0.0,0.0,0.0,0.0,0.0,0.0,0.0,0.0,0.0,0.0,0.0,0.0,0.0,0.0,0.0,0.0,0.0,-0.0144,-0.0511,-0.0856,-0.1411,-0.1985,-0.2216,-0.2324,-0.2378,-0.2378,-0.2375,-0.2371,-0.2371,-0.2357,-0.2333,-0.2333,-0.2333,-0.2333,-0.2333,-0.233,-0.2326,-0.2326,-0.2308,-0.2286,-0.2315,-0.2293,-0.2179,-0.2279,-0.2271,-0.2175,-0.2175,-0.2171,-0.2226,-0.2161,-0.2206,-0.22,-0.2109,-0.2119,-0.2206,-0.2206,-0.2121,-0.2034,-0.1767,-0.1555,-0.1418,-0.1178,-0.0853,-0.0659,-0.1003,-0.0746,-0.0414,-0.0071,0.0,0.0,0.0,0.0,0.0,0.0,0.0,0.0,0.0,0.0,0.0,0.0,0.0,0.0,0.0,0.0,0.0,0.0,0.0,0.0,0.0,0.0,0.0,0.0,0.0,0.0,0.0,0.0,0.0,0.0,0.1225,0.1768,0.0,0.0,0.0,0.0,0.0,0.0,0.0,0.0,0.0,0.0,0.0,0.0,0.0,0.0,0.0,0.0,0.0,0.0,0.0,0.0,0.0,0.0,0.0,0.0,0.0,0.0,0.0,0.0,0.0,-0.0073,-0.0295,-0.0869,-0.1504,-0.2219,-0.2305,-0.2326,-0.2354,-0.2354,-0.2354,-0.2354,-0.2354,-0.2346,-0.2333,-0.2333,-0.2333,-0.2333,-0.2333,-0.2333,-0.2333,-0.2333,-0.2324,-0.2316,-0.2345,-0.233,-0.2294,-0.2324,-0.2318,-0.2219,-0.2219,-0.2219,-0.2283,-0.224,-0.2215,-0.2199,-0.2184,-0.2191,-0.2202,-0.2202,-0.2054,-0.1836,-0.162,-0.1273,-0.0935,-0.0807,-0.0474,-0.0273,-0.0481,-0.0346,-0.021,0.0,0.0,0.0,0.0,0.0,0.0,0.0,0.0,0.0,0.0,0.0,0.0,0.0,0.0,0.0,0.0,0.0,0.0,0.0,0.0,0.0,0.0,0.0,0.0,0.0,0.0,0.0,0.0,0.0,0.0408,0.1224,0.1916,0.2598,0.0,0.0,0.0,0.0,0.0,0.0,0.0,0.0,0.0,0.0,0.0,0.0,0.0,0.0,0.0,0.0,0.0,0.0,0.0,0.0,0.0,0.0,0.0,0.0,0.0,0.0,0.0,0.0,0.0,-0.0074,-0.0221,-0.0879,-0.1528,-0.2243,-0.2326,-0.2333,-0.2333,-0.2327,-0.233,-0.2342,-0.233,-0.2327,-0.2333,-0.2333,-0.2333,-0.2333,-0.2333,-0.2333,-0.2333,-0.2333,-0.2333,-0.2335,-0.2367,-0.236,-0.2337,-0.2367,-0.2358,-0.2333,-0.2333,-0.2333,-0.233,-0.2307,-0.2279,-0.2255,-0.2255,-0.218,-0.2176,-0.2183,-0.1968,-0.168,-0.1523,-0.0966,-0.0483,-0.0414,-0.0209,0.0,0.0,0.0,0.0,0.0,0.0,0.0,0.0,0.0,0.0,0.0,0.0,0.0,0.0,0.0,0.0,0.0,0.0,0.0,0.0,0.0,0.0,0.0,0.0,0.0,0.0,0.0,0.0,0.0,0.0,0.0,0.0,0.0273,0.1092,0.2344,0.2886,0.3844,0.0,0.0,0.0,0.0,0.0,0.0,0.0,0.0,0.0,0.0,0.0,0.0,0.0,0.0,0.0,0.0,0.0,0.0,0.0,0.0,0.0,0.0,0.0,0.0,0.0,0.0,0.0,0.0,0.0,-0.0295,-0.0935,-0.1161,-0.1516,-0.2184,-0.2233,-0.2333,-0.2333,-0.2308,-0.2322,-0.2373,-0.232,-0.2308,-0.2333,-0.2333,-0.2333,-0.2333,-0.2333,-0.2333,-0.2333,-0.2333,-0.2333,-0.2335,-0.2367,-0.236,-0.2337,-0.2367,-0.2358,-0.2333,-0.2333,-0.2333,-0.2333,-0.233,-0.2309,-0.2286,-0.2286,-0.2267,-0.218,-0.2279,-0.1983,-0.1613,-0.1261,-0.084,-0.042,-0.014,0.0,0.0,0.0,0.0,0.0,0.0,0.0,0.0,0.0,0.0,0.0,0.0,0.0,0.0,0.0,0.0,0.0,0.0,0.0,0.0,0.0,0.0,0.0,0.0,0.0,0.0,0.0,0.0,0.0,0.0,0.0,0.0,0.0,0.1258,0.2025,0.2374,0.4893,0.6206,0.0,0.0,0.0,0.0,0.0,0.0,0.0,0.0,0.0,0.0,0.0,0.0,0.0,0.0,0.0,0.0,0.0,0.0,0.0,0.0,0.0,0.0,0.0,0.0,0.0,0.0,0.0,0.0,0.0,-0.022,-0.0797,-0.1019,-0.1525,-0.2227,-0.232,-0.2333,-0.2333,-0.2322,-0.2328,-0.235,-0.2327,-0.2322,-0.2333,-0.2333,-0.2333,-0.2333,-0.2333,-0.2323,-0.2309,-0.2326,-0.2323,-0.2311,-0.2339,-0.2343,-0.2334,-0.2346,-0.2343,-0.2333,-0.2333,-0.2333,-0.2333,-0.2333,-0.2324,-0.2316,-0.2316,-0.2308,-0.2228,-0.2023,-0.1731,-0.1293,-0.0934,-0.0503,-0.0144,0.0,0.0,0.0,0.0,0.0,0.0,0.0,0.0,0.0,0.0,0.0,0.0,0.0,0.0,0.0,0.0,0.0,0.0,0.0,0.0,0.0,0.0,0.0,0.0,0.0,0.0,0.0,0.0,0.0,0.0,0.0,0.0,0.0,0.0,0.1396,0.265,0.3822,0.5723,0.7191,0.0,0.0,0.0,0.0,0.0,0.0,0.0,0.0,0.0,0.0,0.0,0.0,0.0,0.0,0.0,0.0,0.0,0.0,0.0,0.0,0.0,0.0,0.0,0.0,0.0,0.0,0.0,0.0,0.0,-0.0146,-0.0584,-0.0949,-0.1456,-0.2103,-0.2248,-0.232,-0.232,-0.2311,-0.2316,-0.2333,-0.2324,-0.2324,-0.2333,-0.2333,-0.2333,-0.2333,-0.2333,-0.2322,-0.2305,-0.2324,-0.2322,-0.2305,-0.2324,-0.2333,-0.2333,-0.2333,-0.2333,-0.2333,-0.2333,-0.2333,-0.2333,-0.2333,-0.2333,-0.2333,-0.2333,-0.226,-0.2114,-0.1895,-0.1459,-0.0949,-0.0511,-0.0219,0.0,0.0,0.0,0.0,0.0,0.0,0.0,0.0,0.0,0.0,0.0,0.0,0.0,0.0,0.0,0.0,0.0,0.0,0.0,0.0,0.0,0.0,0.0,0.0,0.0,0.0,0.0,0.0,0.0,0.0,0.0,0.0,0.0,0.0216,0.0719,0.2099,0.3636,0.5379,0.6737,0.796,0.0,0.0,0.0,0.0,0.0,0.0,0.0,0.0,0.0,0.0,0.0,0.0,0.0,0.0,0.0,0.0,0.0,0.0,0.0,0.0,0.0,0.0,0.0,0.0,0.0,0.0,0.0,0.0,0.0,-0.0146,-0.0584,-0.0949,-0.1379,-0.1719,-0.2076,-0.2292,-0.2292,-0.2262,-0.2204,-0.2333,-0.2304,-0.2305,-0.2333,-0.2333,-0.2333,-0.2333,-0.2333,-0.2333,-0.2333,-0.2333,-0.2333,-0.2333,-0.2333,-0.2333,-0.2333,-0.2333,-0.2333,-0.2333,-0.2333,-0.2333,-0.2333,-0.2333,-0.2333,-0.2333,-0.2333,-0.2041,-0.1822,-0.1822,-0.124,-0.0511,-0.0146,0.0,0.0,0.0,0.0,0.0,0.0,0.0,0.0,0.0,0.0,0.0,0.0,0.0,0.0,0.0,0.0,0.0,0.0,0.0,0.0,0.0,0.0,0.0,0.0,0.0,0.0,0.0,0.0,0.0,0.0,0.0,0.0,0.0,0.0,0.0729,0.2256,0.3612,0.5174,0.697,0.8238,0.8774,0.0,0.0,0.0,0.0,0.0,0.0,0.0,0.0,0.0,0.0,0.0,0.0,0.0,0.0,0.0,0.0,0.0,0.0,0.0,0.0,0.0,0.0,0.0,0.0,0.0,0.0,0.0,0.0,0.0,-0.0073,-0.0219,-0.0584,-0.1092,-0.1739,-0.2102,-0.2319,-0.2319,-0.2309,-0.2315,-0.2333,-0.2323,-0.2324,-0.2333,-0.2333,-0.2333,-0.2333,-0.2333,-0.2322,-0.2305,-0.2324,-0.2322,-0.2305,-0.2326,-0.2333,-0.2333,-0.2333,-0.2333,-0.2333,-0.2333,-0.2333,-0.2333,-0.2333,-0.2114,-0.1968,-0.1968,-0.1895,-0.1677,-0.1167,-0.0584,-0.0146,0.0,0.0,0.0,0.0,0.0,0.0,0.0,0.0,0.0,0.0,0.0,0.0,0.0,0.0,0.0,0.0,0.0,0.0,0.0,0.0,0.0,0.0,0.0,0.0,0.0,0.0,0.0,0.0,0.0,0.0,0.0,0.0,0.0,0.0,0.0,0.0726,0.2155,0.3703,0.5739,0.8283,0.8665,0.8851,0.0,0.0,0.0,0.0,0.0,0.0,0.0,0.0,0.0,0.0,0.0,0.0,0.0,0.0,0.0,0.0,0.0,0.0,0.0,0.0,0.0,0.0,0.0,0.0,0.0,0.0,0.0,0.0,0.0,0.0,0.0,-0.0365,-0.0802,-0.1312,-0.1822,-0.2187,-0.2333,-0.2333,-0.2333,-0.2333,-0.2333,-0.2333,-0.2333,-0.2333,-0.2333,-0.2333,-0.2333,-0.2323,0.0,-0.2326,-0.2322,-0.2308,-0.2326,-0.2333,-0.2333,-0.2333,-0.2333,-0.2333,-0.2333,-0.2333,-0.2333,-0.2333,-0.2041,-0.175,-0.1458,-0.1312,-0.124,-0.0584,-0.0219,0.0,0.0,0.0,0.0,0.0,0.0,0.0,0.0,0.0,0.0,0.0,0.0,0.0,0.0,0.0,0.0,0.0,0.0,0.0,0.0,0.0,0.0,0.0,0.0,0.0,0.0,0.0,0.0,0.0,0.0,0.0,0.0,0.0,0.0,0.0,0.0583,0.1596,0.3092,0.522,0.7138,0.8883,0.8863,0.8889,0.0,0.0,0.0,0.0,0.0,0.0,0.0,0.0,0.0,0.0,0.0,0.0,0.0,0.0,0.0,0.0,0.0,0.0,0.0,0.0,0.0,0.0,0.0,0.0,0.0,0.0,0.0,0.0,0.0,0.0,0.0,-0.0365,-0.0584,-0.0584,-0.1312,-0.1895,-0.226,-0.226,-0.2333,-0.2333,-0.2333,-0.2333,-0.2333,-0.2333,-0.2333,-0.2333,-0.2333,-0.2333,-0.2333,-0.2333,-0.2333,-0.2333,-0.2333,-0.2333,-0.2333,-0.2333,-0.2333,-0.2333,-0.2333,-0.226,-0.226,-0.2187,-0.1968,-0.1604,-0.0802,-0.0584,-0.0511,-0.0146,0.0,0.0,0.0,0.0,0.0,0.0,0.0,0.0,0.0,0.0,0.0,0.0,0.0,0.0,0.0,0.0,0.0,0.0,0.0,0.0,0.0,0.0,0.0,0.0,0.0,0.0,0.0,0.0,0.0,0.0,0.0,0.0,0.0,0.0,0.0,0.0,0.1599,0.3266,0.486,0.7651,0.8981,0.8774,0.8878,0.8867,0.0,0.0,0.0,0.0,0.0,0.0,0.0,0.0,0.0,0.0,0.0,0.0,0.0,0.0,0.0,0.0,0.0,0.0,0.0,0.0,0.0,0.0,0.0,0.0,0.0,0.0,0.0,0.0,0.0,0.0,0.0,-0.0073,-0.0292,-0.0584,-0.0802,-0.124,-0.1895,-0.2187,-0.2333,-0.2333,-0.2333,-0.2333,-0.2333,-0.2333,-0.2333,-0.2333,-0.2333,-0.2333,-0.2333,-0.2333,-0.2333,-0.2333,-0.2333,-0.2333,-0.2333,-0.2333,-0.2333,-0.2333,-0.2333,-0.2114,-0.1822,-0.1167,-0.0948,-0.0802,-0.0292,-0.0365,-0.0511,-0.0146,0.0,0.0,0.0,0.0,0.0,0.0,0.0,0.0,0.0,0.0,0.0,0.0,0.0,0.0,0.0,0.0,0.0,0.0,0.0,0.0,0.0,0.0,0.0,0.0,0.0,0.0,0.0,0.0,0.0,0.0,0.0,0.0,0.0,0.0,0.0,0.0,0.2499,0.4586,0.6133,0.7854,0.8736,0.8769,0.8704,0.8655,0.0,0.0,0.0,0.0,0.0,0.0,0.0,0.0,0.0,0.0,0.0,0.0,0.0,0.0,0.0,0.0,0.0,0.0,0.0,0.0,0.0,0.0,0.0,0.0,0.0,0.0,0.0,0.0,0.0,0.0,0.0,0.0,-0.0073,-0.0292,-0.0511,-0.0875,-0.1532,-0.1895,-0.2041,-0.2041,-0.226,-0.2333,-0.2333,-0.2333,-0.2333,-0.2333,-0.2333,-0.2333,-0.2333,-0.2333,-0.2333,-0.2333,-0.2333,-0.2333,-0.2333,-0.2333,-0.2333,-0.2333,-0.2333,-0.2114,-0.1677,-0.0875,-0.0584,-0.0511,-0.0146,-0.0146,-0.0292,-0.0073,0.0,0.0,0.0,0.0,0.0,0.0,0.0,0.0,0.0,0.0,0.0,0.0,0.0,0.0,0.0,0.0,0.0,0.0,0.0,0.0,0.0,0.0,0.0,0.0,0.0,0.0,0.0,0.0,0.0,0.0,0.0,0.0,0.0,0.0,0.0655,0.2022,0.4264,0.617,0.7617,0.8324,0.8677,0.8682,0.8617,0.859,0.0,0.0,0.0,0.0,0.0,0.0,0.0,0.0,0.0,0.0,0.0,0.0,0.0,0.0,0.0,0.0,0.0,0.0,0.0,0.0,0.0,0.0,0.0,0.0,0.0,0.0,0.0,0.0,0.0,0.0,0.0,0.0,0.0,0.0,-0.0365,-0.0657,-0.1022,-0.1531,-0.1822,-0.1822,-0.2114,-0.2333,-0.2333,-0.2333,-0.2333,-0.2333,-0.2333,-0.2333,-0.2333,-0.2333,-0.2333,-0.2333,-0.2333,-0.2333,-0.2333,-0.2333,-0.2333,-0.226,-0.2187,-0.1895,-0.1458,-0.0729,-0.0511,-0.0438,-0.0073,0.0,0.0,0.0,0.0,0.0,0.0,0.0,0.0,0.0,0.0,0.0,0.0,0.0,0.0,0.0,0.0,0.0,0.0,0.0,0.0,0.0,0.0,0.0,0.0,0.0,0.0,0.0,0.0,0.0,0.0,0.0,0.0,0.0,0.0,0.0073,0.0365,0.0365,0.1736,0.4766,0.6111,0.7436,0.8742,0.8742,0.8687,0.859,0.859,0.859,0.0,0.0,0.0,0.0,0.0,0.0,0.0,0.0,0.0,0.0,0.0,0.0,0.0,0.0,0.0,0.0,0.0,0.0,0.0,0.0,0.0,0.0,0.0,0.0,0.0,0.0,0.0,0.0,0.0,0.0,0.0,0.0,0.0,0.0,-0.0073,-0.0146,-0.0219,-0.1239,-0.1822,-0.1822,-0.2114,-0.2333,-0.2333,-0.2333,-0.2333,-0.2333,-0.2333,-0.2333,-0.2333,-0.2333,-0.2333,-0.2333,-0.2333,-0.2333,-0.2333,-0.2333,-0.2333,-0.2187,-0.1605,-0.1094,-0.0729,-0.0219,-0.0073,-0.0073,0.0,0.0,0.0,0.0,0.0,0.0,0.0,0.0,0.0,0.0,0.0,0.0,0.0,0.0,0.0,0.0,0.0,0.0,0.0,0.0,0.0,0.0,0.0,0.0,0.0,0.0,0.0,0.0,0.0,0.0,0.0,0.0,0.0,0.0,0.0,0.0583,0.1893,0.1966,0.3309,0.624,0.6516,0.7259,0.8617,0.8617,0.8606,0.859,0.859,0.859,0.0,0.0,0.0,0.0,0.0,0.0,0.0,0.0,0.0,0.0,0.0,0.0,0.0,0.0,0.0,0.0,0.0,0.0,0.0,0.0,0.0,0.0,0.0,0.0,0.0,0.0,0.0,0.0,0.0,0.0,0.0,0.0,0.0,0.0,0.0,0.0,0.0,-0.0948,-0.1459,-0.1459,-0.2041,-0.2333,-0.2333,-0.2333,-0.2333,-0.2333,-0.2333,-0.2333,-0.2333,-0.2333,-0.2333,-0.2333,-0.2333,-0.2333,-0.2333,-0.2333,-0.2187,-0.1968,-0.1386,-0.0949,-0.0511,-0.0146,0.0,0.0,0.0,0.0,0.0,0.0,0.0,0.0,0.0,0.0,0.0,0.0,0.0,0.0,0.0,0.0,0.0,0.0,0.0,0.0,0.0,0.0,0.0,0.0,0.0,0.0,0.0,0.0,0.0,0.0,0.0,0.0,0.0,0.0,0.0,0.0,0.0,0.0654,0.2161,0.3023,0.4406,0.6432,0.7328,0.8078,0.859,0.859,0.859,0.859,0.859,0.859,0.0,0.0,0.0,0.0,0.0,0.0,0.0,0.0,0.0,0.0,0.0,0.0,0.0,0.0,0.0,0.0,0.0,0.0,0.0,0.0,0.0,0.0,0.0,0.0,0.0,0.0,0.0,0.0,0.0,0.0,0.0,0.0,0.0,0.0,0.0,0.0,0.0,-0.073,-0.1095,-0.1241,-0.1969,-0.2333,-0.2333,-0.2333,-0.2333,-0.2333,-0.2333,-0.2333,-0.2333,-0.2333,-0.2333,-0.2333,-0.2333,-0.2333,-0.2333,-0.2333,-0.2041,-0.1604,-0.1313,-0.0876,-0.0438,-0.0073,0.0,0.0,0.0,0.0,0.0,0.0,0.0,0.0,0.0,0.0,0.0,0.0,0.0,0.0,0.0,0.0,0.0,0.0,0.0,0.0,0.0,0.0,0.0,0.0,0.0,0.0,0.0,0.0,0.0,0.0,0.0,0.0,0.0,0.0,0.0,0.0,0.0,0.0797,0.257,0.3852,0.5283,0.6923,0.8151,0.8709,0.859,0.859,0.859,0.859,0.859,0.859,0.0,0.0,0.0,0.0,0.0,0.0,0.0,0.0,0.0,0.0,0.0,0.0,0.0,0.0,0.0,0.0,0.0,0.0,0.0,0.0,0.0,0.0,0.0,0.0,0.0,0.0,0.0,0.0,0.0,0.0,0.0,0.0,0.0,0.0,0.0,0.0,0.0,-0.0438,-0.0803,-0.1241,-0.1969,-0.2333,-0.2333,-0.2333,-0.2333,-0.2333,-0.2333,-0.2333,-0.2333,-0.2333,-0.2333,-0.2333,-0.2333,-0.2333,-0.2333,-0.2333,-0.1824,-0.1241,-0.1241,-0.0657,-0.0073,0.0,0.0,0.0,0.0,0.0,0.0,0.0,0.0,0.0,0.0,0.0,0.0,0.0,0.0,0.0,0.0,0.0,0.0,0.0,0.0,0.0,0.0,0.0,0.0,0.0,0.0,0.0,0.0,0.0,0.0,0.0,0.0,0.0,0.0,0.0,0.0,0.0,0.0,0.1305,0.4211,0.4424,0.5775,0.857,0.8769,0.8709,0.859,0.859,0.859,0.859,0.859,0.859,0.0,0.0,0.0,0.0,0.0,0.0,0.0,0.0,0.0,0.0,0.0,0.0,0.0,0.0,0.0,0.0,0.0,0.0,0.0,0.0,0.0,0.0,0.0,0.0,0.0,0.0,0.0,0.0,0.0,0.0,0.0,0.0,0.0,0.0,0.0,0.0,0.0,-0.0365,-0.0657,-0.0803,-0.1604,-0.2114,-0.2333,-0.2333,-0.2333,-0.2333,-0.2333,-0.2333,-0.2333,-0.2333,-0.2333,-0.2333,-0.2333,-0.2333,-0.2333,-0.2333,-0.1824,-0.1168,-0.1168,-0.0657,0.0,0.0,0.0,0.0,0.0,0.0,0.0,0.0,0.0,0.0,0.0,0.0,0.0,0.0,0.0,0.0,0.0,0.0,0.0,0.0,0.0,0.0,0.0,0.0,0.0,0.0,0.0,0.0,0.0,0.0,0.0,0.0,0.0,0.0,0.0,0.0,0.0,0.0,0.0,0.1288,0.4231,0.4402,0.5722,0.8593,0.8655,0.8633,0.859,0.859,0.859,0.859,0.859,0.859,0.0,0.0,0.0,0.0,0.0,0.0,0.0,0.0,0.0,0.0,0.0,0.0,0.0,0.0,0.0,0.0,0.0,0.0,0.0,0.0,0.0,0.0,0.0,0.0,0.0,0.0,0.0,0.0,0.0,0.0,0.0,0.0,0.0,0.0,0.0,0.0,0.0,-0.0292,-0.0438,-0.0584,-0.1167,-0.1604,-0.1969,-0.2187,-0.226,-0.2114,-0.226,-0.2333,-0.2333,-0.2333,-0.2333,-0.2333,-0.2333,-0.2333,-0.2333,-0.2333,-0.1824,-0.1168,-0.1168,-0.0657,0.0,0.0,0.0,0.0,0.0,0.0,0.0,0.0,0.0,0.0,0.0,0.0,0.0,0.0,0.0,0.0,0.0,0.0,0.0,0.0,0.0,0.0,0.0,0.0,0.0,0.0,0.0,0.0,0.0,0.0,0.0,0.0,0.0,0.0,0.0,0.0,0.0,0.0,0.0,0.1273,0.4198,0.4279,0.5647,0.8523,0.859,0.859,0.859,0.859,0.859,0.859,0.859,0.859,0.0,0.0,0.0,0.0,0.0,0.0,0.0,0.0,0.0,0.0,0.0,0.0,0.0,0.0,0.0,0.0,0.0,0.0,0.0,0.0,0.0,0.0,0.0,0.0,0.0,0.0,0.0,0.0,0.0,0.0,0.0,0.0,0.0,0.0,0.0,0.0,0.0,0.0,-0.0219,-0.0584,-0.0584,-0.0803,-0.1241,-0.1969,-0.2114,-0.1822,-0.2187,-0.2333,-0.2333,-0.2333,-0.2333,-0.2333,-0.2333,-0.2333,-0.2333,-0.2333,-0.1824,-0.1168,-0.1168,-0.0657,0.0,0.0,0.0,0.0,0.0,0.0,0.0,0.0,0.0,0.0,0.0,0.0,0.0,0.0,0.0,0.0,0.0,0.0,0.0,0.0,0.0,0.0,0.0,0.0,0.0,0.0,0.0,0.0,0.0,0.0,0.0,0.0,0.0,0.0,0.0,0.0,0.0,0.0,0.0,0.1331,0.4195,0.4279,0.5647,0.8523,0.859,0.859,0.859,0.859,0.859,0.859,0.859,0.859,0.0,0.0,0.0,0.0,0.0,0.0,0.0,0.0,0.0,0.0,0.0,0.0,0.0,0.0,0.0,0.0,0.0,0.0,0.0,0.0,0.0,0.0,0.0,0.0,0.0,0.0,0.0,0.0,0.0,0.0,0.0,0.0,0.0,0.0,0.0,0.0,0.0,0.0,-0.0073,-0.0146,-0.0438,-0.0803,-0.1241,-0.175,-0.1895,-0.1822,-0.2187,-0.2333,-0.2333,-0.2333,-0.2333,-0.2333,-0.2333,-0.2333,-0.2333,-0.2333,-0.1824,-0.1168,-0.1168,-0.0657,0.0,0.0,0.0,0.0,0.0,0.0,0.0,0.0,0.0,0.0,0.0,0.0,0.0,0.0,0.0,0.0,0.0,0.0,0.0,0.0,0.0,0.0,0.0,0.0,0.0,0.0,0.0,0.0,0.0,0.0,0.0,0.0,0.0,0.0,0.0,0.0,0.0,0.0,0.1003,0.2448,0.4195,0.4308,0.5658,0.8523,0.859,0.859,0.859,0.859,0.859,0.859,0.859,0.859,0.0,0.0,0.0,0.0,0.0,0.0,0.0,0.0,0.0,0.0,0.0,0.0,0.0,0.0,0.0,0.0,0.0,0.0,0.0,0.0,0.0,0.0,0.0,0.0,0.0,0.0,0.0,0.0,0.0,0.0,0.0,0.0,0.0,0.0,0.0,0.0,0.0,0.0,0.0,0.0,-0.0219,-0.0511,-0.073,-0.1458,-0.1677,-0.1605,-0.2114,-0.2333,-0.2333,-0.2333,-0.2333,-0.2333,-0.2333,-0.2333,-0.226,-0.2114,-0.1751,-0.1168,-0.1022,-0.0511,0.0,0.0,0.0,0.0,0.0,0.0,0.0,0.0,0.0,0.0,0.0,0.0,0.0,0.0,0.0,0.0,0.0,0.0,0.0,0.0,0.0,0.0,0.0,0.0,0.0,0.0,0.0,0.0,0.0,0.0,0.0,0.0,0.0,0.0,0.0,0.0,0.0,0.0,0.1439,0.2883,0.4267,0.486,0.6274,0.859,0.859,0.859,0.859,0.859,0.859,0.859,0.859,0.859,0.0,0.0,0.0,0.0,0.0,0.0,0.0,0.0,0.0,0.0,0.0,0.0,0.0,0.0,0.0,0.0,0.0,0.0,0.0,0.0,0.0,0.0,0.0,0.0,0.0,0.0,0.0,0.0,0.0,0.0,0.0,0.0,0.0,0.0,0.0,0.0,0.0,0.0,0.0,0.0,0.0,0.0,-0.0073,-0.1166,-0.1532,-0.1314,-0.1969,-0.2333,-0.2333,-0.2333,-0.2333,-0.2333,-0.2333,-0.2333,-0.226,-0.1895,-0.1532,-0.1168,-0.073,-0.0365,0.0,0.0,0.0,0.0,0.0,0.0,0.0,0.0,0.0,0.0,0.0,0.0,0.0,0.0,0.0,0.0,0.0,0.0,0.0,0.0,0.0,0.0,0.0,0.0,0.0,0.0,0.0,0.0,0.0,0.0,0.0,0.0,0.0,0.0,0.0,0.0,0.0,0.0,0.145,0.2913,0.4275,0.5808,0.7224,0.859,0.86,0.86,0.859,0.859,0.859,0.859,0.859,0.859,0.0,0.0,0.0,0.0,0.0,0.0,0.0,0.0,0.0,0.0,0.0,0.0,0.0,0.0,0.0,0.0,0.0,0.0,0.0,0.0,0.0,0.0,0.0,0.0,0.0,0.0,0.0,0.0,0.0,0.0,0.0,0.0,0.0,0.0,0.0,0.0,0.0,0.0,0.0,0.0,0.0,0.0,0.0,-0.0584,-0.1167,-0.1677,-0.2114,-0.2333,-0.2333,-0.2333,-0.2333,-0.2333,-0.2333,-0.2333,-0.226,-0.1895,-0.1532,-0.1168,-0.073,-0.0365,0.0,0.0,0.0,0.0,0.0,0.0,0.0,0.0,0.0,0.0,0.0,0.0,0.0,0.0,0.0,0.0,0.0,0.0,0.0,0.0,0.0,0.0,0.0,0.0,0.0,0.0,0.0,0.0,0.0,0.0,0.0,0.0,0.0,0.0,0.0,0.0,0.0,0.0,0.1455,0.2953,0.4406,0.5957,0.736,0.859,0.8682,0.8682,0.859,0.859,0.859,0.859,0.859,0.859,0.0,0.0,0.0,0.0,0.0,0.0,0.0,0.0,0.0,0.0,0.0,0.0,0.0,0.0,0.0,0.0,0.0,0.0,0.0,0.0,0.0,0.0,0.0,0.0,0.0,0.0,0.0,0.0,0.0,0.0,0.0,0.0,0.0,0.0,0.0,0.0,0.0,0.0,0.0,0.0,0.0,0.0,0.0,-0.0584,-0.124,-0.1822,-0.2187,-0.2333,-0.2333,-0.2333,-0.2333,-0.2333,-0.2333,-0.2187,-0.2041,-0.1678,-0.124,-0.0876,-0.0438,-0.0146,0.0,0.0,0.0,0.0,0.0,0.0,0.0,0.0,0.0,0.0,0.0,0.0,0.0,0.0,0.0,0.0,0.0,0.0,0.0,0.0,0.0,0.0,0.0,0.0,0.0,0.0,0.0,0.0,0.0,0.0,0.0,0.0,0.0,0.0,0.0,0.0,0.0,0.0,0.1457,0.2965,0.4427,0.6058,0.7436,0.8682,0.8736,0.8709,0.859,0.859,0.859,0.859,0.859,0.859,0.0,0.0,0.0,0.0,0.0,0.0,0.0,0.0,0.0,0.0,0.0,0.0,0.0,0.0,0.0,0.0,0.0,0.0,0.0,0.0,0.0,0.0,0.0,0.0,0.0,0.0,0.0,0.0,0.0,0.0,0.0,0.0,0.0,0.0,0.0,0.0,0.0,0.0,0.0,0.0,0.0,0.0,0.0,-0.073,-0.1313,-0.1604,-0.2041,-0.2187,-0.2187,-0.2187,-0.226,-0.226,-0.2187,-0.1968,-0.175,-0.124,-0.0876,-0.0511,-0.0146,0.0,0.0,0.0,0.0,0.0,0.0,0.0,0.0,0.0,0.0,0.0,0.0,0.0,0.0,0.0,0.0,0.0,0.0,0.0,0.0,0.0,0.0,0.0,0.0,0.0,0.0,0.0,0.0,0.0,0.0,0.0,0.0,0.0,0.0,0.0,0.0,0.0,0.0,0.0,0.1457,0.2969,0.444,0.6145,0.758,0.884,0.8812,0.8742,0.8617,0.8595,0.859,0.859,0.859,0.859,0.0,0.0,0.0,0.0,0.0,0.0,0.0,0.0,0.0,0.0,0.0,0.0,0.0,0.0,0.0,0.0,0.0,0.0,0.0,0.0,0.0,0.0,0.0,0.0,0.0,0.0,0.0,0.0,0.0,0.0,0.0,0.0,0.0,0.0,0.0,0.0,0.0,0.0,0.0,0.0,0.0,0.0,0.0,-0.0438,-0.073,-0.0802,-0.1531,-0.1895,-0.1895,-0.1895,-0.2041,-0.226,-0.1605,-0.1532,-0.1677,-0.0948,-0.0657,-0.0511,-0.0146,0.0,0.0,0.0,0.0,0.0,0.0,0.0,0.0,0.0,0.0,0.0,0.0,0.0,0.0,0.0,0.0,0.0,0.0,0.0,0.0,0.0,0.0,0.0,0.0,0.0,0.0,0.0,0.0,0.0,0.0,0.0,0.0,0.0,0.0,0.0,0.0,0.0,0.0,0.0,0.1457,0.2981,0.4573,0.6174,0.7648,0.9019,0.8911,0.8867,0.8747,0.8638,0.859,0.859,0.859,0.859,0.0,0.0,0.0,0.0,0.0,0.0,0.0,0.0,0.0,0.0,0.0,0.0,0.0,0.0,0.0,0.0,0.0,0.0,0.0,0.0,0.0,0.0,0.0,0.0,0.0,0.0,0.0,0.0,0.0,0.0,0.0,0.0,0.0,0.0,0.0,0.0,0.0,0.0,0.0,0.0,0.0,0.0,0.0,-0.0219,-0.0365,-0.0657,-0.1458,-0.1822,-0.1822,-0.1822,-0.1895,-0.1968,-0.1386,-0.1167,-0.1094,-0.0729,-0.0438,-0.0219,-0.0073,0.0,0.0,0.0,0.0,0.0,0.0,0.0,0.0,0.0,0.0,0.0,0.0,0.0,0.0,0.0,0.0,0.0,0.0,0.0,0.0,0.0,0.0,0.0,0.0,0.0,0.0,0.0,0.0,0.0,0.0,0.0,0.0,0.0,0.0,0.0,0.0,0.0,0.0,0.0,0.1457,0.3057,0.4657,0.6181,0.7684,0.9159,0.8976,0.8894,0.8769,0.8649,0.859,0.859,0.859,0.859,0.0227,0.0103,0.0,0.0,0.0,0.0,0.0,0.0,0.0,0.0,0.0,0.0,0.0,0.0,0.0,0.0,0.0,0.0,0.0,0.0,0.0,0.0,0.0,0.0,0.0,0.0,0.0,0.0,0.0,0.0,0.0,0.0,0.0,0.0,0.0,0.0,0.0,0.0,0.0,0.0,0.0,0.0,0.0,0.0,-0.0146,-0.0511,-0.1313,-0.1604,-0.1531,-0.1604,-0.1677,-0.175,-0.124,-0.0949,-0.073,-0.0657,-0.0365,0.0,0.0,0.0,0.0,0.0,0.0,0.0,0.0,0.0,0.0,0.0,0.0,0.0,0.0,0.0,0.0,0.0,0.0,0.0,0.0,0.0,0.0,0.0,0.0,0.0,0.0,0.0,0.0,0.0,0.0,0.0,0.0,0.0,0.0,0.0,0.0,0.0,0.0,0.0,0.0,0.0,0.1821,0.3421,0.4657,0.6543,0.814,0.9302,0.9101,0.8938,0.8818,0.8693,0.8617,0.859,0.859,0.859,0.0892,0.0434,0.0,0.0,0.0,0.0,0.0,0.0,0.0,0.0,0.0,0.0,0.0,0.0,0.0,0.0,0.0,0.0,0.0,0.0,0.0,0.0,0.0,0.0,0.0,0.0,0.0,0.0,0.0,0.0,0.0,0.0,0.0,0.0,0.0,0.0,0.0,0.0,0.0,0.0,0.0,0.0,0.0,0.0,0.0,-0.0073,-0.0876,-0.1022,-0.0657,-0.1095,-0.1459,-0.175,-0.0948,-0.0876,-0.1095,-0.073,-0.0365,0.0,0.0,0.0,0.0,0.0,0.0,0.0,0.0,0.0,0.0,0.0,0.0,0.0,0.0,0.0,0.0,0.0,0.0,0.0,0.0,0.0,0.0,0.0,0.0,0.0,0.0,0.0,0.0,0.0,0.0,0.0,0.0,0.0,0.0,0.0,0.0,0.0,0.0,0.0,0.0,0.0,0.2912,0.4584,0.4729,0.7562,0.923,0.9302,0.9188,0.8992,0.8874,0.8818,0.8704,0.859,0.859,0.859,0.1775,0.1503,0.1379,0.1477,0.109,0.0725,0.081,0.0391,0.0,0.0,0.0,0.0,0.0,0.0,0.0,0.0,0.0,0.0,0.0,0.0,0.0,0.0,0.0,0.0,0.0,0.0,0.0,0.0,0.0,0.0,0.0,0.0,0.0,0.0,0.0,0.0,0.0,0.0,0.0,0.0,0.0,0.0,0.0,0.0,0.0,0.0,-0.0584,-0.073,-0.0657,-0.1022,-0.1168,-0.1021,-0.0729,-0.0511,-0.0438,-0.0292,-0.0146,0.0,0.0,0.0,0.0,0.0,0.0,0.0,0.0,0.0,0.0,0.0,0.0,0.0,0.0,0.0,0.0,0.0,0.0,0.0,0.0,0.0,0.0,0.0,0.0,0.0,0.0,0.0,0.0,0.0,0.0,0.0,0.0,0.0,0.0,0.0,0.0,0.0,0.0,0.0,0.0438,0.1384,0.3494,0.5165,0.6108,0.8213,0.9302,0.9302,0.9264,0.915,0.8884,0.8829,0.8709,0.859,0.859,0.859,0.2521,0.2255,0.2157,0.2466,0.2002,0.144,0.1451,0.0883,0.0325,0.0067,0.0,0.0,0.0,0.0,0.0,0.0,0.0,0.0,0.0,0.0,0.0,0.0,0.0,0.0,0.0,0.0,0.0,0.0,0.0,0.0,0.0,0.0,0.0,0.0,0.0,0.0,0.0,0.0,0.0,0.0,0.0,0.0,0.0,0.0,0.0,0.0,-0.0292,-0.0365,-0.0438,-0.0803,-0.0876,-0.0584,-0.0584,-0.0438,-0.0219,-0.0219,-0.0146,0.0,0.0,0.0,0.0,0.0,0.0,0.0,0.0,0.0,0.0,0.0,0.0,0.0,0.0,0.0,0.0,0.0,0.0,0.0,0.0,0.0,0.0,0.0,0.0,0.0,0.0,0.0,0.0,0.0,0.0,0.0,0.0,0.0,0.0,0.0,0.0,0.0,0.0,0.0,0.0656,0.2184,0.3785,0.5383,0.6906,0.8502,0.9302,0.9302,0.9302,0.9209,0.8944,0.8889,0.8747,0.859,0.859,0.859,0.0,0.0,0.0,0.2893,0.26,0.2066,0.1889,0.1466,0.0902,0.0198,0.0067,0.0,0.0,0.0,0.0,0.0,0.0,0.0,0.0,0.0,0.0,0.0,0.0,0.0,0.0,0.0,0.0,0.0,0.0,0.0,0.0,0.0,0.0,0.0,0.0,0.0,0.0,0.0,0.0,0.0,0.0,0.0,0.0,0.0,0.0,0.0,0.0,0.0,0.0,-0.0438,-0.0584,-0.0584,-0.0584,-0.0584,-0.0584,-0.0584,-0.0365,0.0,0.0,0.0,0.0,0.0,0.0,0.0,0.0,0.0,0.0,0.0,0.0,0.0,0.0,0.0,0.0,0.0,0.0,0.0,0.0,0.0,0.0,0.0,0.0,0.0,0.0,0.0,0.0,0.0,0.0,0.0,0.0,0.0,0.0,0.0,0.0,0.0,0.0,0.0073,0.0729,0.2257,0.3857,0.5456,0.6978,0.8502,0.9302,0.9302,0.9302,0.9247,0.9133,0.8944,0.8829,0.8595,0.859,0.859,0.3956,0.0,0.0,0.0,0.0,0.0,0.3194,0.2496,0.1636,0.1035,0.0863,0.0624,0.0067,0.0,0.0,0.0,0.0,0.0,0.0,0.0,0.0,0.0,0.0,0.0,0.0,0.0,0.0,0.0,0.0,0.0,0.0,0.0,0.0,0.0,0.0,0.0,0.0,0.0,0.0,0.0,0.0,0.0,0.0,0.0,0.0,0.0,0.0,0.0,0.0,-0.0438,-0.0438,-0.0219,-0.0511,-0.0438,-0.0146,-0.0146,-0.0073,0.0,0.0,0.0,0.0,0.0,0.0,0.0,0.0,0.0,0.0,0.0,0.0,0.0,0.0,0.0,0.0,0.0,0.0,0.0,0.0,0.0,0.0,0.0,0.0,0.0,0.0,0.0,0.0,0.0,0.0,0.0,0.0,0.0,0.0,0.0,0.0,0.0,0.0,0.1021,0.233,0.393,0.5528,0.705,0.8574,0.9085,0.9302,0.9302,0.9302,0.9247,0.9133,0.8944,0.8872,0.872,0.8628,0.859,0.4387,0.4409,0.4564,0.4903,0.0,0.0,0.3494,0.2716,0.1849,0.0921,0.069,0.0507,0.0067,0.0,0.0,0.0,0.0,0.0,0.0,0.0,0.0,0.0,0.0,0.0,0.0,0.0,0.0,0.0,0.0,0.0,0.0,0.0,0.0,0.0,0.0,0.0,0.0,0.0,0.0,0.0,0.0,0.0,0.0,0.0,0.0,0.0,0.0,0.0,0.0,-0.0219,-0.0219,0.0,-0.0292,-0.0219,0.0,0.0,0.0,0.0,0.0,0.0,0.0,0.0,0.0,0.0,0.0,0.0,0.0,0.0,0.0,0.0,0.0,0.0,0.0,0.0,0.0,0.0,0.0,0.0,0.0,0.0,0.0,0.0,0.0,0.0,0.0,0.0,0.0,0.0,0.0,0.0,0.0,0.0,0.0,0.0292,0.0875,0.1748,0.3274,0.5528,0.6471,0.7706,0.923,0.9302,0.9302,0.9302,0.9302,0.9247,0.9133,0.8944,0.8861,0.8693,0.8622,0.859,0.4556,0.4635,0.4832,0.5249,0.4964,0.0,0.3313,0.2715,0.2023,0.0687,0.0387,0.0323,0.0261,0.0262,0.0262,0.0262,0.0198,0.0133,0.0,0.0,0.0,0.0,0.0,0.0,0.0,0.0,0.0,0.0,0.0,0.0,0.0,0.0,0.0,0.0,0.0,0.0,0.0,0.0,0.0,0.0,0.0,0.0,0.0,0.0,0.0,0.0,0.0,0.0,0.0,0.0,0.0,0.0,0.0,0.0,0.0,0.0,0.0,0.0,0.0,0.0,0.0,0.0,0.0,0.0,0.0,0.0,0.0,0.0,0.0,0.0,0.0,0.0,0.0,0.0,0.0,0.0,0.0,0.0,0.0,0.0,0.0,0.0,0.0,0.0,0.0,0.0,0.0,0.0,0.0,0.0,0.0,0.0,0.0,0.0656,0.2184,0.2474,0.3855,0.6833,0.7195,0.7851,0.923,0.9302,0.9302,0.9302,0.9302,0.9247,0.9133,0.8944,0.8834,0.8606,0.8595,0.859,0.4556,0.4855,0.4942,0.4942,0.4991,0.0,0.4445,0.4299,0.4001,0.2953,0.2654,0.2415,0.1795,0.1791,0.1799,0.172,0.1337,0.0818,0.0067,0.0,0.0,0.0,0.0,0.0,0.0,0.0,0.0,0.0,0.0,0.0,0.0,0.0,0.0,0.0,0.0,0.0,0.0,0.0,0.0,0.0,0.0,0.0,0.0,0.0,0.0,0.0,0.0,0.0,0.0,0.0,0.0,0.0,0.0,0.0,0.0,0.0,0.0,0.0,0.0,0.0,0.0,0.0,0.0,0.0,0.0,0.0,0.0,0.0,0.0,0.0,0.0,0.0,0.0,0.0,0.0,0.0,0.0,0.0,0.0,0.0,0.0,0.0,0.0,0.0,0.0,0.0,0.0,0.0,0.0,0.0,0.0,0.0,0.0,0.0656,0.2184,0.3494,0.502,0.6906,0.814,0.9013,0.9302,0.9302,0.9302,0.9302,0.9302,0.9247,0.9133,0.8944,0.8878,0.8731,0.8633,0.859,0.5027,0.5143,0.5175,0.5116,0.5143,0.0,0.0,0.4168,0.3905,0.3113,0.2779,0.2536,0.2191,0.2131,0.2191,0.2118,0.161,0.1194,0.1263,0.0514,0.0,0.0,0.0,0.0,0.0,0.0,0.0,0.0,0.0,0.0,0.0,0.0,0.0,0.0,0.0,0.0,0.0,0.0,0.0,0.0,0.0,0.0,0.0,0.0,0.0,0.0,0.0,0.0,0.0,0.0,0.0,0.0,0.0,0.0,0.0,0.0,0.0,0.0,0.0,0.0,0.0,0.0,0.0,0.0,0.0,0.0,0.0,0.0,0.0,0.0,0.0,0.0,0.0,0.0,0.0,0.0,0.0,0.0,0.0,0.0,0.0,0.0,0.0,0.0,0.0,0.0,0.0,0.0,0.0,0.0,0.0294,0.1094,0.1166,0.2111,0.4436,0.538,0.6471,0.8068,0.8868,0.9302,0.9302,0.9302,0.9302,0.9302,0.9302,0.9275,0.922,0.8971,0.8889,0.8769,0.8644,0.859,0.5529,0.5517,0.5522,0.5407,0.5344,0.5115,0.0,0.0,0.0,0.302,0.2711,0.2557,0.2557,0.255,0.255,0.2559,0.1976,0.1744,0.2521,0.1343,0.0384,0.0452,0.0199,0.0067,0.0201,0.0067,0.0,0.0,0.0,0.0,0.0,0.0,0.0,0.0,0.0,0.0,0.0,0.0,0.0,0.0,0.0,0.0,0.0,0.0,0.0,0.0,0.0,0.0,0.0,0.0,0.0,0.0,0.0,0.0,0.0,0.0,0.0,0.0,0.0,0.0,0.0,0.0,0.0,0.0,0.0,0.0,0.0,0.0,0.0,0.0,0.0,0.0,0.0,0.0,0.0,0.0,0.0,0.0,0.0,0.0,0.0,0.0,0.0,0.0,0.0,0.0,0.0,0.0,0.0,0.0294,0.0948,0.2184,0.2548,0.3928,0.6761,0.6978,0.7634,0.923,0.9302,0.9302,0.9302,0.9302,0.9302,0.9302,0.9302,0.9302,0.9302,0.8998,0.8899,0.8802,0.8655,0.859,0.5588,0.5844,0.5877,0.5339,0.56,0.5773,0.482,0.0,0.4853,0.439,0.0,0.4213,0.4213,0.0,0.0,0.4203,0.3502,0.3017,0.312,0.2342,0.1873,0.2179,0.0932,0.0329,0.1047,0.0429,0.0,0.0,0.0,0.0,0.0,0.0,0.0,0.0,0.0,0.0,0.0,0.0,0.0,0.0,0.0,0.0,0.0,0.0,0.0,0.0,0.0,0.0,0.0,0.0,0.0,0.0,0.0,0.0,0.0,0.0,0.0,0.0,0.0,0.0,0.0,0.0,0.0,0.0,0.0,0.0,0.0,0.0,0.0,0.0,0.0,0.0,0.0,0.0,0.0,0.0,0.0,0.0,0.0,0.0,0.0,0.0,0.0,0.0,0.0,0.0,0.0,0.0,0.0,0.1167,0.2111,0.2257,0.3567,0.5093,0.6833,0.6978,0.7634,0.923,0.9302,0.9302,0.9302,0.9302,0.9302,0.9302,0.9302,0.9302,0.9302,0.8998,0.8874,0.8857,0.8693,0.859,0.5821,0.6105,0.6252,0.5654,0.5899,0.6056,0.5205,0.4958,0.4876,0.4708,0.0,0.0,0.0,0.0,0.0,0.0,0.3577,0.3188,0.3666,0.2603,0.1887,0.2253,0.1637,0.1148,0.1184,0.0472,0.0,0.0,0.0,0.0,0.0,0.0,0.0,0.0,0.0,0.0,0.0,0.0,0.0,0.0,0.0,0.0,0.0,0.0,0.0,0.0,0.0,0.0,0.0,0.0,0.0,0.0,0.0,0.0,0.0,0.0,0.0,0.0,0.0,0.0,0.0,0.0,0.0,0.0,0.0,0.0,0.0,0.0,0.0,0.0,0.0,0.0,0.0,0.0,0.0,0.0,0.0,0.0,0.0,0.0,0.0,0.0,0.0,0.0,0.0,0.0,0.0,0.0292,0.1239,0.1893,0.2983,0.4799,0.5597,0.6688,0.8213,0.8357,0.8579,0.923,0.9302,0.9302,0.9302,0.9302,0.9302,0.9302,0.9302,0.9302,0.9302,0.9139,0.8949,0.8879,0.8698,0.859,0.6301,0.6426,0.6545,0.5817,0.5896,0.6004,0.5306,0.5029,0.4881,0.4795,0.4681,0.0,0.0,0.0,0.4213,0.4213,0.0,0.3414,0.3971,0.2993,0.2342,0.2678,0.2525,0.2143,0.1454,0.0706,0.0283,0.0327,0.012,0.0,0.0,0.0,0.0,0.0,0.0,0.0,0.0,0.0,0.0,0.0,0.0,0.0,0.0,0.0,0.0,0.0,0.0,0.0,0.0,0.0,0.0,0.0,0.0,0.0,0.0,0.0,0.0,0.0,0.0,0.0,0.0,0.0,-0.0075,-0.015,-0.0153,-0.0231,-0.0387,-0.0391,-0.0236,-0.0157,-0.0157,-0.0079,0.0,0.0,0.0,0.0,0.0,0.0,0.0,0.0,0.0,0.0,0.0,0.0,0.0,0.0,0.0,0.0583,0.2111,0.2692,0.4,0.6688,0.7344,0.8068,0.923,0.9302,0.9302,0.9302,0.9302,0.9302,0.9302,0.9302,0.9302,0.9302,0.9302,0.9302,0.9302,0.9188,0.9019,0.8927,0.8753,0.8622,0.7062,0.6872,0.6719,0.5692,0.5567,0.5583,0.5137,0.5192,0.5246,0.4866,0.5007,0.5089,0.4822,0.4621,0.4492,0.4492,0.4251,0.0,0.0,0.3811,0.3866,0.4188,0.3726,0.2995,0.2159,0.1482,0.1061,0.1048,0.0378,0.0,0.0,0.0,0.0,0.0,0.0,0.0,0.0,0.0,0.0,0.0,0.0,0.0,0.0,0.0,0.0,0.0,0.0,0.0,0.0,0.0,0.0,0.0,0.0,0.0,0.0,0.0,0.0,0.0,0.0,0.0,0.0,0.0,-0.03,-0.0607,-0.0615,-0.0925,-0.1237,-0.1252,-0.0942,-0.055,-0.055,-0.0314,0.0,0.0,0.0,0.0,0.0,0.0,0.0,0.0,0.0,0.0,0.0,0.0,0.0,0.0,0.0,0.0583,0.2111,0.3639,0.5238,0.6833,0.8357,0.923,0.9302,0.9302,0.9302,0.9302,0.9302,0.9302,0.9302,0.9302,0.9302,0.9302,0.9302,0.9302,0.9302,0.9188,0.9133,0.9122,0.8878,0.8704,0.7497,0.766,0.7633,0.6388,0.6377,0.6404,0.5366,0.5252,0.5268,0.4871,0.5023,0.5089,0.4773,0.4618,0.4482,0.4371,0.4224,0.3959,0.0,0.3474,0.3534,0.3923,0.3487,0.2831,0.2102,0.1469,0.0885,0.0395,0.0167,0.0,0.0,0.0,0.0,0.0,0.0,0.0,0.0,0.0,0.0,0.0,0.0,0.0,0.0,0.0,0.0,0.0,0.0,0.0,0.0,0.0,0.0,0.0,0.0,0.0,0.0,0.0,0.0,0.0,0.0,0.0,0.0,0.0,-0.0076,-0.023,-0.0233,-0.0468,-0.086,-0.0863,-0.0942,-0.1099,-0.1099,-0.0707,-0.0393,-0.0393,-0.0157,0.0,0.0,0.0,0.0,0.0,0.0,0.0,0.0,0.0,0.0,0.0,0.0885,0.2111,0.3712,0.5238,0.6833,0.8357,0.9013,0.9302,0.9302,0.9302,0.9302,0.9302,0.9302,0.9302,0.9302,0.9302,0.9302,0.9302,0.9302,0.9302,0.9302,0.9264,0.9166,0.8944,0.8927,0.8823,0.8013,0.8182,0.8149,0.698,0.6959,0.692,0.5757,0.5643,0.56,0.5279,0.5235,0.5325,0.544,0.4969,0.4616,0.467,0.4365,0.3952,0.0,0.3371,0.342,0.3632,0.3454,0.3057,0.2462,0.1815,0.1136,0.045,0.0164,0.0,0.0,0.0,0.0,0.0,0.0,0.0,0.0,0.0,0.0,0.0,0.0,0.0,0.0,0.0,0.0,0.0,0.0,0.0,0.0,0.0,0.0,0.0,0.0,0.0,0.0,0.0,0.0,0.0,0.0,-0.0075,-0.0227,-0.023,-0.0387,-0.07,-0.0705,-0.0942,-0.1254,-0.1243,-0.1404,-0.149,-0.1477,-0.1015,-0.0628,-0.0628,-0.0314,0.0,0.0,0.0,0.0,0.0,0.0462,0.0837,0.0837,0.1272,0.1478,0.0891,0.1689,0.3056,0.5238,0.6398,0.7562,0.9157,0.9302,0.9302,0.9302,0.9302,0.9302,0.9302,0.9302,0.9302,0.9302,0.9302,0.9302,0.9302,0.9302,0.9302,0.9302,0.9302,0.9204,0.8944,0.89,0.8889]}]]